[[{"header":{"parameterUnit":"m.s-1","parameterCategory":1,"la1":30.6,"la2":29.2853,"lo1":-89.7004,"lo2":-87.6739,"dy":0.0162,"dx":0.0183,"nx":112,"ny":82,"refTime":"2024-04-18T06:00:00:Z","depth":0,"parameterNumber":2,"parameterNumberName":"U-component_of_WINDS"},"data":[0.0,0.0,0.0,0.0,0.0,0.0,0.0,0.0,0.0,0.0,0.0,0.0,0.0,0.0,0.0,0.0,0.0,0.0,0.0,0.0,0.0,0.0,0.0,0.0,0.0,0.0,0.0,0.0,0.0,0.0,0.0,0.0,0.0,0.0,0.0,0.0,0.0,0.0,0.0,0.0,0.0,0.0,0.0,0.0,0.0,0.0,0.0,0.0,0.0,0.0,0.0,0.0,0.0,0.0,0.0,0.0,0.0,0.0,0.0,0.0,0.0,0.0,0.0,0.0,0.0,0.0,0.0,0.0,0.0,0.0,0.0,0.0,0.0,0.0,0.0,0.0,0.0,0.0,0.0,0.0,0.0,0.0,0.0,0.0,0.0,0.0,0.0,0.0,0.0,0.0,-4.5796,-4.5885,-4.6144,-4.6308,-4.6308,-4.6308,-4.6308,-4.6308,0.0,0.0,0.0,0.0,0.0,0.0,0.0,0.0,0.0,0.0,0.0,0.0,0.0,0.0,0.0,0.0,0.0,0.0,0.0,0.0,0.0,0.0,0.0,0.0,0.0,0.0,0.0,0.0,0.0,0.0,0.0,0.0,0.0,0.0,0.0,0.0,0.0,0.0,0.0,0.0,0.0,0.0,0.0,0.0,0.0,0.0,0.0,0.0,0.0,0.0,0.0,0.0,0.0,0.0,0.0,0.0,0.0,0.0,0.0,0.0,0.0,0.0,0.0,0.0,0.0,0.0,0.0,0.0,0.0,0.0,0.0,0.0,0.0,0.0,0.0,0.0,0.0,0.0,0.0,0.0,0.0,0.0,0.0,0.0,0.0,0.0,0.0,0.0,0.0,0.0,0.0,0.0,0.0,0.0,0.0,0.0,0.0,0.0,0.0,0.0,0.0,0.0,0.0,0.0,-4.5699,-4.5876,-4.6144,-4.6308,-4.6308,-4.6308,-4.6308,-4.6308,0.0,0.0,0.0,0.0,0.0,0.0,0.0,0.0,0.0,0.0,0.0,0.0,0.0,0.0,0.0,0.0,0.0,0.0,0.0,0.0,0.0,0.0,0.0,0.0,0.0,0.0,0.0,0.0,0.0,0.0,0.0,0.0,0.0,0.0,0.0,0.0,0.0,0.0,0.0,0.0,0.0,0.0,0.0,0.0,0.0,0.0,0.0,0.0,0.0,0.0,0.0,0.0,0.0,0.0,0.0,0.0,0.0,0.0,0.0,0.0,0.0,0.0,0.0,0.0,0.0,0.0,0.0,0.0,0.0,0.0,0.0,0.0,0.0,0.0,0.0,0.0,0.0,0.0,0.0,0.0,0.0,0.0,0.0,0.0,0.0,0.0,0.0,0.0,0.0,0.0,0.0,0.0,0.0,0.0,0.0,0.0,0.0,0.0,0.0,0.0,0.0,0.0,0.0,-4.5657,-4.5757,-4.5881,-4.6077,-4.6223,-4.6289,-4.6308,-4.6308,-4.6308,-4.6247,0.0,0.0,0.0,0.0,0.0,0.0,0.0,0.0,0.0,0.0,0.0,0.0,0.0,0.0,0.0,0.0,0.0,0.0,0.0,0.0,0.0,0.0,0.0,0.0,0.0,0.0,0.0,0.0,0.0,0.0,0.0,0.0,0.0,0.0,0.0,0.0,0.0,0.0,0.0,0.0,0.0,0.0,0.0,0.0,0.0,0.0,0.0,0.0,0.0,0.0,0.0,0.0,0.0,0.0,0.0,0.0,0.0,0.0,0.0,0.0,0.0,0.0,0.0,0.0,0.0,0.0,0.0,0.0,0.0,0.0,0.0,0.0,0.0,0.0,0.0,0.0,0.0,0.0,0.0,0.0,0.0,0.0,0.0,0.0,0.0,0.0,0.0,0.0,0.0,0.0,0.0,0.0,0.0,0.0,0.0,0.0,0.0,0.0,0.0,0.0,0.0,0.0,-4.5723,-4.5808,-4.5867,-4.6018,-4.6145,-4.6247,-4.6289,-4.6308,-4.6308,-4.6308,0.0,0.0,0.0,0.0,0.0,0.0,0.0,0.0,0.0,0.0,0.0,0.0,0.0,0.0,0.0,0.0,0.0,0.0,0.0,0.0,0.0,0.0,0.0,0.0,0.0,0.0,0.0,0.0,0.0,0.0,0.0,0.0,0.0,0.0,0.0,0.0,0.0,0.0,0.0,0.0,0.0,0.0,0.0,0.0,0.0,0.0,0.0,0.0,0.0,0.0,0.0,0.0,0.0,0.0,0.0,0.0,0.0,0.0,0.0,0.0,0.0,0.0,0.0,0.0,0.0,0.0,0.0,0.0,0.0,0.0,0.0,0.0,0.0,0.0,0.0,0.0,0.0,0.0,0.0,0.0,0.0,0.0,0.0,0.0,0.0,0.0,0.0,0.0,0.0,0.0,0.0,0.0,0.0,0.0,0.0,0.0,0.0,0.0,0.0,0.0,0.0,0.0,-4.5723,-4.5803,-4.5816,-4.5975,-4.6091,-4.6115,-4.6225,-4.6308,-4.6308,-4.6308,0.0,0.0,0.0,0.0,0.0,0.0,0.0,0.0,0.0,0.0,0.0,0.0,0.0,0.0,0.0,0.0,0.0,0.0,0.0,0.0,0.0,0.0,0.0,0.0,0.0,0.0,0.0,0.0,0.0,0.0,0.0,0.0,0.0,0.0,0.0,0.0,0.0,0.0,0.0,0.0,0.0,0.0,0.0,0.0,0.0,0.0,0.0,0.0,0.0,0.0,0.0,0.0,0.0,0.0,0.0,0.0,0.0,0.0,0.0,0.0,0.0,0.0,0.0,0.0,0.0,0.0,0.0,0.0,0.0,0.0,0.0,0.0,0.0,0.0,0.0,0.0,0.0,0.0,0.0,0.0,0.0,0.0,0.0,0.0,0.0,0.0,0.0,0.0,0.0,0.0,0.0,0.0,0.0,0.0,0.0,0.0,0.0,0.0,0.0,0.0,0.0,0.0,-4.5651,-4.5708,-4.579,-4.5872,-4.5924,-4.5974,-4.603,-4.6084,-4.6173,0.0,0.0,0.0,0.0,0.0,0.0,0.0,0.0,0.0,0.0,0.0,0.0,0.0,0.0,0.0,0.0,0.0,0.0,0.0,0.0,0.0,0.0,0.0,0.0,0.0,0.0,0.0,0.0,0.0,0.0,0.0,0.0,0.0,0.0,0.0,0.0,0.0,0.0,0.0,0.0,0.0,0.0,0.0,0.0,0.0,0.0,0.0,0.0,0.0,0.0,0.0,0.0,0.0,0.0,0.0,0.0,0.0,0.0,0.0,0.0,0.0,0.0,0.0,0.0,0.0,0.0,0.0,0.0,0.0,0.0,0.0,0.0,0.0,0.0,0.0,0.0,0.0,0.0,0.0,0.0,0.0,0.0,0.0,0.0,0.0,0.0,0.0,0.0,0.0,0.0,0.0,0.0,0.0,0.0,0.0,0.0,0.0,0.0,0.0,0.0,0.0,0.0,-4.5594,-4.5594,-4.5635,-4.5737,-4.5769,-4.5828,-4.5852,-4.5896,-4.5967,-4.6087,0.0,0.0,0.0,0.0,0.0,0.0,0.0,0.0,0.0,0.0,0.0,0.0,0.0,0.0,0.0,0.0,0.0,0.0,0.0,0.0,0.0,0.0,0.0,0.0,0.0,0.0,0.0,0.0,0.0,0.0,0.0,0.0,0.0,0.0,0.0,0.0,0.0,0.0,0.0,0.0,0.0,0.0,0.0,0.0,0.0,0.0,0.0,0.0,0.0,0.0,0.0,0.0,0.0,0.0,0.0,0.0,0.0,0.0,0.0,0.0,0.0,0.0,0.0,0.0,0.0,0.0,0.0,0.0,0.0,0.0,0.0,0.0,0.0,0.0,0.0,0.0,0.0,0.0,0.0,0.0,0.0,0.0,0.0,0.0,0.0,0.0,0.0,0.0,0.0,0.0,0.0,0.0,0.0,0.0,0.0,0.0,0.0,0.0,0.0,0.0,0.0,0.0,-4.5594,-4.5594,-4.5605,-4.5594,-4.5723,-4.5796,-4.5796,-4.5861,-4.5944,0.0,0.0,0.0,0.0,0.0,0.0,0.0,0.0,0.0,0.0,0.0,0.0,0.0,0.0,0.0,0.0,0.0,0.0,0.0,0.0,0.0,0.0,0.0,0.0,0.0,0.0,0.0,0.0,0.0,0.0,0.0,0.0,0.0,0.0,0.0,0.0,0.0,0.0,0.0,0.0,0.0,0.0,0.0,0.0,0.0,0.0,0.0,0.0,0.0,0.0,0.0,0.0,0.0,0.0,0.0,0.0,0.0,0.0,0.0,0.0,0.0,0.0,0.0,0.0,0.0,0.0,0.0,0.0,0.0,0.0,0.0,0.0,0.0,0.0,0.0,0.0,0.0,0.0,0.0,0.0,0.0,0.0,0.0,0.0,0.0,0.0,0.0,0.0,0.0,0.0,0.0,0.0,0.0,0.0,0.0,0.0,0.0,0.0,0.0,0.0,0.0,0.0,0.0,-4.5531,-4.5381,-4.5332,-4.5577,-4.5635,-4.5657,-4.5657,-4.5673,-4.575,-4.5869,0.0,0.0,0.0,0.0,0.0,0.0,0.0,0.0,0.0,0.0,0.0,0.0,0.0,0.0,0.0,0.0,0.0,0.0,0.0,0.0,0.0,0.0,0.0,0.0,0.0,0.0,0.0,0.0,0.0,0.0,0.0,0.0,0.0,0.0,0.0,0.0,0.0,0.0,0.0,0.0,0.0,0.0,0.0,0.0,0.0,0.0,0.0,0.0,0.0,0.0,0.0,0.0,0.0,0.0,0.0,0.0,0.0,0.0,0.0,0.0,0.0,0.0,0.0,0.0,0.0,0.0,0.0,0.0,0.0,0.0,0.0,0.0,0.0,0.0,0.0,0.0,0.0,0.0,0.0,0.0,0.0,0.0,0.0,0.0,0.0,0.0,0.0,0.0,0.0,0.0,0.0,0.0,0.0,0.0,0.0,0.0,0.0,0.0,0.0,0.0,0.0,0.0,-4.515,-4.5041,-4.5041,-4.5362,-4.541,-4.5448,-4.5586,-4.5594,-4.5668,-4.579,0.0,0.0,0.0,0.0,0.0,0.0,0.0,0.0,0.0,0.0,0.0,0.0,0.0,0.0,0.0,0.0,0.0,0.0,0.0,0.0,0.0,0.0,0.0,0.0,0.0,0.0,0.0,0.0,0.0,0.0,0.0,0.0,0.0,0.0,0.0,0.0,0.0,0.0,0.0,0.0,0.0,0.0,0.0,0.0,0.0,0.0,0.0,0.0,0.0,0.0,0.0,0.0,0.0,0.0,0.0,0.0,0.0,0.0,0.0,0.0,0.0,0.0,0.0,0.0,0.0,0.0,0.0,0.0,0.0,0.0,0.0,0.0,0.0,0.0,0.0,0.0,0.0,0.0,0.0,0.0,0.0,0.0,0.0,0.0,0.0,0.0,0.0,0.0,0.0,0.0,0.0,0.0,0.0,0.0,0.0,0.0,0.0,0.0,0.0,0.0,0.0,0.0,-4.458,-4.4567,-4.467,-4.503,-4.5052,-4.518,-4.5485,-4.555,-4.5607,-4.5742,0.0,0.0,0.0,0.0,0.0,0.0,0.0,0.0,0.0,0.0,0.0,0.0,0.0,0.0,0.0,0.0,0.0,0.0,0.0,0.0,0.0,0.0,0.0,0.0,0.0,0.0,0.0,0.0,0.0,0.0,0.0,0.0,0.0,0.0,0.0,0.0,0.0,0.0,0.0,0.0,0.0,0.0,0.0,0.0,0.0,0.0,0.0,0.0,0.0,0.0,0.0,0.0,0.0,0.0,0.0,0.0,0.0,0.0,0.0,0.0,-4.4104,0.0,0.0,0.0,0.0,0.0,0.0,0.0,0.0,0.0,0.0,0.0,0.0,0.0,0.0,0.0,0.0,0.0,0.0,0.0,0.0,0.0,0.0,0.0,0.0,0.0,0.0,0.0,0.0,0.0,0.0,0.0,0.0,0.0,0.0,0.0,0.0,0.0,0.0,0.0,0.0,0.0,-4.4527,-4.4318,-4.4276,-4.4657,-4.4714,-4.4751,-4.4806,-4.5063,-4.5213,-4.5255,-4.5502,0.0,0.0,0.0,0.0,0.0,0.0,0.0,0.0,0.0,0.0,0.0,0.0,0.0,0.0,0.0,0.0,0.0,0.0,0.0,0.0,0.0,0.0,0.0,0.0,0.0,0.0,0.0,0.0,0.0,0.0,0.0,0.0,0.0,0.0,0.0,0.0,0.0,0.0,0.0,0.0,0.0,0.0,0.0,0.0,0.0,0.0,0.0,0.0,0.0,0.0,0.0,0.0,0.0,0.0,0.0,0.0,0.0,0.0,0.0,0.0,-4.3514,0.0,0.0,0.0,0.0,0.0,0.0,0.0,0.0,0.0,0.0,0.0,0.0,0.0,0.0,0.0,0.0,0.0,0.0,0.0,0.0,0.0,0.0,0.0,0.0,0.0,0.0,0.0,0.0,0.0,0.0,0.0,0.0,0.0,0.0,0.0,0.0,0.0,0.0,0.0,0.0,-4.402,-4.3899,-4.3896,-4.4261,-4.4304,-4.4392,-4.458,-4.4745,-4.4861,-4.4861,-4.5022,0.0,0.0,0.0,0.0,0.0,0.0,0.0,0.0,0.0,0.0,0.0,0.0,0.0,0.0,0.0,0.0,0.0,0.0,0.0,0.0,0.0,0.0,0.0,0.0,0.0,0.0,0.0,0.0,0.0,0.0,0.0,0.0,0.0,0.0,0.0,0.0,0.0,0.0,0.0,0.0,0.0,0.0,0.0,0.0,0.0,0.0,0.0,0.0,0.0,0.0,0.0,0.0,0.0,-4.5791,-4.5332,-4.47,-4.47,-4.3766,-4.2154,-4.2655,-4.2405,-4.1686,-4.2302,0.0,0.0,0.0,0.0,0.0,0.0,0.0,0.0,0.0,0.0,0.0,0.0,0.0,0.0,0.0,0.0,0.0,0.0,0.0,0.0,0.0,0.0,0.0,0.0,-4.111,-4.0897,0.0,0.0,0.0,0.0,0.0,0.0,0.0,0.0,0.0,0.0,0.0,0.0,-4.3375,-4.3444,-4.3614,-4.3881,-4.3909,-4.4046,-4.4378,-4.446,-4.4501,-4.4501,-4.4553,-4.4593,0.0,0.0,0.0,0.0,0.0,0.0,0.0,0.0,0.0,0.0,0.0,0.0,0.0,0.0,0.0,0.0,0.0,0.0,0.0,0.0,0.0,0.0,0.0,0.0,0.0,0.0,0.0,0.0,0.0,0.0,0.0,0.0,-4.343,-4.3558,0.0,0.0,0.0,0.0,0.0,0.0,0.0,0.0,0.0,0.0,0.0,0.0,0.0,-4.6248,-4.6248,-4.5093,-4.4578,-4.4665,-4.3417,-4.2781,-4.2695,-4.2695,-4.2541,-4.2292,-4.2354,0.0,-4.1064,-4.1664,0.0,0.0,0.0,0.0,0.0,0.0,0.0,0.0,0.0,0.0,0.0,0.0,0.0,0.0,0.0,0.0,0.0,0.0,0.0,0.0,0.0,0.0,-4.0229,-4.0328,-4.0254,-4.0229,0.0,-4.1099,-4.1814,-4.1895,-4.1916,0.0,0.0,0.0,0.0,0.0,0.0,0.0,-4.2864,-4.3214,-4.3513,-4.3546,-4.3582,-4.358,-4.3647,-4.3912,-4.4073,-4.4073,-4.4419,-4.4593,-4.4593,-4.4631,0.0,0.0,0.0,0.0,0.0,0.0,0.0,0.0,0.0,0.0,0.0,0.0,0.0,0.0,0.0,0.0,0.0,0.0,0.0,0.0,0.0,0.0,0.0,0.0,0.0,0.0,0.0,0.0,0.0,-4.2605,-4.2739,-4.2732,-4.2903,-4.316,0.0,0.0,0.0,0.0,0.0,0.0,0.0,0.0,0.0,-4.4241,-4.4552,-4.4725,-4.4725,-4.4147,-4.4057,-4.4485,-4.3871,-4.3599,-4.3599,-4.3599,-4.3335,-4.2929,-4.2929,-4.2445,-4.1705,-4.1887,-4.2108,-4.2339,0.0,0.0,0.0,0.0,-4.2183,-4.2121,-4.1512,-4.1273,0.0,-4.1273,0.0,0.0,0.0,0.0,0.0,0.0,0.0,0.0,0.0,0.0,-4.0096,-4.0096,-4.0096,-4.0096,-4.0096,-4.049,-4.0938,0.0,-4.1273,-4.1599,-4.2539,0.0,0.0,0.0,0.0,-4.2464,-4.2223,-4.2404,-4.2676,-4.3014,-4.305,-4.3178,-4.3462,-4.3629,-4.3726,-4.3726,-4.3884,-4.3992,-4.3992,-4.4165,-4.4261,0.0,0.0,0.0,0.0,0.0,0.0,0.0,0.0,0.0,0.0,0.0,0.0,0.0,0.0,0.0,0.0,0.0,0.0,0.0,0.0,0.0,0.0,0.0,0.0,0.0,0.0,0.0,0.0,-4.2005,-4.1504,-4.17,-4.1255,-4.1272,0.0,0.0,0.0,0.0,0.0,0.0,-4.4005,-4.4395,-4.4215,-4.3426,-4.3606,-4.3724,-4.3724,-4.3724,-4.4012,-4.4615,-4.4615,-4.4615,-4.4615,-4.4615,-4.4265,-4.3724,-4.3724,-4.3403,-4.2848,-4.2372,-4.2233,-4.2341,-4.2011,-4.196,-4.2055,-4.1692,-4.1578,-4.149,-4.0897,-4.0703,-4.0703,-4.0703,0.0,-4.0703,-4.0703,0.0,0.0,0.0,0.0,-4.0096,-4.0096,-4.0096,-4.0096,-4.0096,-4.0096,-4.0096,-4.0096,-4.0096,-4.0229,0.0,-4.0703,-4.1036,-4.2059,0.0,0.0,0.0,0.0,-4.1729,-4.1599,-4.1707,-4.1958,-4.242,-4.248,-4.2637,-4.3032,-4.3196,-4.3304,-4.3304,-4.3427,-4.3515,-4.3515,-4.3742,-4.3865,-4.3865,0.0,0.0,0.0,0.0,0.0,0.0,0.0,0.0,0.0,0.0,0.0,0.0,0.0,0.0,0.0,0.0,0.0,0.0,0.0,0.0,0.0,0.0,0.0,0.0,0.0,0.0,0.0,0.0,0.0,-4.0121,-4.0188,0.0,0.0,0.0,0.0,-4.3392,-4.4096,-4.3938,-4.2472,-4.3819,-4.4215,-4.3426,-4.413,-4.4547,-4.4547,-4.4547,-4.4564,-4.4615,-4.4615,-4.4615,-4.4615,-4.4615,-4.4581,-4.4547,-4.4547,-4.453,-4.4378,-4.2898,-4.2621,-4.3054,-4.2358,-4.2404,-4.2697,-4.1417,-4.0949,-4.0874,-4.0336,-4.0146,-4.0146,-4.0146,-4.0146,-4.0146,-4.0146,-4.0121,0.0,0.0,-4.0096,-4.0096,-4.0096,-4.0096,-4.0096,-4.0096,-4.0096,-4.0096,-4.0096,-4.0096,-4.0096,0.0,-4.0146,-4.0311,-4.0897,0.0,-4.0949,-4.0995,-4.1446,-4.1599,-4.1018,-4.1446,-4.181,-4.1853,-4.1853,-4.1874,-4.1877,-4.2402,-4.275,-4.275,-4.3214,-4.3515,-4.3515,-4.3513,-4.3531,-4.3531,-4.3548,0.0,0.0,0.0,0.0,0.0,0.0,0.0,0.0,0.0,0.0,0.0,0.0,0.0,0.0,0.0,0.0,0.0,0.0,0.0,0.0,0.0,0.0,0.0,0.0,0.0,0.0,0.0,0.0,-3.9817,-3.9106,0.0,-4.0554,-4.0952,-4.1295,-4.1768,-4.2045,-4.219,-4.2108,-4.3158,-4.3623,-4.3356,-4.4147,-4.4615,-4.4615,-4.4615,-4.4615,-4.4615,-4.4615,-4.4615,-4.4615,-4.4615,-4.4615,-4.4615,-4.4615,-4.4615,-4.4564,-4.4022,-4.359,-4.3259,-4.2535,-4.2338,-4.2419,-4.1433,-4.1102,-4.1008,-4.0341,-4.0096,-4.0096,-4.0096,-4.0096,-4.0096,-4.0096,-4.0096,-4.0096,-4.0096,-4.0096,-4.0096,-4.0096,-4.0096,-4.0096,-4.0096,-4.0096,-4.0096,-4.0096,-4.0096,-4.0096,-4.0096,-4.0096,-4.0262,-4.0803,-4.0607,-4.0504,-4.085,-4.0797,-4.0642,-4.0417,-4.057,-4.0838,-4.1178,-4.1223,-4.138,-4.1768,-4.2018,-4.2121,-4.2121,-4.2286,-4.2406,-4.2406,-4.2406,-4.2406,-4.2406,-4.2406,-4.2599,0.0,0.0,0.0,0.0,0.0,0.0,0.0,0.0,0.0,0.0,0.0,0.0,0.0,0.0,0.0,0.0,0.0,0.0,0.0,0.0,0.0,0.0,0.0,0.0,0.0,-3.8338,-3.8138,-3.9395,-3.8576,-3.8528,-4.002,-4.0177,-4.0464,-4.1214,-4.1262,-4.1486,-4.1965,-4.2552,-4.2847,-4.2847,-4.341,-4.3739,-4.3739,-4.4018,-4.4167,-4.4167,-4.4167,-4.4167,-4.415,-4.3873,-4.3739,-4.3739,-4.3739,-4.3739,-4.3739,-4.3739,-4.341,-4.2907,-4.2755,-4.2675,-4.2574,-4.1847,-4.1407,-4.1085,-4.0367,-4.0096,-4.0096,-4.0096,-3.9927,-3.9705,-3.9705,-3.9532,-3.9305,-3.9305,-3.9506,-3.9705,-3.9705,-3.9901,-4.0096,-4.0096,-4.0096,-4.0096,-4.0096,-4.0096,-4.0096,-4.0096,-4.0096,-4.0204,-4.0577,-4.0336,-4.0229,-4.0577,-4.0336,-4.0096,-4.0096,-4.0096,-4.0254,-4.0601,-4.0631,-4.0797,-4.1196,-4.138,-4.149,-4.149,-4.1686,-4.181,-4.181,-4.181,-4.1895,-4.2101,-4.2101,-4.2203,-4.24,0.0,0.0,0.0,0.0,0.0,0.0,0.0,0.0,0.0,0.0,0.0,0.0,0.0,0.0,0.0,0.0,0.0,0.0,0.0,0.0,0.0,0.0,0.0,-3.7562,-3.7635,-3.7857,-3.867,-3.867,-3.9197,-4.0721,-4.0848,-4.1151,-4.1853,-4.1933,-4.1933,-4.1933,-4.1933,-4.1965,-4.1965,-4.1997,-4.1997,-4.1997,-4.2847,-4.3246,-4.3246,-4.3246,-4.3246,-4.3246,-4.2395,-4.1997,-4.1997,-4.1997,-4.1997,-4.1997,-4.1997,-4.1997,-4.2077,-4.2998,-4.3371,-4.327,-4.251,-4.1794,-4.1008,-4.0307,-4.0037,-4.002,-4.002,-3.9489,-3.8881,-3.8881,-3.8358,-3.7793,-3.7793,-3.8302,-3.8881,-3.8881,-3.9437,-4.002,-4.002,-4.002,-4.002,-4.0045,-4.007,-4.007,-4.007,-4.007,-4.007,-4.0113,-4.0096,-4.0096,-4.0096,-4.0096,0.0,-4.0096,-4.0096,-4.0096,-4.0096,-4.0096,-4.0096,-4.0096,-4.0577,-4.0897,-4.0897,-4.1424,-4.1746,-4.1746,-4.1746,-4.2021,-4.2616,-4.2635,-4.2362,-4.1789,0.0,0.0,0.0,0.0,0.0,0.0,0.0,0.0,0.0,0.0,0.0,0.0,0.0,0.0,0.0,0.0,0.0,0.0,0.0,0.0,0.0,-3.6222,-3.6358,-3.6816,-3.6838,-3.7243,-3.837,-3.8489,-3.8815,-3.9725,-3.9801,-3.9897,-4.0115,-4.013,-4.013,-4.013,-4.069,-4.1046,-4.1046,-4.1674,-4.1997,-4.1997,-4.2221,-4.2363,-4.2363,-4.2363,-4.2363,-4.2363,-4.2093,-4.1997,-4.1997,-4.1997,-4.1997,-4.1997,-4.1997,-4.1997,-4.2045,-4.2278,-4.2367,-4.2286,-4.1557,-4.0502,-3.9414,-3.9219,-3.8841,-3.843,-3.843,-3.829,-3.8121,-3.8121,-3.795,-3.7793,-3.7793,-3.795,-3.8121,-3.8121,-3.8262,-3.843,-3.843,-3.843,-3.8569,-3.9113,-3.9236,-3.9236,-3.9236,-3.9236,-3.9411,-3.9995,-4.0096,-4.0096,-4.0096,-4.0096,0.0,-4.0096,-4.0096,-4.0096,-4.0096,-4.0096,-4.0096,-4.0096,-4.0229,-4.0311,-4.0311,-4.049,-4.0587,-4.0587,-4.0587,-4.0642,-4.0808,-4.1196,-4.1353,0.0,0.0,0.0,0.0,0.0,0.0,0.0,0.0,0.0,0.0,0.0,0.0,0.0,0.0,0.0,0.0,0.0,0.0,0.0,0.0,0.0,0.0,-3.6435,-3.6971,-3.7255,-3.7285,-3.7554,-3.8302,-3.8646,-3.8975,-3.9343,-3.9388,-3.9388,-3.9388,-3.9388,-3.9388,-3.9388,-3.99,-4.015,-4.015,-4.0638,-4.0894,-4.0894,-4.128,-4.1478,-4.1478,-4.1478,-4.1478,-4.1429,-4.1095,-4.0894,0.0,-4.0894,-4.0894,-4.0894,-4.0894,-4.0894,0.0,0.0,0.0,0.0,0.0,-4.0192,-3.9216,-3.8898,-3.8368,-3.7793,-3.7793,-3.7573,-3.7308,-3.7308,-3.7086,-3.6829,-3.6829,-3.7055,-3.7308,-3.7308,-3.7544,-3.7793,-3.7793,-3.7793,-3.7921,-3.8346,-3.8442,-3.8442,-3.8442,-3.8442,0.0,-3.9065,-3.9146,-3.9146,-3.9146,-3.9385,-3.961,-3.961,-3.9901,-4.0096,-4.0096,-4.0096,-4.0096,-4.0096,-4.0096,0.0,0.0,0.0,-4.0096,-4.0096,-4.0311,0.0,0.0,0.0,-4.0821,-4.0611,0.0,0.0,0.0,-4.1595,-4.1664,0.0,0.0,0.0,0.0,0.0,0.0,0.0,0.0,0.0,0.0,0.0,0.0,0.0,0.0,0.0,0.0,-3.6248,-3.7456,-3.8216,-3.834,-3.8391,-3.8512,-3.905,-3.9388,-3.9388,-3.9388,-3.9388,-3.9388,-3.9388,-3.9388,-3.9388,0.0,0.0,0.0,0.0,-3.9388,-3.9388,-4.0185,-4.0554,-4.0554,-4.0554,-4.0554,-4.0535,-3.9758,-3.9388,-3.9388,-3.9388,-3.9388,-3.9388,-3.9388,-3.9388,-3.9538,-4.1095,-4.1707,-4.1627,-4.0959,-4.0309,-3.9625,-3.8881,0.0,0.0,-3.7592,-3.704,-3.6477,-3.6477,-3.6038,-3.5504,-3.5504,-3.5975,-3.6477,-3.6477,-3.7025,-3.7531,-3.7531,-3.7531,-3.756,-3.7648,-3.7661,-3.7661,-3.7661,-3.7661,-3.7632,-3.7544,-3.7677,-3.7793,-3.7793,-3.8358,-3.8772,-3.8772,-3.9411,-3.985,-3.985,0.0,0.0,-3.985,-3.985,-3.985,-3.985,-3.9927,-3.9952,-3.9952,-4.0504,-4.0577,-4.0096,-4.0577,-4.0577,-4.0096,-4.0096,-4.0096,-4.0121,-4.1145,-4.1313,0.0,0.0,0.0,0.0,0.0,0.0,0.0,0.0,0.0,0.0,0.0,0.0,0.0,0.0,0.0,-3.5095,-3.5511,-3.6222,-3.7719,-3.7918,-3.823,-3.9107,-3.9298,-3.9388,-3.9388,-3.9388,-3.9388,-3.9388,-3.9388,-3.9388,-3.9388,-3.9388,-3.9388,-3.9388,-3.9388,-3.9388,-3.9388,-3.9574,-3.9631,-3.9631,0.0,0.0,-3.9646,-3.9481,-3.9388,-3.9388,-3.9388,-3.9388,-3.9388,-3.9388,-3.9388,-3.9409,-3.9773,-3.99,-3.9884,-3.9728,-3.9278,-3.858,-3.7913,-3.7276,-3.6654,-3.6108,-3.5846,-3.5701,-3.5701,-3.5619,0.0,-3.5504,-3.5619,-3.5701,-3.5701,-3.5814,-3.5941,-3.5941,-3.5941,-3.6101,-3.6707,-3.6813,-3.6813,-3.6813,-3.6813,-3.6661,-3.6053,-3.6981,-3.7793,-3.7793,-3.7921,-3.8007,-3.8007,-3.8149,-3.8234,-3.8234,-3.8234,-3.8234,-3.8234,-3.8234,-3.8234,-3.8234,-3.8816,-3.9139,-3.9139,-3.9851,-4.0204,-4.0096,-4.0204,-4.0204,-4.0096,-4.0096,-4.0096,-4.0113,-4.0328,-4.036,0.0,0.0,0.0,0.0,0.0,0.0,0.0,0.0,0.0,0.0,0.0,-3.2928,-3.2749,0.0,-3.4396,-3.4532,-3.5225,-3.6036,-3.6887,-3.7021,-3.7625,-3.9228,-3.9388,-3.9388,-3.9388,-3.9388,-3.9388,-3.9388,-3.9388,-3.9388,-3.9388,-3.9388,-3.9388,-3.9388,-3.9388,-3.9388,-3.9388,-3.9388,-3.9388,-3.9388,-3.9388,-3.9388,-3.9388,-3.9388,-3.9388,-3.9388,-3.9388,-3.9388,-3.9388,-3.9388,-3.9388,-3.9388,-3.9388,-3.9388,-3.9388,-3.9388,-3.899,-3.8287,-3.7644,-3.7,-3.6372,-3.5714,-3.5504,-3.5504,-3.5504,-3.5504,-3.5504,-3.5504,-3.5504,-3.5504,-3.5504,-3.5504,-3.5504,-3.5504,-3.5504,-3.5619,-3.5975,-3.6054,-3.6054,-3.6054,-3.6054,-3.5911,-3.5554,-3.6148,-3.6662,-3.6662,-3.6965,-3.7203,-3.7203,-3.7544,-3.7793,-3.7793,-3.7793,-3.7793,-3.7793,-3.7793,-3.7793,-3.7793,-3.8149,-3.8358,-3.8358,-3.8734,-3.8941,-3.8941,-3.8941,-3.8941,-3.8941,-3.8941,-3.8941,-3.8941,-3.8941,-3.9358,0.0,0.0,0.0,0.0,0.0,0.0,0.0,-3.2083,-3.2074,-3.2182,-3.2566,-3.2697,-3.2148,-3.35,-3.4484,-3.3763,-3.4754,-3.5654,-3.5894,-3.5894,-3.6604,-3.8531,-3.898,-3.9177,-3.9388,-3.9388,-3.9388,-3.9388,-3.9388,-3.9388,-3.9388,-3.9388,-3.9388,-3.9388,-3.9388,-3.9388,-3.9388,-3.9388,-3.9388,-3.9388,-3.9388,-3.9388,-3.9388,-3.9388,-3.9388,-3.9388,-3.9388,-3.9388,-3.9388,-3.9388,-3.9388,-3.9388,-3.9388,-3.9388,-3.9388,-3.9388,-3.9065,-3.8482,-3.7689,-3.709,-3.6537,-3.5759,-3.5504,-3.5504,-3.5504,-3.5504,-3.5504,-3.5504,-3.5504,-3.5504,-3.5504,-3.5504,-3.5504,-3.5504,-3.5504,-3.5504,-3.5504,-3.5504,-3.5504,-3.5504,-3.5504,-3.5504,-3.5504,-3.5504,-3.5504,-3.5504,-3.6006,-3.6384,-3.6384,-3.6965,-3.7354,-3.7354,-3.7354,-3.7354,-3.7354,-3.7354,-3.7354,-3.7354,-3.7485,-3.7573,-3.7573,-3.7719,-3.7793,-3.7793,-3.7793,-3.7793,-3.7793,-3.7793,-3.7793,-3.7793,-3.7793,-3.8474,-2.9638,-2.9972,-2.9972,-3.0075,-3.0113,-3.0113,0.0,-3.0113,-3.0253,-3.0748,-3.0861,-3.1151,-3.2003,-3.2364,-3.2701,-3.3093,-3.3305,-3.3784,-3.4746,-3.4856,-3.5292,-3.6408,-3.742,-3.8345,-3.9301,-3.9388,-3.9388,-3.9388,-3.9388,-3.9388,-3.9388,-3.9388,-3.9388,-3.9388,-3.9388,-3.9388,-3.9388,-3.9388,-3.9388,-3.9388,-3.9388,-3.9388,-3.9388,-3.9388,-3.9388,-3.9388,-3.9388,-3.9388,-3.9388,-3.9388,-3.9388,-3.9388,-3.9388,-3.9388,-3.9388,-3.9388,-3.9328,-3.9125,-3.7853,-3.736,-3.7105,-3.5893,-3.5504,-3.5504,-3.5504,-3.5504,-3.5504,-3.5504,-3.5504,-3.5504,-3.5504,-3.5504,-3.5504,-3.5504,-3.5504,-3.5504,-3.5504,-3.5504,-3.5504,-3.5504,-3.5504,-3.5504,-3.5504,-3.5504,-3.5504,-3.5504,-3.5554,-3.5619,-3.5619,-3.5701,-3.5765,-3.5765,-3.5765,-3.5765,-3.5765,-3.5765,-3.5765,-3.5765,-3.6368,-3.6722,-3.6722,-3.7427,-3.7793,-3.7793,-3.7793,-3.7793,-3.7793,-3.7793,-3.7793,-3.7793,-3.7793,-3.7892,-2.8518,-2.9275,-2.9792,-2.9792,-2.9792,-2.9792,-2.9792,-3.0043,-3.0331,-3.057,-3.111,-3.1687,-3.2127,-3.2491,-3.2792,-3.3074,-3.3124,-3.3283,-3.3713,-3.3755,-3.415,-3.5197,-3.5722,-3.6646,-3.8308,-3.8472,-3.8745,-3.9337,-3.9388,-3.9388,-3.9388,-3.9388,-3.9388,-3.9388,-3.9388,-3.9388,-3.9388,-3.9388,-3.9388,-3.9388,-3.9388,-3.9388,-3.9388,-3.9388,-3.9388,-3.9388,-3.9388,-3.9388,-3.9388,-3.9388,-3.9388,-3.9388,-3.9388,-3.9388,-3.9388,-3.9388,-3.9388,-3.9194,-3.7883,-3.7404,-3.7195,-3.5923,-3.5504,-3.5504,-3.5504,-3.5504,-3.5504,-3.5504,-3.5504,-3.5504,-3.5504,-3.5504,-3.5504,-3.5504,-3.5504,-3.5504,-3.5504,-3.5504,-3.5504,-3.5504,-3.5504,-3.5504,-3.5504,-3.5504,-3.5504,-3.5504,-3.5504,-3.5504,-3.5504,-3.5504,-3.5504,-3.5504,-3.5504,-3.5504,-3.5504,-3.5504,-3.5504,-3.5504,-3.5782,-3.5943,-3.5943,-3.6274,-3.6461,-3.6461,-3.6461,-3.6461,-3.6461,-3.6461,-3.6461,-3.6461,-3.6461,-3.6461,-2.7804,-2.8688,-2.9404,-2.9702,-2.9792,-2.9792,-2.9792,-3.0218,-3.0658,-3.0796,-3.1574,-3.2265,-3.2416,-3.2792,-3.3124,-3.3124,-3.3124,-3.3124,-3.3124,-3.3124,-3.3398,-3.415,-3.4275,-3.4979,-3.6763,-3.719,-3.7701,-3.8457,-3.8531,-3.8531,-3.8531,-3.8531,-3.8531,-3.8531,-3.8531,-3.8531,-3.8531,-3.8819,-3.8943,-3.8943,-3.9265,-3.9388,-3.9388,-3.9388,-3.9388,-3.9388,-3.9104,-3.8943,-3.8943,-3.8657,-3.8694,-3.8943,-3.8943,-3.9141,-3.9388,-3.9388,-3.929,-3.8975,-3.7808,-3.73,-3.6971,-3.5863,-3.5504,-3.5504,-3.5504,-3.5504,-3.5504,-3.5504,-3.5504,-3.5504,-3.5504,-3.5504,-3.5504,-3.5504,-3.5504,-3.5504,-3.5504,-3.5504,-3.5504,-3.5504,-3.5504,-3.5504,-3.5504,-3.5504,-3.5504,-3.5504,-3.5504,-3.5504,-3.5504,-3.5504,-3.5504,-3.5504,-3.5504,-3.5504,-3.5504,-3.5504,-3.5504,-3.5504,-3.5504,-3.5504,-3.5504,-3.5504,-3.5504,-3.5504,-3.5504,-3.5504,-3.5504,-3.5504,-3.5504,-3.5504,-3.5504,-3.5504,-2.7804,-2.8136,-2.8426,-2.9534,-2.9792,-2.9792,-2.9792,-3.0218,-3.0758,-3.126,-3.1813,-3.239,-3.2943,-3.3111,-3.3124,-3.3124,-3.3124,-3.3124,-3.3124,-3.3124,-3.3124,-3.3154,-3.3154,-3.3598,-3.4705,-3.5668,-3.6277,-3.6277,-3.629,-3.629,-3.629,-3.629,-3.629,-3.629,-3.629,-3.629,-3.629,-3.7343,-3.7829,-3.7866,-3.8907,-3.9388,-3.9388,-3.9388,-3.9388,-3.9337,-3.8308,-3.7829,-3.7753,-3.6735,-3.6891,-3.7829,-3.7829,-3.8472,-3.9388,-3.9388,-3.899,-3.8317,-3.7644,-3.7015,-3.6402,-3.5729,-3.5504,-3.5504,-3.5504,-3.5504,-3.5504,-3.5504,-3.5504,-3.5504,-3.5504,-3.5504,-3.5504,-3.5504,-3.5504,-3.5504,-3.5504,-3.5504,-3.5504,-3.5504,-3.5504,-3.5504,-3.5504,-3.5504,-3.5504,-3.5504,-3.5504,-3.5504,-3.5504,-3.5504,-3.5504,-3.5504,-3.5504,-3.5504,-3.5504,-3.5504,-3.5504,-3.5504,-3.5504,-3.5504,-3.5504,-3.5504,-3.5504,-3.5504,-3.5504,-3.5504,-3.5504,-3.5504,-3.5504,-3.5504,-3.5504,-3.5504,-2.5817,-2.6449,-2.7128,-2.7504,-2.8159,-2.8688,-2.8688,-2.9967,-3.1173,-3.1348,-3.2139,-3.2842,-3.3043,-3.3124,-3.3124,-3.3124,-3.3124,-3.3124,-3.3124,-3.3124,-3.3124,-3.3124,-3.3124,-3.324,-3.3598,-3.4581,-3.548,-3.6158,-3.6198,-3.6198,-3.6198,-3.6198,-3.6198,-3.6198,-3.6198,-3.6198,-3.6198,-3.6565,-3.6735,-3.6735,-3.7084,-3.7291,-3.7291,-3.7291,-3.7291,-3.7252,-3.6891,-3.6735,-3.6721,-3.6369,-3.6408,-3.6735,-3.6735,-3.6968,-3.7234,-3.6888,-3.6333,-3.5809,-3.6307,-3.5652,-3.4582,-3.453,-3.4509,-3.4509,-3.4509,-3.4509,-3.4361,-3.3754,-3.3581,-3.3581,-3.3581,-3.3581,-3.3581,-3.3581,-3.3581,-3.3581,-3.3581,-3.3581,-3.3581,-3.3581,-3.3581,-3.3581,-3.3581,-3.3581,-3.3581,-3.3581,-3.4673,-3.5504,-3.5504,-3.5504,-3.5504,-3.5504,-3.5504,-3.5504,-3.5504,-3.5504,-3.5504,-3.5504,-3.5504,-3.5504,-3.5504,-3.5504,-3.5504,-3.5504,-3.5504,-3.5504,-3.5504,-3.5504,-3.5504,-3.5504,-3.5504,-3.5504,-2.4702,-2.5336,-2.5975,-2.64,-2.7005,-2.7522,-2.7522,-2.8904,-3.0127,-3.0127,-3.1339,-3.2426,-3.2426,-3.2797,-3.3124,-3.3124,-3.3124,-3.3124,-3.3124,-3.3124,-3.3124,-3.3124,-3.3124,-3.3124,-3.3124,-3.3713,-3.4387,-3.5034,-3.5116,-3.5116,-3.5116,-3.5116,-3.5116,-3.5116,-3.5116,-3.5116,-3.5116,-3.5467,-3.5854,-3.6198,-3.6198,-3.6198,-3.6198,-3.6198,-3.6198,-3.6158,-3.5814,-3.5668,-3.5628,-3.5238,-3.5305,-3.5668,-3.5668,-3.5894,-3.6129,-3.5601,-3.4764,-3.4011,-3.4868,-3.4303,-3.3262,-3.3437,-3.3484,-3.3484,-3.3484,-3.3484,-3.338,-3.2784,-3.2593,-3.2593,-3.2593,-3.2593,-3.2593,-3.2593,-3.2593,-3.2593,-3.2593,-3.2593,-3.2593,-3.2593,-3.2593,-3.2593,-3.2593,-3.2593,-3.2593,-3.2593,-3.365,-3.4442,-3.4442,-3.4442,-3.4442,-3.4442,-3.4442,-3.4442,-3.4442,-3.4442,-3.4442,-3.4442,-3.4773,-3.4953,-3.4953,-3.5326,-3.5504,-3.5504,-3.5504,-3.5326,-3.4953,-3.4953,-3.4806,-3.4442,-3.4442,-3.4442,-2.4414,-2.4702,-2.4957,-2.6058,-2.6359,-2.6389,-2.6389,-2.7169,-2.7895,-2.7917,-2.9621,-3.1187,-3.1211,-3.2239,-3.3124,-3.3124,-3.3124,-3.3124,-3.3124,-3.3124,-3.3124,-3.3124,-3.3124,-3.3124,-3.3124,-3.3124,-3.3124,-3.3124,0.0,-3.3124,-3.3124,-3.3124,-3.3124,-3.3124,-3.3124,-3.3124,-3.3124,-3.4108,-3.5088,-3.6039,-3.6039,-3.6039,-3.6039,-3.6039,-3.6039,-3.6013,-3.5047,-3.4622,-3.4553,-3.3513,-3.3713,-3.4622,-3.4596,-3.5157,-3.5929,-3.5363,-3.4169,-3.2933,-3.3264,-3.3004,-3.2464,-3.25,-3.2522,-3.2522,-3.2522,-3.2522,-3.2522,-3.2464,-3.2464,-3.2464,-3.2464,-3.2464,-3.2464,-3.2464,-3.2464,-3.2464,-3.2464,-3.2464,-3.2464,-3.2464,-3.2464,-3.2464,-3.2464,-3.2464,-3.2464,-3.2464,-3.2464,-3.25,-3.2593,-3.2593,-3.2593,-3.2593,-3.2593,-3.2593,-3.2593,-3.2593,-3.2593,-3.2593,-3.3449,-3.391,-3.391,-3.4839,-3.5359,-3.5359,-3.5359,-3.4872,-3.391,-3.391,-3.3449,-3.2593,-3.2593,-3.2593,-2.3464,-2.3551,-2.3594,-2.3887,-2.4595,-2.521,-2.521,-2.6394,-2.7545,-2.785,-2.9442,-3.0858,-3.1151,-3.2239,-3.3124,-3.3124,-3.3124,-3.3124,-3.3124,-3.3124,-3.3124,-3.3124,-3.3124,-3.3124,-3.3124,-3.3124,-3.3124,-3.3124,-3.3124,-3.3124,-3.3124,-3.3124,-3.3124,-3.3124,-3.3124,-3.3124,-3.3124,-3.3356,-3.3628,-3.3898,-3.3898,-3.3898,-3.3898,-3.3898,-3.3898,-3.3869,-3.3628,-3.3513,-3.3471,-3.3197,-3.3283,-3.3475,-3.2988,-3.2976,-3.3124,-3.217,-3.1574,-3.1185,-3.0881,-3.0662,-3.0633,-3.1328,-3.1573,-3.1573,-3.1573,-3.1573,-3.1389,-3.0709,-3.0495,-3.0495,-3.0495,-3.0495,-3.0495,-3.0495,-3.0495,-3.0495,-3.0495,-3.0495,-3.0495,-3.0495,-3.0495,-3.0495,-3.0495,-3.0495,-3.0495,-3.0495,-3.0495,-3.1033,-3.2429,-3.2593,-3.2593,-3.2593,-3.2593,-3.2593,-3.2593,-3.2593,-3.2593,-3.2593,-3.282,-3.2961,-3.2961,-3.3206,-3.3325,-3.3325,-3.3325,-3.3206,-3.2961,-3.2961,-3.282,-3.2593,-3.2593,-3.2593,-2.3091,-2.3091,-2.3091,-2.3091,-2.3594,-2.4049,-2.4049,-2.4949,-2.5956,-2.665,-2.8405,-3.001,-3.0731,-3.208,-3.3124,-3.3124,-3.3124,-3.3124,-3.3124,-3.3124,-3.3124,-3.3124,-3.3124,-3.3124,-3.3124,-3.3124,-3.3124,-3.3124,-3.3124,-3.3124,-3.3124,-3.3124,-3.3124,-3.3124,-3.3124,-3.3124,-3.3124,-3.3124,-3.3124,-3.3124,-3.3124,-3.3124,-3.3124,-3.3124,-3.3124,-3.3124,0.0,-3.3124,-3.3124,-3.3124,-3.293,-3.2667,-3.234,-3.2064,-3.175,-3.0922,-3.062,-3.0532,-2.998,-2.9792,-2.9908,-3.0419,-3.0595,-3.0595,-3.0595,-3.0595,-3.0495,-2.9934,-2.9792,-2.9792,-2.9792,-2.9792,-2.9792,-2.9792,-2.9792,-2.9792,-2.9792,-2.9792,-2.9792,-2.9792,-2.9792,-2.9792,-2.9792,-2.9792,-2.9792,-2.9792,-2.9792,-3.0177,-3.123,-3.1378,-3.1378,-3.1378,-3.1378,-3.1378,-3.1378,-3.1378,-3.1378,-3.1378,-3.1756,-3.1997,-3.1997,-3.2393,-3.2593,-3.2593,-3.2593,-3.2393,-3.1997,-3.1997,-3.1792,-3.1378,-3.1378,-3.1378,-2.3091,-2.3091,-2.3091,-2.3091,-2.3091,-2.3091,-2.3091,-2.3428,-2.3979,-2.4975,-2.7019,-2.8932,-2.998,-3.1724,-3.2993,-3.3111,-3.3124,-3.3124,-3.3124,-3.3124,-3.3124,-3.3124,-3.3124,-3.3124,-3.3124,-3.3124,-3.3124,-3.3124,-3.3124,-3.3124,-3.3124,-3.3124,-3.3124,-3.3124,-3.3124,-3.3124,-3.3124,-3.3124,-3.3124,-3.3124,-3.3124,-3.3124,-3.3124,-3.3124,-3.3074,-3.2968,-3.2968,0.0,-3.2855,-3.2855,-3.2554,-3.2102,-3.2026,-3.17,-3.1223,-3.0696,-3.0507,-3.0432,-2.9955,-2.9792,-2.9792,-2.9792,-2.9792,-2.9792,-2.9792,-2.9792,-2.9792,-2.9792,-2.9792,-2.9792,-2.9792,-2.9792,-2.9792,-2.9792,-2.9792,-2.9792,-2.9792,-2.9792,-2.9792,-2.9792,-2.9792,-2.9792,-2.9792,-2.9792,-2.9792,-2.9792,-2.9792,-2.9792,-2.9792,-2.9792,-2.9792,-2.9792,-2.9792,-2.9792,-2.9792,-2.9792,-2.9792,-2.9792,-3.0558,-3.1007,-3.1007,-3.1792,-3.2213,-3.2213,-3.2213,-3.1829,-3.1007,-3.1007,-3.0595,-2.9792,-2.9792,-2.9792,-2.3091,-2.3091,-2.3091,-2.3091,-2.3091,-2.3091,-2.3091,-2.3149,-2.3394,-2.3969,-2.5933,-2.7888,-2.8888,-3.0879,-3.2516,-3.3006,-3.3124,-3.3124,-3.3124,-3.3124,-3.3124,-3.3124,-3.3124,-3.3124,-3.3124,-3.3124,-3.3124,-3.3124,-3.3124,-3.3124,-3.3124,-3.3124,-3.3124,-3.3124,-3.3124,-3.3124,-3.3124,-3.3124,-3.3124,-3.3124,-3.3124,-3.3124,-3.3124,-3.3124,-3.2817,-3.2365,-3.2365,0.0,-3.1687,-3.1687,-3.1625,-3.1486,-3.106,-3.0834,-3.0683,-3.0143,-2.993,-2.993,-2.9829,-2.9792,-2.9792,-2.9792,-2.9792,-2.9792,-2.9792,-2.9792,-2.9792,-2.9792,-2.9792,-2.9792,-2.9792,-2.9792,-2.9792,-2.9792,-2.9792,-2.9792,-2.9792,-2.9792,-2.9792,-2.9792,-2.9792,-2.9792,-2.9792,-2.9792,-2.9792,-2.9792,-2.9792,-2.9792,-2.9792,-2.9792,-2.9792,-2.9792,-2.9792,-2.9792,-2.9792,-2.9792,-2.9792,-2.9792,-2.9934,-3.0037,-3.0037,-3.0216,-3.0292,-3.0292,-3.0292,-3.0216,-3.0037,-3.0037,-2.9972,-2.9792,-2.9792,-2.9792,-2.3091,-2.3091,-2.3091,-2.3091,-2.3091,-2.3091,-2.3091,-2.3091,-2.3315,-2.4159,-2.5452,-2.6907,-2.8548,-3.0209,-3.1644,-3.2494,-3.288,-3.3124,-3.3124,-3.3124,-3.3124,-3.3124,-3.3124,-3.3124,-3.3124,-3.3124,-3.3124,-3.3124,-3.3124,-3.3124,-3.3124,-3.3124,-3.3124,-3.3124,-3.3124,-3.3124,-3.3124,-3.3124,-3.2918,-3.2629,-3.2629,-3.2478,-3.2202,-3.2202,-3.2051,-3.1788,-3.1788,0.0,-3.1386,-3.1386,-3.1235,-3.0959,-3.0708,-3.0444,-3.0156,-2.9892,-2.9792,-2.9792,-2.9792,-2.9792,-2.9792,-2.9792,-2.9792,-2.9792,-2.9792,-2.9792,-2.9792,-2.9792,-2.9792,-2.9792,-2.9792,-2.9792,-2.9792,-2.9792,-2.9792,-2.9792,-2.9792,-2.9792,-2.9792,-2.9792,-2.9792,-2.9792,-2.9792,-2.9792,-2.9792,-2.9792,-2.9792,-2.9792,-2.9792,-2.9792,-2.9792,-2.9792,-2.9792,-2.9792,-2.9792,-2.9792,-2.9792,-2.9792,-2.9792,-2.9792,-2.9792,-2.9792,-2.9792,-2.9792,-2.9792,-2.9792,-2.9792,-2.9792,-2.9792,-2.9792,-2.9792,-2.9792,-2.3091,-2.3091,-2.3091,-2.3091,-2.3091,-2.3091,-2.3091,-2.3091,-2.3343,-2.4253,-2.4952,-2.5991,-2.7828,-2.9294,-3.0585,-3.169,-3.2239,-3.2562,-3.2686,-3.2469,-3.2295,-3.2295,-3.2295,-3.2295,-3.2295,-3.2525,-3.2698,-3.2698,-3.2939,-3.3124,-3.3124,-3.3124,-3.3124,-3.3124,-3.3124,-3.3061,-3.2893,-3.2893,-3.2604,-3.2039,-3.2039,-3.1813,-3.1386,-3.1386,-3.1336,-3.1223,-3.1223,0.0,0.0,-3.1047,-3.0809,-3.0444,-3.0444,-3.0168,-2.9792,-2.9792,-2.9792,-2.9753,-2.9534,-2.9585,-2.9753,-2.9534,-2.9585,-2.9792,-2.9792,-2.9792,-2.9792,-2.9792,-2.9792,-2.9792,-2.9792,-2.9792,-2.9792,-2.9792,-2.9792,-2.9792,-2.9792,-2.9792,-2.9792,-2.9792,-2.9792,-2.9792,-2.9792,-2.9585,-2.9534,-2.9753,-2.9573,-2.9456,-2.9456,-2.9456,-2.9456,-2.9456,-2.9663,-2.9792,-2.9792,-2.9792,-2.9792,-2.9792,-2.9792,-2.9792,-2.9792,-2.9792,-2.9792,-2.9792,-2.9792,-2.9663,-2.9456,-2.9456,-2.9326,-2.9079,-2.9079,-2.9079,-2.3091,-2.3091,-2.3091,-2.3091,-2.3091,-2.3091,-2.3091,-2.3091,-2.3135,-2.3212,-2.4122,-2.5104,-2.5775,-2.7625,-2.9416,-3.0565,-3.0714,-3.0818,-3.1296,-3.0451,-2.9727,-2.9727,-2.9727,-2.9727,-2.9727,-3.0721,-3.1356,-3.1356,-3.2426,-3.3124,-3.3124,-3.3124,-3.3124,-3.3124,-3.3124,-3.283,-3.2303,-3.229,-3.2014,-3.1461,-3.1461,-3.1436,-3.1386,-3.1386,-3.1135,-3.0683,-3.0683,0.0,0.0,-2.9942,-2.9917,-2.9867,-2.9867,-2.9829,-2.9792,-2.9792,-2.9792,-2.9663,-2.8609,-2.8937,-2.9624,-2.8597,-2.8949,-2.9792,-2.9792,-2.9792,-2.9792,-2.9792,-2.9792,-2.9792,-2.9792,-2.9792,-2.9792,-2.9792,-2.9792,-2.9792,-2.9792,-2.9792,-2.9792,-2.9792,-2.9792,-2.9792,-2.9792,-2.8937,-2.8597,-2.9624,-2.8937,-2.8255,-2.8255,-2.8255,-2.8255,-2.8255,-2.9197,-2.9792,-2.9792,-2.9792,-2.9792,-2.9792,-2.9792,-2.9792,-2.9792,-2.9792,-2.9792,-2.9792,-2.9792,-2.9275,-2.8255,-2.8255,-2.7775,-2.6812,-2.6812,-2.6812,-2.3091,-2.3091,-2.3091,-2.3091,-2.3091,-2.3091,-2.3091,-2.3091,-2.3091,-2.3091,-2.3474,-2.4057,-2.4943,-2.6086,-2.7359,-2.876,-2.9226,-2.9606,-3.0055,-2.9727,-2.9407,-2.9407,-2.9407,-2.9407,-2.9407,-2.9818,-3.0135,-3.0135,-3.0598,-3.0866,-3.0866,-3.1557,-3.1862,-3.1589,-3.0914,-3.0248,-2.9718,-3.0411,-3.045,-2.9902,-3.0574,-3.0746,-3.0419,-2.9733,-2.9318,-2.9083,-2.9083,0.0,0.0,-2.9534,-2.9792,-2.974,-2.9028,-2.8767,-2.8688,-2.8039,-2.7799,-2.7758,-2.729,-2.7424,-2.7758,-2.729,-2.7452,-2.7919,-2.8569,-2.8767,-2.8648,-2.8011,-2.7799,-2.7799,-2.7799,-2.8291,-2.8937,-2.9624,-2.9792,-2.9624,-2.8937,-2.8767,-2.8569,-2.7919,-2.7799,-2.7799,-2.7799,-2.7424,-2.729,-2.7758,-2.7424,-2.7128,-2.7128,-2.7128,-2.7128,-2.7128,-2.8108,-2.9067,-2.9753,-2.9157,-2.8767,-2.8767,-2.8171,-2.7799,-2.7799,-2.7799,-2.7799,-2.7799,-2.7799,-2.7585,-2.7128,-2.7128,-2.6924,-2.6524,-2.6524,-2.6524,-2.3091,-2.3091,-2.3091,-2.3091,-2.3091,-2.3091,-2.3091,-2.3091,-2.3091,-2.3091,-2.3091,-2.3343,-2.4168,-2.4888,-2.5764,-2.702,-2.7646,-2.8152,-2.858,-2.8454,-2.8308,-2.8308,-2.8308,-2.8308,-2.8308,-2.8634,-2.9004,-2.9361,-2.9272,-2.924,-2.924,-2.9533,-2.9862,-3.0071,-2.912,-2.8362,-2.7867,-2.868,-2.8749,-2.8181,-2.9003,-2.9208,-2.8791,-2.7988,-2.7643,-2.7643,-2.7643,0.0,0.0,-2.849,-2.8831,-2.8752,-2.7947,-2.7643,-2.7522,-2.676,-2.6524,-2.6431,-2.6099,-2.6224,-2.6431,-2.6099,-2.6224,-2.6595,-2.6982,-2.7348,-2.7481,-2.6719,-2.6524,-2.6524,-2.6524,-2.7046,-2.7815,-2.8621,-2.8831,-2.8581,-2.7815,-2.7643,-2.74,-2.6637,-2.6524,-2.6524,-2.6524,-2.6224,-2.6099,-2.6431,-2.6224,-2.6016,-2.6016,-2.6016,-2.6016,-2.6016,-2.6655,-2.7602,-2.8752,-2.8079,-2.7643,-2.7643,-2.6924,-2.6524,-2.6524,-2.6524,-2.6524,-2.6524,-2.6524,-2.6348,-2.6016,-2.6016,-2.5808,-2.5473,-2.5473,-2.5473,-2.3091,-2.3091,-2.3091,-2.3091,-2.3091,-2.3091,-2.3091,-2.3091,-2.3091,-2.3091,-2.3091,-2.3091,-2.3135,-2.4049,-2.4987,-2.5537,-2.5889,-2.6327,-2.6833,-2.6242,-2.5732,-2.5732,-2.5732,-2.5732,-2.5732,-2.6897,-2.8085,-2.9315,-2.9015,0.0,-2.8791,-2.7244,-2.7112,-2.8768,-2.834,-2.7845,-2.7307,-2.7307,-2.706,-2.6524,-2.6524,-2.6524,-2.6524,-2.6513,-2.6524,-2.6524,0.0,0.0,0.0,-2.6524,-2.6524,-2.6524,-2.6513,-2.6524,-2.6524,-2.6524,-2.6524,-2.6348,-2.521,-2.5546,-2.6307,-2.5168,-2.5588,-2.6307,-2.5168,-2.563,-2.6513,-2.6524,-2.6524,-2.6524,-2.6524,-2.6513,-2.6524,-2.6524,-2.6524,-2.6524,-2.6524,-2.6524,-2.6513,-2.6524,-2.6524,-2.6524,-2.6524,-2.5546,-2.521,-2.6348,-2.5546,-2.483,-2.483,-2.483,-2.483,-2.483,-2.483,-2.5294,-2.6431,-2.6513,-2.6524,-2.6524,-2.6524,-2.6524,-2.6524,-2.6524,-2.6524,-2.6524,-2.6524,-2.5922,-2.483,-2.483,-2.4253,-2.3144,-2.3144,-2.3144,-2.3091,-2.3091,-2.3091,-2.3091,-2.3091,-2.3091,-2.3091,-2.3091,-2.3091,-2.3091,-2.3091,-2.3091,-2.3091,-2.3387,-2.3821,-2.4305,-2.4461,-2.4821,-2.5561,-2.547,-2.5391,-2.5654,-2.5693,-2.5693,-2.5693,-2.6062,-2.6345,-2.6437,-2.632,-2.6115,-2.5798,-2.5052,-2.5218,-2.6572,-2.5662,-2.4941,-2.4446,-2.5179,-2.5529,-2.5336,-2.6141,-2.6524,-2.6483,-2.5672,-2.5336,0.0,0.0,0.0,0.0,-2.6182,-2.6524,-2.6431,-2.563,-2.5336,-2.5252,-2.4467,-2.4188,-2.4102,-2.3757,-2.3887,-2.4102,-2.3757,-2.3887,-2.4102,-2.3757,-2.4425,-2.5179,-2.4392,-2.4188,-2.4349,-2.5126,-2.5336,-2.5546,-2.6307,-2.6524,-2.6307,-2.5504,-2.5336,-2.5126,-2.4307,-2.4188,-2.4188,-2.4188,-2.3887,-2.3757,-2.4102,-2.3887,-2.3637,-2.3637,-2.3637,-2.3637,-2.3637,-2.3637,-2.4435,-2.6359,-2.5797,-2.5336,-2.5336,-2.4595,-2.4188,-2.4188,-2.4188,-2.4188,-2.4188,-2.4188,-2.4016,-2.3637,-2.3637,-2.3464,-2.3091,-2.3091,-2.3091,-2.3091,-2.3091,-2.3091,-2.3091,-2.3091,-2.3091,-2.3091,-2.3091,-2.3091,-2.3091,-2.3091,-2.3091,-2.3091,-2.3091,-2.3188,-2.3496,-2.3682,-2.3975,-2.4512,-2.4727,-2.498,-2.543,-2.5488,-2.5488,-2.5488,-2.5284,-2.5127,-2.4844,-2.4678,-2.4463,-2.4199,-2.3779,-2.388,-2.463,-2.3924,-2.3408,-2.3091,-2.38,-2.4168,-2.4168,-2.4893,-2.5231,-2.5179,-2.4467,-2.4168,0.0,0.0,0.0,0.0,-2.4935,-2.5231,-2.5147,-2.4425,-2.4168,-2.4082,-2.3343,-2.3091,-2.3091,-2.3091,-2.3091,-2.3091,-2.3091,-2.3091,-2.3091,-2.3091,-2.3594,-2.4006,-2.3299,-2.3091,-2.3256,-2.3963,-2.4168,-2.4339,-2.5062,-2.5231,-2.501,-2.4296,-2.4168,-2.3963,-2.3266,-2.3091,-2.3091,-2.3091,-2.3091,-2.3091,-2.3091,-2.3091,-2.3091,-2.3091,-2.3091,-2.3091,-2.3091,-2.3091,-2.3681,-2.5105,-2.4553,-2.4168,-2.4168,-2.3507,-2.3091,-2.3091,-2.3091,-2.3091,-2.3091,-2.3091,-2.3091,-2.3091,-2.3091,-2.3091,-2.3091,-2.3091,-2.3091,0.0,-2.3091,-2.3091,-2.3091,-2.3091,-2.3091,-2.3091,-2.3091,0.0,-2.3091,-2.3091,-2.3091,-2.3091,-2.3091,-2.3091,-2.3091,-2.3477,-2.375,-2.3789,-2.415,-2.456,-2.5018,-2.5067,-2.5067,-2.5067,-2.4658,-2.4404,-2.4375,-2.4014,-2.3779,-2.374,-2.3359,-2.3091,-2.3091,-2.3091,-2.3091,-2.3091,-2.3091,-2.3091,-2.3091,-2.3091,-2.3091,-2.3091,-2.3091,-2.3091,0.0,0.0,0.0,0.0,-2.3091,-2.3091,-2.3091,-2.3091,-2.3091,-2.3091,-2.3091,-2.3091,-2.3091,-2.3091,-2.3091,-2.3091,-2.3091,-2.3091,-2.3091,-2.3091,-2.3091,-2.3091,-2.3091,-2.3091,-2.3091,-2.3091,-2.3091,-2.3091,-2.3091,-2.3091,-2.3091,-2.3091,-2.3091,-2.3091,-2.3091,-2.3091,-2.3091,-2.3091,-2.3091,-2.3091,-2.3091,-2.3091,-2.3091,-2.3091,-2.3091,-2.3091,-2.3091,-2.3091,-2.3091,-2.3091,-2.3091,-2.3091,-2.3091,-2.3091,-2.3091,-2.3091,-2.3091,-2.3091,-2.3091,-2.3091,-2.3091,-2.3091,-2.3091,-2.3091,-2.3091,-2.3091,-2.3091,-2.3343,0.0,-2.3091,-2.3091,-2.3091,-2.3091,0.0,-2.3091,-2.3091,-2.3091,-2.3091,-2.3091,-2.3091,-2.3091,-2.3091,-2.3091,-2.3179,-2.3408,-2.374,-2.415,-2.4453,-2.456,-2.457,-2.457,-2.457,-2.4473,-2.4287,-2.3965,-2.3848,-2.3643,-2.3266,-2.3149,-2.3091,-2.3091,-2.3091,-2.3091,-2.3091,-2.3091,-2.3091,-2.3091,-2.3091,-2.3091,-2.3091,-2.3091,-2.3091,0.0,0.0,0.0,-2.3091,-2.3091,-2.3091,-2.3091,-2.3091,-2.3091,-2.3091,-2.3091,-2.3091,-2.3091,-2.3091,-2.3091,-2.3091,-2.3091,-2.3091,-2.3091,-2.3091,-2.3091,-2.3091,-2.3091,-2.3091,-2.3091,-2.3091,-2.3091,-2.3091,-2.3091,-2.3091,-2.3091,-2.3091,-2.3091,-2.3091,-2.3091,-2.3091,-2.3091,-2.3091,-2.3091,-2.3091,-2.3091,-2.3091,-2.3091,-2.3091,-2.3091,-2.3091,-2.3091,-2.3091,-2.3091,-2.3091,-2.3091,-2.3091,-2.3091,-2.3091,-2.3091,-2.3091,-2.3091,-2.3091,-2.3091,-2.3091,-2.3091,-2.3091,-2.3091,-2.3091,-2.3091,-2.3091,-2.3091,-2.392,-2.3507,-2.3091,-2.3091,-2.3091,-2.3091,-2.3091,-2.3091,-2.3091,-2.3091,-2.3091,-2.3091,-2.3091,-2.3091,-2.3091,-2.3091,-2.3091,-2.3179,-2.3457,-2.3857,-2.4131,-2.4131,-2.4131,-2.4131,-2.4131,-2.3945,-2.3695,-2.3516,-2.3496,-2.3389,-2.311,-2.3091,-2.3091,-2.3091,-2.3091,-2.3091,-2.3091,-2.3091,-2.3091,-2.3091,-2.3091,-2.3091,-2.3091,-2.3091,-2.3091,0.0,0.0,0.0,-2.3091,-2.3091,-2.3091,-2.3091,-2.3091,-2.3091,-2.3091,-2.3091,-2.3091,-2.3091,-2.3091,-2.3091,-2.3091,-2.3091,-2.3091,-2.3091,-2.3091,-2.3091,-2.3091,-2.3091,-2.3091,-2.3091,-2.3091,-2.3091,-2.3091,-2.3091,-2.3091,-2.3091,-2.3091,-2.3091,-2.3091,-2.3091,-2.3091,-2.3091,-2.3091,-2.3091,-2.3091,-2.3091,-2.3091,-2.3091,-2.3091,-2.3091,-2.3091,-2.3091,-2.3091,-2.3091,-2.3091,-2.3091,-2.3091,-2.3091,-2.3091,-2.3091,-2.3091,-2.3091,-2.3091,-2.3091,-2.3091,-2.3091,-2.3091,-2.3091,-2.3091,-2.3091,-2.3091,-2.3091,-2.4339,-2.3844,-2.3091,-2.3091,-2.3091,-2.3091,-2.3091,-2.3091,-2.3091,-2.3091,-2.3091,-2.3091,-2.3091,-2.3091,-2.3091,-2.3091,-2.3091,-2.3091,-2.3091,-2.3457,-2.3691,-2.3691,-2.3691,-2.3691,-2.3691,-2.3315,-2.3091,-2.3091,-2.3091,-2.3091,-2.3091,-2.3091,-2.3091,-2.3091,-2.3091,-2.3091,-2.3091,-2.3091,-2.3091,-2.3091,-2.3091,-2.3091,-2.3091,-2.3091,-2.3091,-2.3091,0.0,0.0,-2.3091,-2.3091,-2.3091,-2.3091,-2.3091,-2.3091,-2.3091,-2.3091,-2.3091,-2.3091,-2.3091,-2.3091,-2.3091,-2.3091,-2.3091,-2.3091,-2.3091,-2.3091,-2.3091,-2.3091,-2.3091,-2.3091,-2.3091,-2.3091,-2.3091,-2.3091,-2.3091,-2.3091,-2.3091,-2.3091,-2.3091,-2.3091,-2.3091,-2.3091,-2.3091,-2.3091,-2.3091,-2.3091,-2.3091,-2.3091,-2.3091,-2.3091,-2.3091,-2.3091,-2.3091,-2.3091,-2.3091,-2.3091,-2.3091,-2.3091,-2.3091,-2.3091,-2.3091,-2.3091,-2.3091,-2.3091,-2.3091,-2.3091,-2.3091,-2.3091,-2.3091,-2.3091,-2.3091,-2.3091,-2.3594,-2.3222,-2.3091,-2.3091,-2.3091,-2.3091,-2.3091,-2.3091,-2.3091,-2.3091,-2.3091,-2.3091,-2.3091,-2.3091,-2.3091,-2.3091,-2.3091,-2.3091,-2.3091,-2.3149,-2.3198,-2.3198,-2.3198,-2.3198,-2.3198,-2.314,-2.3091,-2.3091,-2.3091,-2.3091,-2.3091,-2.3091,-2.3091,-2.3091,-2.3091,-2.3091,-2.3091,-2.3091,-2.3091,-2.3091,-2.3091,-2.3091,-2.3091,-2.3091,-2.3091,-2.3091,0.0,-2.3091,-2.3091,-2.3091,-2.3091,-2.3091,-2.3091,-2.3091,-2.3091,-2.3091,-2.3091,-2.3091,-2.3091,-2.3091,-2.3091,-2.3091,-2.3091,-2.3091,-2.3091,-2.3091,-2.3091,-2.3091,-2.3091,-2.3091,-2.3091,-2.3091,-2.3091,-2.3091,-2.3091,-2.3091,-2.3091,-2.3091,-2.3091,-2.3091,-2.3091,-2.3091,-2.3091,-2.3091,-2.3091,-2.3091,-2.3091,-2.3091,-2.3091,-2.3091,-2.3091,-2.3091,-2.3091,-2.3091,-2.3091,-2.3091,-2.3091,-2.3091,-2.3091,-2.3091,-2.3091,-2.3091,-2.3091,-2.3091,-2.3091,-2.3091,-2.3091,-2.3091,-2.3091,-2.3091,-2.3091,-2.3091,-2.3266,-2.3091,-2.3091,-2.3091,-2.3091,-2.3091,-2.3091,-2.3091,-2.3091,-2.3091,-2.3091,-2.3091,-2.3091,-2.3091,-2.3091,-2.3091,-2.3091,-2.3091,-2.3091,-2.3091,-2.3091,-2.3091,-2.3091,-2.3091,-2.3091,-2.3091,-2.3091,-2.3091,-2.3091,-2.3091,-2.3091,-2.3091,-2.3091,-2.3091,-2.3091,-2.3091,-2.3091,-2.3091,-2.3091,-2.3091,-2.3091,-2.3091,-2.3091,-2.3091,-2.3091,-2.3091,0.0,-2.3091,-2.3091,-2.3091,-2.3091,-2.3091,-2.3091,-2.3091,-2.3091,-2.3091,-2.3091,-2.3003,-2.235,-2.212,-2.212,-2.212,-2.212,-2.2262,-2.2906,-2.3091,-2.296,-2.2306,-2.2589,-2.3091,-2.3091,-2.3091,-2.3091,-2.3091,-2.3091,-2.3091,-2.3091,-2.3091,-2.3091,-2.3091,-2.3091,-2.3091,-2.3091,-2.3091,-2.3091,-2.3091,-2.3091,-2.3091,-2.3091,-2.3091,-2.3091,-2.3091,-2.3091,-2.3091,-2.3091,-2.3091,-2.3091,-2.3091,-2.3091,-2.3091,-2.3091,-2.3091,-2.3091,-2.3091,-2.3091,-2.3091,-2.3091,-2.3091,-2.3091,-2.3091,-2.3091,-2.3091,-2.3091,-2.3091,-2.3091,-2.3091,-2.3091,-2.3091,-2.3091,-2.3091,-2.3091,-2.3091,-2.3091,-2.3091,-2.3091,-2.2862,-2.2775,-2.3047,-2.2633,-2.2359,-2.2633,-2.2457,-2.2359,-2.2633,-2.2677,-2.2775,-2.3047,-2.3091,-2.3091,-2.3091,-2.3091,-2.3091,-2.3091,-2.3091,-2.3091,-2.3091,-2.3091,-2.3091,-2.3091,-2.3091,-2.3091,-2.3091,-2.3091,-2.3091,-2.3091,-2.3091,-2.3091,-2.3091,-2.3091,-2.3091,-2.3091,-2.3091,-2.3091,-2.3091,-2.3091,-2.3091,-2.3091,-2.3091,-2.2906,-2.2545,-2.1614,-2.1114,-2.089,-2.089,-2.089,-2.1069,-2.1996,-2.2271,-2.2041,-2.1123,-2.1534,-2.2271,-2.2271,-2.2271,-2.2271,-2.2271,-2.2271,-2.2271,-2.2271,-2.2271,-2.2271,-2.2271,-2.2271,-2.2271,-2.2271,-2.2271,-2.2271,-2.2271,-2.2501,-2.2677,-2.2677,-2.2916,-2.3091,-2.3091,-2.3091,-2.3003,-2.2677,-2.2413,-2.2271,-2.2271,-2.2775,-2.296,-2.2677,-2.296,-2.296,-2.2677,-2.296,-2.3091,-2.3091,-2.3091,-2.3091,-2.3091,-2.2818,-2.2818,-2.3091,-2.3091,-2.3091,-2.3091,-2.3091,-2.3091,-2.3091,-2.3091,-2.3091,-2.3091,-2.3091,-2.3091,-2.3091,-2.2173,-2.18,-2.2906,-2.1221,-2.0169,-2.1248,-2.0486,-2.0169,-2.1293,-2.1426,-2.1845,-2.3003,-2.3091,-2.3091,-2.3091,-2.3091,-2.3091,-2.3091,-2.3091,-2.3091,-2.3091,-2.3091,-2.3091,-2.3091,-2.3091,-2.3091,-2.3091,-2.3091,-2.3091,-2.3091,-2.3091,-2.3091,-2.3091,-2.3091,-2.3091,-2.3091,-2.3091,-2.3091,-2.3091,-2.3091,-2.3091,-2.3091,-2.3091,-2.2403,-2.1436,-2.1337,-2.0576,-1.9633,-1.9633,-1.9633,-1.9633,-1.9716,-1.977,-1.9724,-1.967,-1.9679,-1.977,-1.977,-1.977,-1.977,-1.977,-1.977,-1.977,-1.977,-1.977,-1.977,-1.977,-1.977,-1.977,-1.977,-1.977,-1.977,-1.977,-2.0711,-2.1426,-2.1426,-2.2403,-2.3091,-2.3091,-2.3091,-2.2633,-2.1525,-2.0395,-1.977,-1.977,-2.1863,-2.2589,-2.148,-2.2492,-2.258,-2.1426,-2.2536,-2.3091,-2.3091,-2.3091,-2.3091,-2.3047,-2.1943,-2.2031,-2.3091,-2.3091,-2.3091,-2.3091,-2.3091,-2.3091,-2.3091,-2.2536,-2.1987,-2.1987,-2.14,-2.0863,-2.0863,-2.0486,-2.035,-2.0809,-2.0087,-1.967,-2.0124,-1.9807,-1.9679,-2.0124,-2.0845,-2.148,-2.1943,-2.2677,-2.3091,-2.3091,-2.3091,-2.3091,-2.3091,-2.3091,-2.3091,-2.3091,-2.3091,-2.3091,-2.3091,-2.3091,-2.3091,-2.3091,-2.3091,-2.3091,-2.3091,-2.3091,-2.3091,-2.3091,-2.3091,-2.3091,-2.3091,-2.3091,-2.3091,-2.3091,-2.3091,-2.2633,-2.1987,-2.1987,-2.1212,-2.0079,-1.9314,-1.8772,-1.8365,-1.8365,-1.8365,-1.8503,-1.9268,-1.9497,-1.936,-1.8588,-1.8365,-1.8542,-1.9314,-1.9497,-1.9497,-1.9497,-1.9497,-1.9497,-1.9497,-1.9497,-1.9497,-1.9497,-1.9497,-1.9497,-1.9497,-1.9497,-1.9497,-1.9497,-1.9898,-2.0169,-2.0169,-2.0584,-2.0863,-2.0863,-2.0863,-2.0674,-2.0215,-1.9761,-1.9497,-1.9497,-2.0359,-2.0674,-2.0215,-2.0629,-2.0989,-2.1293,-2.1756,-2.1987,-2.1987,-2.1987,-2.1578,-2.0854,-2.0395,-2.044,-2.2633,-2.2818,-2.2916,-2.2138,-2.2262,-2.2448,-2.2041,-2.1632,-2.1168,-2.08,-2.0079,-1.9497,-1.9497,-1.9177,-1.9039,-1.9451,-1.8856,-1.8488,-1.8864,-1.858,-1.8488,-1.8856,-1.967,-2.044,-2.1248,-2.2031,-2.2677,-2.3047,-2.3091,-2.3091,-2.3091,-2.3091,-2.2916,-2.2536,-2.2906,-2.2906,-2.2536,-2.2906,-2.3091,-2.3091,-2.2721,-2.2721,-2.3101,-2.2731,-2.2536,-2.2492,-2.2129,-2.1952,-2.1996,-2.2359,-2.2536,-2.2536,-2.2536,-2.18,-2.0747,-2.0747,-1.9988,-1.8818,-1.801,-1.7458,-1.7084,-1.7084,-1.7084,-1.7264,-1.8079,-1.8349,-1.8172,-1.7311,-1.7084,-1.7311,-1.8126,-1.8349,-1.8349,-1.8349,-1.8349,-1.8349,-1.8349,-1.8349,-1.8349,-1.8349,-1.8349,-1.8349,-1.8349,-1.8349,-1.8349,-1.8349,-1.8672,-1.8948,-1.8948,-1.9268,-1.9497,-1.9497,-1.9177,-1.8948,-1.8948,-1.858,-1.8349,-1.8349,-1.8349,-1.8488,-1.891,-1.9314,-1.9724,-2.0169,-2.0531,-2.0747,-2.0747,-2.0747,-2.0305,-1.9488,-1.9093,-1.9131,-2.1614,-2.2164,-2.2501,-2.0087,-2.0395,-2.098,-1.9761,-2.0413,-2.0917,-1.9724,-1.9451,-1.9451,-1.9451,-1.8503,-1.8048,-1.9268,-1.739,-1.6244,-1.7505,-1.6622,-1.6244,-1.7552,-1.7684,-1.8634,-2.1025,-2.1293,-2.18,-2.296,-2.3057,-2.3057,-2.3057,-2.3057,-2.2536,-2.1337,-2.2448,-2.2492,-2.1293,-2.2492,-2.3091,-2.3047,-2.1845,-2.1933,-2.3047,-2.1845,-2.1293,-2.1203,-2.0034,-1.9497,-1.9579,-2.08,-2.1293,-2.1293,-2.1293,-2.0531,-1.9497,-1.9497,-1.8726,-1.7692,-1.7692,-1.6857,-1.5784,-1.5784,-1.5784,-1.5784,-1.5784,-1.5784,-1.5784,-1.5784,-1.5784,-1.5784,-1.5784,-1.5784,-1.5784,-1.5784,-1.5784,-1.5784,-1.5784,-1.5784,-1.5784,-1.5784,-1.5784,-1.5784,-1.5784,-1.5784,-1.5784,-1.5784,-1.685,-1.7692,-1.7692,-1.8726,-1.9451,-1.9451,-1.8411,-1.7692,-1.7692,-1.6527,-1.5784,-1.5784,-1.5784,-1.6386,-1.7645,-1.8818,-1.891,-1.7738,-1.8864,-1.9497,-1.9497,-1.9497,-1.9497,-1.9451,-1.8234,-1.8319,-2.1614,-2.1569,-2.1445,-1.9898,-1.9761,-1.9716,-1.8503,-1.8511,-1.8411,-1.7163,-1.6889,-1.6889,-1.6889,-1.6615,-1.6473,-1.6835,-1.6292,-1.592,-1.6298,-1.6062,-1.592,-1.6339,-1.7131,-1.7963,-1.868,-1.9542,-2.0169,-2.0539,-2.0584,-2.0584,-2.0584,-2.0584,-2.0404,-2.0034,-2.1212,-2.1658,-2.1293,-2.2492,-2.2677,-2.1845,-2.1471,-2.148,-2.18,-2.0576,-2.0034,-2.0034,-1.967,-1.9497,-1.9542,-1.9898,-2.0034,-2.0034,-2.0034,-1.9314,-1.8226,-1.8226,-1.7451,-1.6339,-1.6339,-1.6109,-1.5784,-1.5784,-1.5784,-1.5784,-1.5784,-1.5784,-1.5784,-1.5784,-1.5784,-1.5784,-1.5784,-1.5784,-1.5784,-1.5784,-1.5784,-1.5784,-1.5784,-1.5784,-1.5784,-1.5784,-1.5784,-1.5784,-1.5784,-1.5784,-1.5784,-1.5784,-1.6103,-1.6339,-1.6339,-1.6662,-1.6889,-1.6889,-1.6567,-1.6339,-1.6339,-1.6015,-1.5784,-1.5784,-1.5784,-1.5967,-1.6339,-1.6702,-1.7163,-1.7684,-1.8048,-1.8226,-1.8226,-1.8226,-1.777,-1.6882,-1.652,-1.6567,-2.0305,-2.0215,-2.0161,-1.8442,-1.8403,-1.8449,-1.7225,-1.6943,-1.6716,-1.5967,-1.5784,-1.5784,-1.5784,-1.5784,-1.5784,-1.5784,-1.5784,-1.5784,-1.5784,-1.5784,-1.5784,-1.5784,-1.648,-1.7131,-1.7645,-1.8365,-1.9001,-1.9451,-1.9497,-1.9497,-1.9497,-1.9497,-1.9268,-1.8818,-1.9943,-2.035,-1.9852,-2.1087,-2.1311,-2.0576,-2.0079,-1.9852,-1.9852,-1.9131,-1.8772,-1.8772,-1.8257,-1.8311,-1.8772,-1.8772,-1.8772,-1.8772,-1.8772,-1.8041,-1.6943,-1.6943,-1.648,-1.5784,-1.5784,-1.5784,-1.5784,-1.5784,-1.5784,-1.5784,-1.5784,-1.5784,-1.5784,-1.5784,-1.5784,-1.5784,-1.5784,-1.5784,-1.5784,-1.5784,-1.5784,-1.5784,-1.5784,-1.5784,-1.5784,-1.5784,-1.5784,-1.5784,-1.5784,-1.5784,-1.5784,-1.5784,-1.5784,-1.5784,-1.5784,-1.5784,-1.5784,-1.5784,-1.5784,-1.5784,-1.5784,-1.5784,-1.5784,-1.5784,-1.5784,-1.5784,-1.5784,-1.5784,-1.6157,-1.6943,-1.6943,-1.6943,-1.6943,-1.6943,-1.6574,-1.5784,-1.5784,-1.5784,-1.8365,-1.8503,-1.8764,-1.6379,-1.6662,-1.7225,-1.6062,-1.5784,-1.5784,-1.5784,-1.5784,-1.5784,-1.5784,-1.5784,-1.5784,-1.5784,-1.5784,-1.5784,-1.5784,-1.5784,-1.5784,-1.5784,-1.5784,-1.6244,-1.7412,-1.7552,-1.8002,-1.9085,-1.9169,-1.9169,-1.9169,-1.9169,-1.868,-1.7552,-1.868,-1.8818,-1.7684,-1.891,-1.9451,-1.9314,-1.8234,-1.7645,-1.7552,-1.7552,-1.7552,-1.7458,-1.6292,-1.648,-1.7552,-1.7552,-1.7552,-1.7552,-1.7552,-1.6803,-1.5784,-1.5784,-1.5784,-1.5784,-1.5784,-1.5784,-1.5784,-1.5784,-1.5784,-1.5784,-1.5784,-1.5784,-1.5784,-1.5784,-1.5784,-1.5784,-1.5784,-1.5784,-1.5784,-1.5784,-1.5784,-1.5784,-1.5784,-1.5784,-1.5784,-1.5784,-1.5784,-1.5784,-1.5784,-1.5784,-1.5784,-1.5784,-1.5784,-1.5784,-1.5784,-1.5784,-1.5784,-1.5784,-1.5784,-1.5784,-1.5784,-1.5784,-1.5784,-1.5784,-1.5784,-1.5784,-1.5784,-1.5784,-1.5784,-1.5784,-1.5784,-1.5784,-1.5784,-1.5784,-1.5784,-1.5784,-1.5784,-1.5784,-1.8365,-1.787,-1.7731,-1.6197,-1.6015,-1.6157,-1.5872,-1.5784,-1.5784,-1.5784,-1.5784,-1.5784,-1.5784,-1.5784,-1.5784,-1.5784,-1.5784,-1.5784,-1.5784,-1.5784,-1.5784,-1.5784,-1.5784,-1.592,-1.6204,-1.6204,-1.6339,-1.656,-1.6608,-1.6608,-1.6608,-1.6608,-1.6473,-1.6197,-1.7451,-1.7963,-1.7692,-1.891,-1.8993,0.0,-1.7824,-1.7178,-1.6204,-1.6204,-1.6204,-1.6197,-1.592,-1.5967,-1.6204,-1.6204,-1.6204,-1.6204,-1.6204,-1.6062,-1.5784,-1.5784,-1.5784,-1.5784,-1.5784,-1.5784,-1.5784,-1.5784,-1.5784,-1.5784,-1.5784,-1.5784,-1.5784,-1.5784,-1.5784,-1.5784,-1.5784,-1.5784,-1.5784,-1.5784,-1.5784,-1.5784,-1.5784,-1.5784,-1.5784,-1.5784,-1.5784,-1.5784,-1.5784,-1.5784,-1.5784,-1.5784,-1.5784,-1.5784,-1.5784,-1.5784,-1.5784,-1.5784,-1.5784,-1.5784,-1.5784,-1.5784,-1.5784,-1.5784,-1.5784,-1.5784,-1.5784,-1.5784,-1.5784,-1.5784,-1.5784,-1.5784,-1.5784,-1.5784,-1.5784,-1.5784,-1.5784,-1.5784,-1.8187,-1.7271,-1.6622,-1.5967,-1.5784,-1.5784,-1.5784,-1.5784,-1.5784,-1.5784,-1.5784,-1.5784,-1.5784,-1.5784,-1.5784,-1.5784,-1.5784,-1.5784,-1.5784,-1.5784,-1.5784,-1.5784,-1.5784,-1.5784,-1.5784,-1.5784,-1.5784,-1.5784,-1.5784,-1.5784,-1.5784,-1.5784,-1.5784,-1.5784,-1.6433,-1.6803,-1.6803,-1.739,-1.739,-1.6803,-1.6803,-1.6433,-1.5784,-1.5784,-1.5784,-1.5784,-1.5784,-1.5784,-1.5784,-1.5784,-1.5784,-1.5784,-1.5784,-1.5784,-1.5784,-1.5784,-1.5784,-1.5784,-1.5784,-1.5784,-1.5784,-1.5784,-1.5784,-1.5784,-1.5784,-1.5784,-1.5784,-1.5784,-1.5784,-1.5784,-1.5784,-1.5784,-1.5784,-1.5784,-1.5784,-1.5784,-1.5784,-1.5784,-1.5784,-1.5784,-1.5784,-1.5784,-1.5784,-1.5784,-1.5784,-1.5784,-1.5784,-1.5784,-1.5784,-1.5784,-1.5784,-1.5784,-1.5784,-1.5784,-1.5784,-1.5784,-1.5784,-1.5784,-1.5784,-1.5784,-1.5784,-1.5784,-1.5784,-1.5784,-1.5784,-1.5784,-1.5784,-1.5784,-1.5784,-1.5784,-1.5784,-1.5784,-1.8095,-1.6756,-1.5784,-1.5784,-1.5784,-1.5784,-1.5784,-1.5784,-1.5784,-1.5784,-1.5784,-1.5784,-1.5784,-1.5784,-1.5784,-1.5784,-1.5784,-1.5784,-1.5784,-1.5784,-1.5784,-1.5784,-1.5784,-1.5784,-1.5784,-1.5784,-1.5784,-1.5784,-1.5784,-1.5784,-1.5784,-1.5784,-1.5784,-1.5784,-1.5784,-1.5784,-1.5784,-1.5784,-1.5784,-1.5784,-1.5784,-1.5784,-1.5784,-1.5784,-1.5784,-1.5784,-1.5784,-1.5784,-1.5784,-1.5784,-1.5784,-1.5784,-1.5784,-1.5784,-1.5784,-1.5784,-1.5784,-1.5784,-1.5784,-1.5784,-1.5784,-1.5784,-1.5784,-1.5784,-1.5784,-1.5784,-1.5784,-1.5784,-1.5784,-1.5784,-1.5784,-1.5784,-1.5784,-1.5784,-1.5784,-1.5784,-1.5784,-1.5784,-1.5784,-1.5784,-1.5784,-1.5784,-1.5784,-1.5784,-1.5784,-1.5784,-1.5784,-1.5784,-1.5784,-1.5784,-1.5784,-1.5784,-1.5784,-1.5784,-1.5784,-1.5784,-1.5784,-1.5784,-1.5784,-1.5784,-1.5784,-1.5784,-1.5784,-1.5784,-1.5784,-1.5784,-1.5784,-1.5784,-1.5784,-1.5784,-1.5784,-1.5784,-1.8319,-1.6756,-1.5784,-1.5784,-1.5784,-1.5784,-1.5784,-1.5784,-1.5784,-1.5784,-1.5784,-1.5784,-1.5784,-1.5784,-1.5784,-1.5784,-1.5784,-1.5784,-1.5784,-1.5784,-1.5784,-1.5784,-1.5784,-1.5784,-1.5784,-1.5784,-1.5784,-1.5784,-1.5784,-1.5784,-1.5784,-1.5784,-1.5784,-1.5784,-1.5784,-1.5784,-1.5784,-1.5784,-1.5784,-1.5784,-1.5784,-1.5784,-1.5784,-1.5784,-1.5784,-1.5784,-1.5784,-1.5784,-1.5784,-1.5784,-1.5784,-1.5784,-1.5784,-1.5784,-1.5784,-1.5784,-1.5784,-1.5784,-1.5784,-1.5784,-1.5784,-1.5784,-1.5784,-1.5784,-1.5784,-1.5784,-1.5784,-1.5784,-1.5784,-1.5784,-1.5784,-1.5784,-1.5784,-1.5784,-1.5784,-1.5784,-1.5784,-1.5784,-1.5784,-1.5784,-1.5784,-1.5784,-1.5784,-1.5784,-1.5784,-1.5784,-1.5784,-1.5784,-1.5784,-1.5784,-1.5784,-1.5784,-1.5784,-1.5784,-1.5784,-1.5784,-1.5784,-1.5784,-1.5784,-1.5784,-1.5784,-1.5784,-1.5784,-1.5784,-1.5784,-1.5784,-1.5784,-1.5784,-1.5784,-1.5784,-1.5784,-1.5784,-1.8365,-1.6756,-1.5784,-1.5784,-1.5784,-1.5784,-1.5784,-1.5784,-1.5784,-1.5784,-1.5784,-1.5784,-1.5784,-1.5784,-1.5784,-1.5784,-1.5784,-1.5784,-1.5784,-1.5784,-1.5784,-1.5784,-1.5784,-1.5784,-1.5784,-1.5784,-1.5784,-1.5784,-1.5784,-1.5784,-1.5784,-1.5784,-1.5784,-1.5784,-1.5784,-1.5784,-1.5784,-1.5784,-1.5784,-1.5784,-1.5784,-1.5784,-1.5784,-1.5784,-1.5784,-1.5784,-1.5784,-1.5784,-1.5784,-1.5784,-1.5784,-1.5784,-1.5784,-1.5784,-1.5784,-1.5784,-1.5784,-1.5784,-1.5784,-1.5784,-1.5784,-1.5784,-1.5784,-1.5784,-1.5784,-1.5784,-1.5784,-1.5784,-1.5784,-1.5784,-1.5784,-1.5784,-1.5784,-1.5784,-1.5784,-1.5784,-1.5784,-1.5784,-1.5784,-1.5784,-1.5784,-1.5784,-1.5784,-1.5784,-1.5784,-1.5784,-1.5784,-1.5784,-1.5784,-1.5784,-1.5784,-1.5784,-1.5784,-1.5784,-1.5784,-1.5784,-1.5784,-1.5784,-1.5784,-1.5784,-1.5784,-1.5784,-1.5784,-1.5784,-1.5784,-1.5784,-1.5784,-1.5784,-1.5784,-1.5784,-1.5784,-1.5784,-1.8726,-1.7217,-1.6204,-1.5879,-1.5784,-1.5784,-1.5784,-1.5784,-1.5784,-1.5784,-1.5784,-1.5784,-1.5784,-1.5784,-1.5784,-1.5784,-1.5784,-1.5784,-1.5784,-1.5784,-1.5784,-1.5784,-1.5784,-1.5784,-1.5784,-1.5784,-1.5784,-1.5784,-1.5784,-1.5784,-1.5784,-1.5784,-1.5784,-1.5784,-1.5784,-1.5784,-1.5784,-1.5784,-1.5784,-1.5784,-1.5784,-1.5784,-1.5784,-1.5784,-1.5784,-1.5784,-1.5784,-1.5784,-1.5784,-1.5784,-1.5784,-1.5784,-1.5784,-1.5784,-1.5784,-1.5784,-1.5784,-1.5784,-1.5784,-1.5784,-1.5784,-1.5784,-1.5784,-1.5784,-1.5784,-1.5784,-1.5784,-1.5784,-1.5784,-1.5784,-1.5784,-1.5784,-1.5784,-1.5784,-1.5784,-1.5784,-1.5784,-1.5784,-1.5784,-1.5784,-1.5784,-1.5784,-1.5784,-1.5784,-1.5784,-1.5784,-1.5784,-1.5784,-1.5784,-1.5784,-1.5784,-1.5784,-1.5784,-1.5784,-1.5784,-1.5784,-1.5784,-1.5784,-1.5784,-1.5784,-1.5784,-1.5784,-1.5784,-1.5784,-1.5784,-1.5784,-1.5784,-1.5784,-1.5784,-1.5784,-1.5784,-1.5784,-1.9761,-1.8495,-1.7318,-1.6109,-1.5784,-1.5784,-1.5784,-1.5784,-1.5784,-1.5784,-1.5784,-1.5784,-1.5784,-1.5784,-1.5784,-1.5784,-1.5784,-1.5784,-1.5784,-1.5784,-1.5784,-1.5784,-1.5784,-1.5784,-1.5784,-1.5784,-1.5784,-1.5784,-1.5784,-1.5784,-1.5784,-1.5784,-1.5784,-1.5784,-1.5784,-1.5784,-1.5784,-1.5784,-1.5784,-1.5784,-1.5784,-1.5784,-1.5784,-1.5784,-1.5784,-1.5784,-1.5784,-1.5784,-1.5784,-1.5784,-1.5784,-1.5784,-1.5784,-1.5784,-1.5784,-1.5784,-1.5784,-1.5784,-1.5784,-1.5784,-1.5784,-1.5784,-1.5784,-1.5784,-1.5784,-1.5784,-1.5784,-1.5784,-1.5784,-1.5784,-1.5784,-1.5784,-1.5784,-1.5784,-1.5784,-1.5784,-1.5784,-1.5784,-1.5784,-1.5784,-1.5784,-1.5784,-1.5784,-1.5784,-1.5784,-1.5784,-1.5784,-1.5784,-1.5784,-1.5784,-1.5784,-1.5784,-1.5784,-1.5784,-1.5784,-1.5784,-1.5784,-1.5784,-1.5784,-1.5784,-1.5784,-1.5784,-1.5784,-1.5784,-1.5784,-1.5784,-1.5784,-1.5784,-1.5784,-1.5784,-1.5784,-1.5784,-2.0755,-1.9222,-1.7598,-1.7131,-1.6386,-1.5784,-1.5784,-1.5784,-1.5784,-1.5784,-1.5784,-1.5784,-1.5784,-1.5784,-1.5784,-1.5784,-1.5784,-1.5784,-1.5784,-1.5784,-1.5784,-1.5784,-1.5784,-1.5784,-1.5784,-1.5784,-1.5784,-1.5784,-1.5784,-1.5784,-1.5784,-1.5784,-1.5784,-1.5784,-1.5784,-1.5784,-1.5784,-1.5784,-1.5784,-1.5784,-1.5784,-1.5784,-1.5784,-1.5784,-1.5784,-1.5784,-1.5784,-1.5784,-1.5784,-1.5784,-1.5784,-1.5784,-1.5784,-1.5784,-1.5784,-1.5784,-1.5784,-1.5784,-1.5784,-1.5784,-1.5784,-1.5784,-1.5784,-1.5784,-1.5784,-1.5784,-1.5784,-1.5784,-1.5784,-1.5784,-1.5784,-1.5784,-1.5784,-1.5784,-1.5784,-1.5784,-1.5784,-1.5784,-1.5784,-1.5784,-1.5784,-1.5784,-1.5784,-1.5784,-1.5784,-1.5784,-1.5784,-1.5784,-1.5784,-1.5784,-1.5784,-1.5784,-1.5784,-1.5784,-1.5784,-1.5784,-1.5784,-1.5784,-1.5784,-1.5784,-1.5784,-1.5784,-1.5784,-1.5784,-1.5784,-1.5784,-1.5784,-1.5784,-1.5784,-1.5784,-1.5784,-1.5784,-2.1426,-2.0124,-1.8726,-1.7917,-1.7037,-1.6339,-1.592,-1.5784,-1.5784,-1.5784,-1.5784,-1.5784,-1.5784,-1.5784,-1.5784,-1.5784,-1.5784,-1.5784,-1.5784,-1.5784,-1.5784,-1.5784,-1.5784,-1.5784,-1.5784,-1.5784,-1.5784,-1.5784,-1.5784,0.0,-1.5784,-1.5784,-1.5784,-1.5784,-1.5784,-1.5784,-1.5784,-1.5784,-1.5784,-1.5784,-1.5784,-1.5784,-1.5784,-1.5784,-1.5784,-1.5784,-1.5784,-1.5784,-1.5784,-1.5784,-1.5784,-1.5784,-1.5784,-1.5784,-1.5784,-1.5784,-1.5784,-1.5784,-1.5784,-1.5784,-1.5784,-1.5784,-1.5784,-1.5784,-1.5784,-1.5784,-1.5784,-1.5784,-1.5784,-1.5784,-1.5784,-1.5784,-1.5784,-1.5784,-1.5784,-1.5784,-1.5784,-1.5784,-1.5784,-1.5784,-1.5784,-1.5784,-1.5784,-1.5784,-1.5784,-1.5784,-1.5784,-1.5784,-1.5784,-1.5784,-1.5784,-1.5784,-1.5784,-1.5784,-1.5784,-1.5784,-1.5784,-1.5784,-1.5784,-1.5784,-1.5784,-1.5784,-1.5784,-1.5784,-1.5784,-1.5784,-1.5784,-1.5784,-1.5784,-1.5784,-1.5784,-1.5784,0.0,0.0,0.0,-1.8411,-1.7777,-1.7404,-1.6157,-1.5879,-1.5825,-1.5832,-1.5784,-1.5784,-1.5784,-1.5784,-1.5784,-1.5784,-1.5784,-1.5784,-1.5784,-1.5784,-1.5784,-1.5784,-1.5784,-1.5784,-1.5784,-1.5784,-1.5784,-1.5784,-1.5784,-1.5784,-1.5784,-1.5784,-1.5784,-1.5784,-1.5784,-1.5784,-1.5784,-1.5784,-1.5784,-1.5784,-1.5784,-1.5784,-1.5784,-1.5784,-1.5784,-1.5784,-1.5784,-1.5784,-1.5784,-1.5784,-1.5784,-1.5784,-1.5784,-1.5784,-1.5784,-1.5784,-1.5784,-1.5784,-1.5784,-1.5784,-1.5784,-1.5784,-1.5784,-1.5784,-1.5784,-1.5784,-1.5784,-1.5784,-1.5784,-1.5784,-1.5784,-1.5784,-1.5784,-1.5784,-1.5784,-1.5784,-1.5784,-1.5784,-1.5784,-1.5784,-1.5784,-1.5784,-1.5784,-1.5784,-1.5784,-1.5784,-1.5784,-1.5784,-1.5784,-1.5784,-1.5784,-1.5784,-1.5784,-1.5784,-1.5784,-1.5784,-1.5784,-1.5784,-1.5784,-1.5784,-1.5784,-1.5784,-1.5784,-1.5784,-1.5784,-1.5784,-1.5784,-1.5784,-1.5784,-1.5784,-1.5784,-1.5784,-2.2931,0.0,0.0,0.0,0.0,0.0,-1.7451,-1.7178,-1.6897,-1.5967,-1.5784,-1.5784,-1.5784,-1.5784,-1.5784,-1.5784,-1.5784,-1.5784,-1.5784,-1.5784,-1.5784,-1.5784,-1.5784,-1.5784,-1.5784,-1.5784,-1.5784,0.0,-1.5784,-1.5784,-1.5784,-1.5784,-1.5784,-1.5784,-1.5784,-1.5784,-1.5784,-1.5784,-1.5784,-1.5784,-1.5784,-1.5784,-1.5784,-1.5784,-1.5784,-1.5784,-1.5784,-1.5784,-1.5784,-1.5784,-1.5784,-1.5784,-1.5784,-1.5784,-1.5784,-1.5784,-1.5784,-1.5784,-1.5784,-1.5784,-1.5784,-1.5784,-1.5784,-1.5784,-1.5784,-1.5784,-1.5784,-1.5784,-1.5784,-1.5784,-1.5784,-1.5784,-1.5784,-1.5784,-1.5784,-1.5784,-1.5784,-1.5784,-1.5784,-1.5784,-1.5784,-1.5784,-1.5784,-1.5784,-1.5784,-1.5784,-1.5784,-1.5784,-1.5784,-1.5784,-1.5784,-1.5784,-1.5784,-1.5784,-1.5784,-1.5784,-1.5784,-1.5784,-1.5784,-1.5784,-1.5784,-1.5784,-1.5784,-1.5784,-1.5784,-1.5784,-1.5784,-1.5784,-1.5784,-1.5784,-1.5784,-1.5784,-2.4006,-2.2974,-2.1917,-2.1454,0.0,0.0,-1.8095,-1.7692,-1.7365,-1.6062,-1.5784,-1.5784,-1.5784,-1.5784,-1.5784,-1.5784,-1.5784,-1.5784,-1.5784,-1.5784,-1.5784,-1.5784,-1.5784,-1.5784,-1.5784,-1.5784,-1.5784,-1.5784,-1.5784,-1.5784,-1.5784,-1.5784,-1.5784,-1.5784,-1.5784,-1.5784,-1.5784,-1.5784,-1.5784,-1.5784,-1.5784,-1.5784,-1.5784,-1.5784,-1.5784,-1.5784,-1.5784,-1.5784,-1.5784,-1.5784,-1.5784,-1.5784,-1.5784,-1.5784,-1.5784,-1.5784,-1.5784,-1.5784,-1.5784,-1.5784,-1.5784,-1.5784,-1.5784,-1.5784,-1.5784,-1.5784,-1.5784,-1.5784,-1.5784,-1.5784,-1.5784,-1.5784,-1.5784,-1.5784,-1.5784,-1.5784,-1.5784,-1.5784,-1.5784,-1.5784,-1.5784,-1.5784,-1.5784,-1.5784,-1.5784,-1.5784,-1.5784,-1.5784,-1.5784,-1.5784,-1.5784,-1.5784,-1.5784,-1.5784,-1.5784,-1.5784,-1.5784,-1.5784,-1.5784,-1.5784,-1.5784,-1.5784,-1.5784,-1.5784,-1.5784,-1.5784,-1.5784,-1.5784,-1.5784,-1.5784,-1.5784,-1.5784,-2.5041,-2.4178,-2.3038,-2.1952,-2.1578,0.0,-1.8634,-1.8095,-1.7723,-1.6473,-1.6197,-1.615,-1.6062,-1.6015,-1.5967,-1.5825,-1.5784,-1.5784,-1.5784,-1.5784,-1.5784,-1.5784,-1.5784,-1.5784,-1.5784,-1.5784,-1.5784,-1.5784,-1.5784,-1.5784,-1.5784,-1.5784,-1.5784,-1.5784,-1.5784,-1.5784,-1.5784,-1.5784,-1.5784,-1.5784,-1.5784,-1.5784,-1.5784,-1.5784,-1.5784,-1.5784,-1.5784,-1.5784,-1.5784,-1.5784,-1.5784,-1.5784,-1.5784,-1.5784,-1.5784,-1.5784,-1.5784,-1.5784,-1.5784,-1.5784,-1.5784,-1.5784,-1.5784,-1.5784,-1.5784,-1.5784,-1.5784,-1.5784,-1.5784,-1.5784,-1.5784,-1.5784,-1.5784,-1.5784,-1.5784,-1.5784,-1.5784,-1.5784,-1.5784,-1.5784,-1.5784,-1.5784,-1.5784,-1.5784,-1.5784,-1.5784,-1.5784,-1.5784,-1.5784,-1.5784,-1.5784,-1.5784,-1.5784,-1.5784,-1.5784,-1.5784,-1.5784,-1.5784,-1.5784,-1.5784,-1.5784,-1.5784,-1.5784,-1.5784,-1.5784,-1.5784,-1.5784,-1.5784,-1.5784,-1.5784,-1.5784,-1.5784,-2.6378,-2.5336,-2.4414,-2.419,-2.3434,0.0,-2.0935,-2.0621,-2.026,-1.9031,-1.8764,-1.8488,-1.7498,-1.7318,-1.699,-1.5967,-1.5784,-1.5784,-1.5784,-1.5784,-1.5784,-1.5784,-1.5784,-1.5784,-1.5784,-1.5784,-1.5784,-1.5784,-1.5784,-1.5784,-1.5784,-1.5784,-1.5784,-1.5784,-1.5784,-1.5784,-1.5784,-1.5784,-1.5784,-1.5784,-1.5784,-1.5784,-1.5784,-1.5784,-1.5784,-1.5784,-1.5784,-1.5784,-1.5784,-1.5784,-1.5784,-1.5784,-1.5784,-1.5784,-1.5784,-1.5784,-1.5784,-1.5784,-1.5784,-1.5784,-1.5784,-1.5784,-1.5784,-1.5784,-1.5784,-1.5784,-1.5784,-1.5784,-1.5784,-1.5784,-1.5784,-1.5784,-1.5784,-1.5784,-1.5784,-1.5784,-1.5784,-1.5784,-1.5784,-1.5784,-1.5784,-1.5784,-1.5784,-1.5784,-1.5784,-1.5784,-1.5784,-1.5784,-1.5784,-1.5784,-1.5784,-1.5784,-1.5784,-1.5784,-1.5784,-1.5784,-1.5784,-1.5784,-1.5784,-1.5784,-1.5784,-1.5784,-1.5784,-1.5784,-1.5784,-1.5784,-1.5784,-1.5784,-1.5784,-1.5784,-1.5784,-1.5784,-2.7441,-2.6502,-2.5504,-2.4957,-2.4372,0.0,0.0,-2.1293,-2.098,-1.9761,-1.9497,-1.9314,-1.8726,-1.8596,-1.818,-1.6943,-1.6763,-1.6527,-1.5872,-1.5784,-1.5784,-1.5784,-1.5784,-1.5784,-1.5784,-1.5784,-1.5784,-1.5784,-1.5784,-1.5784,-1.5784,-1.5784,-1.5784,-1.5784,-1.5784,-1.5784,-1.5784,-1.5784,-1.5784,-1.5784,-1.5784,-1.5784,-1.5784,-1.5784,-1.5784,-1.5784,-1.5784,-1.5784,-1.5784,-1.5784,-1.5784,-1.5784,-1.5784,-1.5784,-1.5784,-1.5784,-1.5784,-1.5784,-1.5784,-1.5784,-1.5784,-1.5784,-1.5784,-1.5784,-1.5784,-1.5784,-1.5784,-1.5784,-1.5784,-1.5784,-1.5784,-1.5784,-1.5784,-1.5784,-1.5784,-1.5784,-1.5784,-1.5784,-1.5784,-1.5784,-1.5784,-1.5784,-1.5784,-1.5784,-1.5784,-1.5784,-1.5784,-1.5784,-1.5784,-1.5784,-1.5784,-1.5784,-1.5784,-1.5784,-1.5784,-1.5784,-1.5784,-1.5784,-1.5784,-1.5784,-1.5784,-1.5784,-1.5784,-1.5784,-1.5784,-1.5784,-1.5784,-1.5784,-1.5784,-1.5784,-1.5784,-1.5784,-2.8426,-2.7614,-2.6584,-2.5661,-2.5284,-2.4639,0.0,0.0,0.0,-2.0729,-2.0342,-2.0124,-1.9898,-1.9852,-1.9443,-1.8234,-1.787,-1.7365,-1.6298,-1.5967,0.0,-1.5784,-1.5784,-1.5784,-1.5784,-1.5784,-1.5784,-1.5784,-1.5784,-1.5784,-1.5784,-1.5784,-1.5784,-1.5784,-1.5784,-1.5784,-1.5784,-1.5784,-1.5784,-1.5784,-1.5784,-1.5784,-1.5784,-1.5784,-1.5784,-1.5784,-1.5784,-1.5784,-1.5784,-1.5784,-1.5784,-1.5784,-1.5784,-1.5784,-1.5784,-1.5784,-1.5784,-1.5784,-1.5784,-1.5784,-1.5784,-1.5784,-1.5784,-1.5784,-1.5784,-1.5784,-1.5784,-1.5784,-1.5784,-1.5784,-1.5784,-1.5784,-1.5784,-1.5784,-1.5784,-1.5784,-1.5784,-1.5784,-1.5784,-1.5784,-1.5784,-1.5784,-1.5784,-1.5784,-1.5784,-1.5784,-1.5784,-1.5784,-1.5784,-1.5784,-1.5784,-1.5784,-1.5784,-1.5784,-1.5784,-1.5784,-1.5784,-1.5784,-1.5784,-1.5784,-1.5784,-1.5784,-1.5784,-1.5784,-1.5784,-1.5784,-1.5784,-1.5784,-1.5784,-1.5784,-1.5784,-1.5784,-2.9624,-2.8779,-2.7896,-2.7763,-2.6994,-2.6224,-2.5964,0.0,-2.4351,-2.4212,0.0,-2.2359,-2.1293,0.0,0.0,-1.9488,-1.8411,-1.7645,-1.7505,-1.6527,-1.5784,-1.5784,-1.5784,-1.5784,-1.5784,-1.5784,-1.5784,-1.5784,-1.5784,-1.5784,-1.5784,-1.5784,-1.5784,-1.5784,-1.5784,-1.5784,-1.5784,-1.5784,-1.5784,-1.5784,-1.5784,-1.5784,-1.5784,-1.5784,-1.5784,-1.5784,-1.5784,-1.5784,-1.5784,-1.5784,-1.5784,-1.5784,-1.5784,-1.5784,-1.5784,-1.5784,-1.5784,-1.5784,-1.5784,-1.5784,-1.5784,-1.5784,-1.5784,-1.5784,-1.5784,-1.5784,-1.5784,-1.5784,-1.5784,-1.5784,-1.5784,-1.5784,-1.5784,-1.5784,-1.5784,-1.5784,-1.5784,-1.5784,-1.5784,-1.5784,-1.5784,-1.5784,-1.5784,-1.5784,-1.5784,-1.5784,-1.5784,-1.5784,-1.5784,-1.5784,-1.5784,-1.5784,-1.5784,-1.5784,-1.5784,-1.5784,-1.5784,-1.5784,-1.5784,-1.5784,-1.5784,-1.5784,-1.5784,-1.5784,-1.5784,-1.5784,-1.5784,-1.5784,-1.5784,-1.5784,-1.5784,-1.5784,-2.9792,-2.9456,0.0,0.0,0.0,0.0,-2.6637,0.0,-2.5588,0.0,0.0,0.0,0.0,0.0,0.0,0.0,-2.0124,-1.9542,-1.8818,-1.7677,-1.6622,-1.5872,0.0,0.0,-1.5784,-1.5784,-1.5784,0.0,-1.5784,-1.5784,-1.5784,-1.5784,-1.5784,-1.5784,-1.5784,-1.5784,-1.5784,-1.5784,-1.5784,-1.5784,-1.5784,-1.5784,-1.5784,-1.5784,-1.5784,-1.5784,-1.5784,-1.5784,-1.5784,-1.5784,-1.5784,-1.5784,-1.5784,-1.5784,-1.5784,-1.5784,-1.5784,-1.5784,-1.5784,-1.5784,-1.5784,-1.5784,-1.5784,-1.5784,-1.5784,-1.5784,-1.5784,-1.5784,-1.5784,-1.5784,-1.5784,-1.5784,-1.5784,-1.5784,-1.5784,-1.5784,-1.5784,-1.5784,-1.5784,-1.5784,-1.5784,-1.5784,-1.5784,-1.5784,-1.5784,-1.5784,-1.5784,-1.5784,-1.5784,-1.5784,-1.5784,-1.5784,-1.5784,-1.5784,-1.5784,-1.5784,-1.5784,-1.5784,-1.5784,-1.5784,-1.5784,-1.5784,-1.5784,-1.5784,-1.5784,-1.5784,-1.5784,-1.5784,-1.5784,-1.5784,-1.5784,-1.5784,-2.9792,0.0,0.0,0.0,0.0,0.0,0.0,0.0,0.0,0.0,0.0,0.0,0.0,0.0,0.0,0.0,0.0,-2.098,-2.0124,-1.8688,-1.7365,-1.6433,0.0,0.0,0.0,-1.5784,-1.5784,0.0,0.0,-1.5784,-1.5784,-1.5784,-1.5784,-1.5784,-1.5784,-1.5784,-1.5784,-1.5784,-1.5784,-1.5784,-1.5784,-1.5784,-1.5784,-1.5784,-1.5784,-1.5784,-1.5784,-1.5784,-1.5784,-1.5784,-1.5784,-1.5784,-1.5784,-1.5784,-1.5784,-1.5784,-1.5784,-1.5784,-1.5784,-1.5784,-1.5784,-1.5784,-1.5784,-1.5784,-1.5784,-1.5784,-1.5784,-1.5784,-1.5784,-1.5784,-1.5784,-1.5784,-1.5784,-1.5784,-1.5784,-1.5784,-1.5784,-1.5784,-1.5784,-1.5784,-1.5784,-1.5784,-1.5784,-1.5784,-1.5784,-1.5784,-1.5784,-1.5784,-1.5784,-1.5784,-1.5784,-1.5784,-1.5784,-1.5784,-1.5784,-1.5784,-1.5784,-1.5784,-1.5784,-1.5784,-1.5784,-1.5784,-1.5784,-1.5784,-1.5784,-1.5784,-1.5784,-1.5784,-1.5784,-1.5784,-1.5784,-1.5784,0.0,0.0,0.0,-2.9753,0.0,0.0,0.0,0.0,-2.8056,0.0,0.0,0.0,0.0,0.0,0.0,0.0,0.0,0.0,0.0,-1.9177,-1.7692,-1.7638,0.0,0.0,0.0,-1.5784,-1.5784,0.0,0.0,0.0,-1.5784,-1.5784,-1.5784,-1.5784,-1.5784,-1.5784,-1.5784,-1.5784,-1.5784,-1.5784,-1.5784,-1.5784,-1.5784,-1.5784,-1.5784,-1.5784,-1.5784,-1.5784,-1.5784,-1.5784,-1.5784,-1.5784,-1.5784,-1.5784,-1.5784,-1.5784,-1.5784,-1.5784,-1.5784,-1.5784,-1.5784,-1.5784,-1.5784,-1.5784,-1.5784,-1.5784,-1.5784,-1.5784,-1.5784,-1.5784,-1.5784,-1.5784,-1.5784,-1.5784,-1.5784,-1.5784,-1.5784,-1.5784,-1.5784,-1.5784,-1.5784,-1.5784,-1.5784,-1.5784,-1.5784,-1.5784,-1.5784,-1.5784,-1.5784,-1.5784,-1.5784,-1.5784,-1.5784,-1.5784,-1.5784,-1.5784,-1.5784,-1.5784,-1.5784,-1.5784,-1.5784,-1.5784,-1.5784,-1.5784,-1.5784,-1.5784,-1.5784,-1.5784,-1.5784,-1.5784,-1.5784,-1.5784,0.0,0.0,-2.9792,-2.9792,0.0,0.0,0.0,0.0,0.0,0.0,0.0,0.0,0.0,0.0,0.0,0.0,0.0,0.0,0.0,-2.0404,-1.8588,-1.7777,-1.6574,-1.5784,0.0,0.0,0.0,0.0,-1.5784,0.0,0.0,-1.5784,-1.5784,-1.5784,-1.5784,-1.5784,-1.5784,-1.5784,-1.5784,-1.5784,-1.5784,-1.5784,-1.5784,-1.5784,-1.5784,-1.5784,-1.5784,-1.5784,-1.5784,-1.5784,-1.5784,-1.5784,-1.5784,-1.5784,-1.5784,-1.5784,-1.5784,-1.5784,-1.5784,-1.5784,-1.5784,-1.5784,-1.5784,-1.5784,-1.5784,-1.5784,-1.5784,-1.5784,-1.5784,-1.5784,-1.5784,-1.5784,-1.5784,-1.5784,-1.5784,-1.5784,-1.5784,-1.5784,-1.5784,-1.5784,-1.5784,-1.5784,-1.5784,-1.5784,-1.5784,-1.5784,-1.5784,-1.5784,-1.5784,-1.5784,-1.5784,-1.5784,-1.5784,-1.5784,-1.5784,-1.5784,-1.5784,-1.5784,-1.5784,-1.5784,-1.5784,-1.5784,-1.5784,-1.5784,-1.5784,-1.5784,-1.5784,-1.5784,-1.5784,-1.5784,-1.5784,-1.5784,-2.9792,-2.9792,0.0,-2.9792,-2.9792,0.0,-2.9792,0.0,-2.9573,0.0,0.0,0.0,0.0,0.0,0.0,0.0,0.0,0.0,0.0,-2.1123,-1.9534,-1.787,-1.6574,-1.5784,-1.5784,0.0,0.0,0.0,0.0,0.0,0.0,0.0,-1.5784,-1.5784,-1.5784,-1.5784,-1.5784,-1.5784,-1.5784,-1.5784,-1.5784,-1.5784,-1.5784,-1.5784,-1.5784,-1.5784,-1.5784,-1.5784,-1.5784,-1.5784,-1.5784,-1.5784,-1.5784,-1.5784,-1.5784,-1.5784,-1.5784,-1.5784,-1.5784,-1.5784,-1.5784,-1.5784,-1.5784,-1.5784,-1.5784,-1.5784,-1.5784,-1.5784,-1.5784,-1.5784,-1.5784,-1.5784,-1.5784,-1.5784,-1.5784,-1.5784,-1.5784,-1.5784,-1.5784,-1.5784,-1.5784,-1.5784,-1.5784,-1.5784,-1.5784,-1.5784,-1.5784,-1.5784,-1.5784,-1.5784,-1.5784,-1.5784,-1.5784,-1.5784,-1.5784,-1.5784,-1.5784,-1.5784,-1.5784,-1.5784,-1.5784,-1.5784,-1.5784,-1.5784,-1.5784,-1.5784,-1.5784,-1.5784,-1.5784,-1.5784,-1.5784,-1.5784]},{"header":{"parameterUnit":"m.s-1","parameterCategory":1,"la1":30.6,"la2":29.2853,"lo1":-89.7004,"lo2":-87.6739,"dy":0.0162,"dx":0.0183,"nx":112,"ny":82,"refTime":"2024-04-18T06:00:00:Z","depth":0,"parameterNumber":3,"parameterNumberName":"V-component_of_WINDS"},"data":[0.0,0.0,0.0,0.0,0.0,0.0,0.0,0.0,0.0,0.0,0.0,0.0,0.0,0.0,0.0,0.0,0.0,0.0,0.0,0.0,0.0,0.0,0.0,0.0,0.0,0.0,0.0,0.0,0.0,0.0,0.0,0.0,0.0,0.0,0.0,0.0,0.0,0.0,0.0,0.0,0.0,0.0,0.0,0.0,0.0,0.0,0.0,0.0,0.0,0.0,0.0,0.0,0.0,0.0,0.0,0.0,0.0,0.0,0.0,0.0,0.0,0.0,0.0,0.0,0.0,0.0,0.0,0.0,0.0,0.0,0.0,0.0,0.0,0.0,0.0,0.0,0.0,0.0,0.0,0.0,0.0,0.0,0.0,0.0,0.0,0.0,0.0,0.0,0.0,0.0,0.5724,0.4166,0.1611,0.0,0.0,0.0,0.0,0.0,0.0,0.0,0.0,0.0,0.0,0.0,0.0,0.0,0.0,0.0,0.0,0.0,0.0,0.0,0.0,0.0,0.0,0.0,0.0,0.0,0.0,0.0,0.0,0.0,0.0,0.0,0.0,0.0,0.0,0.0,0.0,0.0,0.0,0.0,0.0,0.0,0.0,0.0,0.0,0.0,0.0,0.0,0.0,0.0,0.0,0.0,0.0,0.0,0.0,0.0,0.0,0.0,0.0,0.0,0.0,0.0,0.0,0.0,0.0,0.0,0.0,0.0,0.0,0.0,0.0,0.0,0.0,0.0,0.0,0.0,0.0,0.0,0.0,0.0,0.0,0.0,0.0,0.0,0.0,0.0,0.0,0.0,0.0,0.0,0.0,0.0,0.0,0.0,0.0,0.0,0.0,0.0,0.0,0.0,0.0,0.0,0.0,0.0,0.0,0.0,0.0,0.0,0.0,0.0,0.6728,0.4266,0.1611,0.0,0.0,0.0,0.0,0.0,0.0,0.0,0.0,0.0,0.0,0.0,0.0,0.0,0.0,0.0,0.0,0.0,0.0,0.0,0.0,0.0,0.0,0.0,0.0,0.0,0.0,0.0,0.0,0.0,0.0,0.0,0.0,0.0,0.0,0.0,0.0,0.0,0.0,0.0,0.0,0.0,0.0,0.0,0.0,0.0,0.0,0.0,0.0,0.0,0.0,0.0,0.0,0.0,0.0,0.0,0.0,0.0,0.0,0.0,0.0,0.0,0.0,0.0,0.0,0.0,0.0,0.0,0.0,0.0,0.0,0.0,0.0,0.0,0.0,0.0,0.0,0.0,0.0,0.0,0.0,0.0,0.0,0.0,0.0,0.0,0.0,0.0,0.0,0.0,0.0,0.0,0.0,0.0,0.0,0.0,0.0,0.0,0.0,0.0,0.0,0.0,0.0,0.0,0.0,0.0,0.0,0.0,0.0,0.7385,0.6176,0.4216,0.2264,0.0807,0.005,0.0,0.0,0.0,-0.0555,0.0,0.0,0.0,0.0,0.0,0.0,0.0,0.0,0.0,0.0,0.0,0.0,0.0,0.0,0.0,0.0,0.0,0.0,0.0,0.0,0.0,0.0,0.0,0.0,0.0,0.0,0.0,0.0,0.0,0.0,0.0,0.0,0.0,0.0,0.0,0.0,0.0,0.0,0.0,0.0,0.0,0.0,0.0,0.0,0.0,0.0,0.0,0.0,0.0,0.0,0.0,0.0,0.0,0.0,0.0,0.0,0.0,0.0,0.0,0.0,0.0,0.0,0.0,0.0,0.0,0.0,0.0,0.0,0.0,0.0,0.0,0.0,0.0,0.0,0.0,0.0,0.0,0.0,0.0,0.0,0.0,0.0,0.0,0.0,0.0,0.0,0.0,0.0,0.0,0.0,0.0,0.0,0.0,0.0,0.0,0.0,0.0,0.0,0.0,0.0,0.0,0.0,0.6833,0.5625,0.4568,0.2966,0.1561,0.0555,0.0202,0.0,0.0,0.0,0.0,0.0,0.0,0.0,0.0,0.0,0.0,0.0,0.0,0.0,0.0,0.0,0.0,0.0,0.0,0.0,0.0,0.0,0.0,0.0,0.0,0.0,0.0,0.0,0.0,0.0,0.0,0.0,0.0,0.0,0.0,0.0,0.0,0.0,0.0,0.0,0.0,0.0,0.0,0.0,0.0,0.0,0.0,0.0,0.0,0.0,0.0,0.0,0.0,0.0,0.0,0.0,0.0,0.0,0.0,0.0,0.0,0.0,0.0,0.0,0.0,0.0,0.0,0.0,0.0,0.0,0.0,0.0,0.0,0.0,0.0,0.0,0.0,0.0,0.0,0.0,0.0,0.0,0.0,0.0,0.0,0.0,0.0,0.0,0.0,0.0,0.0,0.0,0.0,0.0,0.0,0.0,0.0,0.0,0.0,0.0,0.0,0.0,0.0,0.0,0.0,0.0,0.6833,0.5979,0.5879,0.3568,0.1962,0.1862,0.0706,0.0,0.0,0.0,0.0,0.0,0.0,0.0,0.0,0.0,0.0,0.0,0.0,0.0,0.0,0.0,0.0,0.0,0.0,0.0,0.0,0.0,0.0,0.0,0.0,0.0,0.0,0.0,0.0,0.0,0.0,0.0,0.0,0.0,0.0,0.0,0.0,0.0,0.0,0.0,0.0,0.0,0.0,0.0,0.0,0.0,0.0,0.0,0.0,0.0,0.0,0.0,0.0,0.0,0.0,0.0,0.0,0.0,0.0,0.0,0.0,0.0,0.0,0.0,0.0,0.0,0.0,0.0,0.0,0.0,0.0,0.0,0.0,0.0,0.0,0.0,0.0,0.0,0.0,0.0,0.0,0.0,0.0,0.0,0.0,0.0,0.0,0.0,0.0,0.0,0.0,0.0,0.0,0.0,0.0,0.0,0.0,0.0,0.0,0.0,0.0,0.0,0.0,0.0,0.0,0.0,0.7537,0.6933,0.6079,0.5074,0.4169,0.3316,0.2765,0.2113,0.131,0.0,0.0,0.0,0.0,0.0,0.0,0.0,0.0,0.0,0.0,0.0,0.0,0.0,0.0,0.0,0.0,0.0,0.0,0.0,0.0,0.0,0.0,0.0,0.0,0.0,0.0,0.0,0.0,0.0,0.0,0.0,0.0,0.0,0.0,0.0,0.0,0.0,0.0,0.0,0.0,0.0,0.0,0.0,0.0,0.0,0.0,0.0,0.0,0.0,0.0,0.0,0.0,0.0,0.0,0.0,0.0,0.0,0.0,0.0,0.0,0.0,0.0,0.0,0.0,0.0,0.0,0.0,0.0,0.0,0.0,0.0,0.0,0.0,0.0,0.0,0.0,0.0,0.0,0.0,0.0,0.0,0.0,0.0,0.0,0.0,0.0,0.0,0.0,0.0,0.0,0.0,0.0,0.0,0.0,0.0,0.0,0.0,0.0,0.0,0.0,0.0,0.0,0.7988,0.7988,0.7637,0.6734,0.6229,0.5627,0.4718,0.4268,0.3416,0.2063,0.0,0.0,0.0,0.0,0.0,0.0,0.0,0.0,0.0,0.0,0.0,0.0,0.0,0.0,0.0,0.0,0.0,0.0,0.0,0.0,0.0,0.0,0.0,0.0,0.0,0.0,0.0,0.0,0.0,0.0,0.0,0.0,0.0,0.0,0.0,0.0,0.0,0.0,0.0,0.0,0.0,0.0,0.0,0.0,0.0,0.0,0.0,0.0,0.0,0.0,0.0,0.0,0.0,0.0,0.0,0.0,0.0,0.0,0.0,0.0,0.0,0.0,0.0,0.0,0.0,0.0,0.0,0.0,0.0,0.0,0.0,0.0,0.0,0.0,0.0,0.0,0.0,0.0,0.0,0.0,0.0,0.0,0.0,0.0,0.0,0.0,0.0,0.0,0.0,0.0,0.0,0.0,0.0,0.0,0.0,0.0,0.0,0.0,0.0,0.0,0.0,0.0,0.7988,0.7988,0.8041,0.7988,0.6833,0.6029,0.6029,0.482,0.3465,0.0,0.0,0.0,0.0,0.0,0.0,0.0,0.0,0.0,0.0,0.0,0.0,0.0,0.0,0.0,0.0,0.0,0.0,0.0,0.0,0.0,0.0,0.0,0.0,0.0,0.0,0.0,0.0,0.0,0.0,0.0,0.0,0.0,0.0,0.0,0.0,0.0,0.0,0.0,0.0,0.0,0.0,0.0,0.0,0.0,0.0,0.0,0.0,0.0,0.0,0.0,0.0,0.0,0.0,0.0,0.0,0.0,0.0,0.0,0.0,0.0,0.0,0.0,0.0,0.0,0.0,0.0,0.0,0.0,0.0,0.0,0.0,0.0,0.0,0.0,0.0,0.0,0.0,0.0,0.0,0.0,0.0,0.0,0.0,0.0,0.0,0.0,0.0,0.0,0.0,0.0,0.0,0.0,0.0,0.0,0.0,0.0,0.0,0.0,0.0,0.0,0.0,0.0,0.8233,0.8821,0.9069,0.8088,0.7637,0.7385,0.7385,0.703,0.6226,0.4922,0.0,0.0,0.0,0.0,0.0,0.0,0.0,0.0,0.0,0.0,0.0,0.0,0.0,0.0,0.0,0.0,0.0,0.0,0.0,0.0,0.0,0.0,0.0,0.0,0.0,0.0,0.0,0.0,0.0,0.0,0.0,0.0,0.0,0.0,0.0,0.0,0.0,0.0,0.0,0.0,0.0,0.0,0.0,0.0,0.0,0.0,0.0,0.0,0.0,0.0,0.0,0.0,0.0,0.0,0.0,0.0,0.0,0.0,0.0,0.0,0.0,0.0,0.0,0.0,0.0,0.0,0.0,0.0,0.0,0.0,0.0,0.0,0.0,0.0,0.0,0.0,0.0,0.0,0.0,0.0,0.0,0.0,0.0,0.0,0.0,0.0,0.0,0.0,0.0,0.0,0.0,0.0,0.0,0.0,0.0,0.0,0.0,0.0,0.0,0.0,0.0,0.0,0.9752,1.0243,1.0243,0.892,0.8775,0.8577,0.8038,0.7988,0.7437,0.6079,0.0,0.0,0.0,0.0,0.0,0.0,0.0,0.0,0.0,0.0,0.0,0.0,0.0,0.0,0.0,0.0,0.0,0.0,0.0,0.0,0.0,0.0,0.0,0.0,0.0,0.0,0.0,0.0,0.0,0.0,0.0,0.0,0.0,0.0,0.0,0.0,0.0,0.0,0.0,0.0,0.0,0.0,0.0,0.0,0.0,0.0,0.0,0.0,0.0,0.0,0.0,0.0,0.0,0.0,0.0,0.0,0.0,0.0,0.0,0.0,0.0,0.0,0.0,0.0,0.0,0.0,0.0,0.0,0.0,0.0,0.0,0.0,0.0,0.0,0.0,0.0,0.0,0.0,0.0,0.0,0.0,0.0,0.0,0.0,0.0,0.0,0.0,0.0,0.0,0.0,0.0,0.0,0.0,0.0,0.0,0.0,0.0,0.0,0.0,0.0,0.0,0.0,1.1945,1.1994,1.1604,1.0293,1.0194,0.9706,0.8482,0.8237,0.7683,0.6429,0.0,0.0,0.0,0.0,0.0,0.0,0.0,0.0,0.0,0.0,0.0,0.0,0.0,0.0,0.0,0.0,0.0,0.0,0.0,0.0,0.0,0.0,0.0,0.0,0.0,0.0,0.0,0.0,0.0,0.0,0.0,0.0,0.0,0.0,0.0,0.0,0.0,0.0,0.0,0.0,0.0,0.0,0.0,0.0,0.0,0.0,0.0,0.0,0.0,0.0,0.0,0.0,0.0,0.0,0.0,0.0,0.0,0.0,0.0,0.0,1.7373,0.0,0.0,0.0,0.0,0.0,0.0,0.0,0.0,0.0,0.0,0.0,0.0,0.0,0.0,0.0,0.0,0.0,0.0,0.0,0.0,0.0,0.0,0.0,0.0,0.0,0.0,0.0,0.0,0.0,0.0,0.0,0.0,0.0,0.0,0.0,0.0,0.0,0.0,0.0,0.0,0.0,1.2139,1.2813,1.2958,1.1653,1.1512,1.1365,1.1068,1.0145,0.9456,0.9156,0.8177,0.0,0.0,0.0,0.0,0.0,0.0,0.0,0.0,0.0,0.0,0.0,0.0,0.0,0.0,0.0,0.0,0.0,0.0,0.0,0.0,0.0,0.0,0.0,0.0,0.0,0.0,0.0,0.0,0.0,0.0,0.0,0.0,0.0,0.0,0.0,0.0,0.0,0.0,0.0,0.0,0.0,0.0,0.0,0.0,0.0,0.0,0.0,0.0,0.0,0.0,0.0,0.0,0.0,0.0,0.0,0.0,0.0,0.0,0.0,0.0,1.8303,0.0,0.0,0.0,0.0,0.0,0.0,0.0,0.0,0.0,0.0,0.0,0.0,0.0,0.0,0.0,0.0,0.0,0.0,0.0,0.0,0.0,0.0,0.0,0.0,0.0,0.0,0.0,0.0,0.0,0.0,0.0,0.0,0.0,0.0,0.0,0.0,0.0,0.0,0.0,0.0,1.3932,1.437,1.4316,1.3006,1.2861,1.2624,1.1945,1.1312,1.0925,1.0925,1.0239,0.0,0.0,0.0,0.0,0.0,0.0,0.0,0.0,0.0,0.0,0.0,0.0,0.0,0.0,0.0,0.0,0.0,0.0,0.0,0.0,0.0,0.0,0.0,0.0,0.0,0.0,0.0,0.0,0.0,0.0,0.0,0.0,0.0,0.0,0.0,0.0,0.0,0.0,0.0,0.0,0.0,0.0,0.0,0.0,0.0,0.0,0.0,0.0,0.0,0.0,0.0,0.0,0.0,2.2087,2.2049,2.1741,2.1741,2.2,2.2355,2.1209,2.034,1.9716,1.8503,0.0,0.0,0.0,0.0,0.0,0.0,0.0,0.0,0.0,0.0,0.0,0.0,0.0,0.0,0.0,0.0,0.0,0.0,0.0,0.0,0.0,0.0,0.0,0.0,2.089,2.1346,0.0,0.0,0.0,0.0,0.0,0.0,0.0,0.0,0.0,0.0,0.0,0.0,1.6109,1.592,1.5391,1.4364,1.4214,1.3782,1.2673,1.2382,1.2237,1.2237,1.2042,1.1896,0.0,0.0,0.0,0.0,0.0,0.0,0.0,0.0,0.0,0.0,0.0,0.0,0.0,0.0,0.0,0.0,0.0,0.0,0.0,0.0,0.0,0.0,0.0,0.0,0.0,0.0,0.0,0.0,0.0,0.0,0.0,0.0,2.2188,2.2194,0.0,0.0,0.0,0.0,0.0,0.0,0.0,0.0,0.0,0.0,0.0,0.0,0.0,2.1627,2.1627,2.236,2.2775,2.2819,2.3635,2.402,2.3972,2.3972,2.4007,2.405,2.3902,0.0,2.098,1.9761,0.0,0.0,0.0,0.0,0.0,0.0,0.0,0.0,0.0,0.0,0.0,0.0,0.0,0.0,0.0,0.0,0.0,0.0,0.0,0.0,0.0,0.0,2.2818,2.2643,2.2775,2.2818,0.0,2.0998,1.9443,1.9314,1.9268,0.0,0.0,0.0,0.0,0.0,0.0,0.0,1.7318,1.648,1.573,1.5581,1.554,1.5486,1.5296,1.4268,1.3632,1.3632,1.2528,1.1896,1.1896,1.175,0.0,0.0,0.0,0.0,0.0,0.0,0.0,0.0,0.0,0.0,0.0,0.0,0.0,0.0,0.0,0.0,0.0,0.0,0.0,0.0,0.0,0.0,0.0,0.0,0.0,0.0,0.0,0.0,0.0,2.4722,2.4489,2.3626,2.372,2.3617,0.0,0.0,0.0,0.0,0.0,0.0,0.0,0.0,0.0,2.3338,2.3502,2.3593,2.3593,2.397,2.4296,2.4532,2.4948,2.5109,2.5109,2.5109,2.5019,2.4785,2.4785,2.4137,2.2939,2.1515,2.0595,2.0025,0.0,0.0,0.0,0.0,1.8726,1.8864,2.0079,2.0522,0.0,2.0522,0.0,0.0,0.0,0.0,0.0,0.0,0.0,0.0,0.0,0.0,2.3091,2.3091,2.3091,2.3091,2.3091,2.2271,2.1311,0.0,2.0522,1.9898,1.8002,0.0,0.0,0.0,0.0,1.8079,1.8634,1.8218,1.7623,1.6943,1.685,1.6574,1.5872,1.5289,1.4949,1.4949,1.4418,1.4082,1.4082,1.3397,1.3006,0.0,0.0,0.0,0.0,0.0,0.0,0.0,0.0,0.0,0.0,0.0,0.0,0.0,0.0,0.0,0.0,0.0,0.0,0.0,0.0,0.0,0.0,0.0,0.0,0.0,0.0,0.0,0.0,2.5615,2.5684,2.4258,2.5157,2.554,0.0,0.0,0.0,0.0,0.0,0.0,2.5343,2.5567,2.5527,2.5135,2.5176,2.5244,2.5244,2.5244,2.541,2.5693,2.5693,2.5693,2.5693,2.5693,2.5557,2.5244,2.5244,2.5059,2.4614,2.3186,2.2456,2.2041,2.0661,1.9958,1.9666,1.9886,1.9943,2.0124,2.1346,2.1756,2.1756,2.1756,0.0,2.1756,2.1756,0.0,0.0,0.0,0.0,2.3091,2.3091,2.3091,2.3091,2.3091,2.3091,2.3091,2.3091,2.3091,2.2818,0.0,2.1756,2.1078,1.9001,0.0,0.0,0.0,0.0,1.9625,1.9898,1.967,1.9177,1.828,1.8141,1.777,1.6842,1.6473,1.6298,1.6298,1.5967,1.5784,1.5784,1.4902,1.4411,1.4411,0.0,0.0,0.0,0.0,0.0,0.0,0.0,0.0,0.0,0.0,0.0,0.0,0.0,0.0,0.0,0.0,0.0,0.0,0.0,0.0,0.0,0.0,0.0,0.0,0.0,0.0,0.0,0.0,0.0,2.3281,2.4506,0.0,0.0,0.0,0.0,2.5116,2.5459,2.5304,2.4521,2.5235,2.5527,2.5135,2.5478,2.5654,2.5654,2.5654,2.5664,2.5693,2.5693,2.5693,2.5693,2.5693,2.5674,2.5654,2.5654,2.5645,2.5557,2.4643,2.3625,2.2532,2.205,2.1142,2.0137,2.0933,2.1203,2.1391,2.2589,2.3003,2.3003,2.3003,2.3003,2.3003,2.3003,2.3047,0.0,0.0,2.3091,2.3091,2.3091,2.3091,2.3091,2.3091,2.3091,2.3091,2.3091,2.3091,2.3091,0.0,2.3003,2.2633,2.1346,0.0,2.1203,2.1114,2.0215,1.9898,2.1069,2.0215,1.9497,1.9405,1.9405,1.936,1.9306,1.8272,1.7598,1.7598,1.648,1.5784,1.5784,1.573,1.5683,1.5683,1.5635,0.0,0.0,0.0,0.0,0.0,0.0,0.0,0.0,0.0,0.0,0.0,0.0,0.0,0.0,0.0,0.0,0.0,0.0,0.0,0.0,0.0,0.0,0.0,0.0,0.0,0.0,0.0,0.0,2.6292,2.7066,0.0,2.6842,2.6913,2.7138,2.7449,2.7632,2.7661,2.7607,2.7165,2.6863,2.6699,2.6069,2.5693,2.5693,2.5693,2.5693,2.5693,2.5693,2.5693,2.5693,2.5693,2.5693,2.5693,2.5693,2.5693,2.5664,2.5352,2.485,2.4164,2.3699,2.3288,2.2852,2.2907,2.29,2.2907,2.3057,2.3091,2.3091,2.3091,2.3091,2.3091,2.3091,2.3091,2.3091,2.3091,2.3091,2.3091,2.3091,2.3091,2.3091,2.3091,2.3091,2.3091,2.3091,2.3091,2.3091,2.3091,2.3091,2.2721,2.1525,2.1933,2.2164,2.1436,2.1578,2.1952,2.2403,2.2085,2.1543,2.0755,2.0666,2.035,1.9588,1.9093,1.8864,1.8864,1.8442,1.8164,1.8164,1.8164,1.8164,1.8164,1.8164,1.7809,0.0,0.0,0.0,0.0,0.0,0.0,0.0,0.0,0.0,0.0,0.0,0.0,0.0,0.0,0.0,0.0,0.0,0.0,0.0,0.0,0.0,0.0,0.0,0.0,0.0,2.8175,2.8544,2.7777,2.861,2.8967,2.8415,2.8329,2.8531,2.8993,2.9027,2.9116,2.9385,2.8634,2.8226,2.8226,2.7389,2.6935,2.6935,2.6514,2.6342,2.6342,2.6342,2.6342,2.6332,2.6754,2.6935,2.6935,2.6935,2.6935,2.6935,2.6935,2.6798,2.6423,2.5122,2.4639,2.458,2.416,2.3906,2.3721,2.3247,2.3091,2.3091,2.3091,2.3343,2.3681,2.3681,2.393,2.4264,2.4264,2.3973,2.3681,2.3681,2.3387,2.3091,2.3091,2.3091,2.3091,2.3091,2.3091,2.3091,2.3091,2.3091,2.2862,2.2031,2.2589,2.2818,2.2031,2.2589,2.3091,2.3091,2.3091,2.2775,2.1987,2.1889,2.1578,2.0764,2.035,2.0124,2.0124,1.9716,1.9497,1.9497,1.9497,1.9314,1.891,1.891,1.868,1.8326,0.0,0.0,0.0,0.0,0.0,0.0,0.0,0.0,0.0,0.0,0.0,0.0,0.0,0.0,0.0,0.0,0.0,0.0,0.0,0.0,0.0,0.0,0.0,2.6917,2.7976,2.8592,2.7583,2.8876,2.9605,2.8979,2.8936,2.9083,2.951,2.9498,2.9498,2.9498,2.9498,2.9453,2.9453,2.9407,2.9407,2.9407,2.8226,2.7683,2.7683,2.7683,2.7683,2.7683,2.8866,2.9407,2.9407,2.9407,2.9407,2.9407,2.9407,2.9407,2.9122,2.6349,2.523,2.5171,2.4729,2.4251,2.3855,2.3389,2.3232,2.3222,2.3222,2.3963,2.483,2.483,2.563,2.6524,2.6524,2.5714,2.483,2.483,2.4049,2.3222,2.3222,2.3222,2.3222,2.3178,2.3135,2.3135,2.3135,2.3135,2.3135,2.3101,2.3091,2.3091,2.3091,2.3091,0.0,2.3091,2.3091,2.3091,2.3091,2.3091,2.3091,2.3091,2.2031,2.1346,2.1346,2.026,1.9633,1.9633,1.9633,1.9039,1.787,1.7824,1.8365,1.9542,0.0,0.0,0.0,0.0,0.0,0.0,0.0,0.0,0.0,0.0,0.0,0.0,0.0,0.0,0.0,0.0,0.0,0.0,0.0,0.0,0.0,3.0394,3.0171,2.9548,2.9831,3.0294,3.0795,3.1238,3.1642,3.1883,3.1944,3.1949,3.2052,3.2064,3.2064,3.2064,3.1223,3.0721,3.0721,2.9863,2.9407,2.9407,2.9085,2.8912,2.8912,2.8912,2.8912,2.8912,2.9269,2.9407,2.9407,2.9407,2.9407,2.9407,2.9407,2.9407,2.9304,2.8517,2.8242,2.8188,2.7768,2.7062,2.6335,2.6205,2.5891,2.5557,2.5557,2.5766,2.6016,2.6016,2.6265,2.6524,2.6524,2.6265,2.6016,2.6016,2.5808,2.5557,2.5557,2.5557,2.5347,2.45,2.4339,2.4339,2.4339,2.4339,2.4092,2.3266,2.3091,2.3091,2.3091,2.3091,0.0,2.3091,2.3091,2.3091,2.3091,2.3091,2.3091,2.3091,2.2818,2.2633,2.2633,2.2271,2.2094,2.2094,2.2094,2.1952,2.1641,2.0764,2.0449,0.0,0.0,0.0,0.0,0.0,0.0,0.0,0.0,0.0,0.0,0.0,0.0,0.0,0.0,0.0,0.0,0.0,0.0,0.0,0.0,0.0,0.0,3.105,3.1022,3.126,3.1286,3.1512,3.2139,3.2428,3.2704,3.3086,3.3124,3.3124,3.3124,3.3124,3.3124,3.3124,3.2382,3.2008,3.2008,3.1323,3.0956,3.0956,3.0406,3.0135,3.0135,3.0135,3.0135,3.0169,3.0687,3.0956,0.0,3.0956,3.0956,3.0956,3.0956,3.0956,0.0,0.0,0.0,0.0,0.0,2.8274,2.7523,2.7363,2.6928,2.6524,2.6524,2.6801,2.7168,2.7168,2.7504,2.7879,2.7879,2.7545,2.7168,2.7168,2.6842,2.6524,2.6524,2.6524,2.6307,2.5683,2.5504,2.5504,2.5504,2.5504,0.0,2.4648,2.452,2.452,2.452,2.4135,2.38,2.38,2.3387,2.3091,2.3091,2.3091,2.3091,2.3091,2.3091,0.0,0.0,0.0,2.3091,2.3091,2.2633,0.0,0.0,0.0,2.1534,2.205,0.0,0.0,0.0,1.9951,1.9761,0.0,0.0,0.0,0.0,0.0,0.0,0.0,0.0,0.0,0.0,0.0,0.0,0.0,0.0,0.0,0.0,3.207,3.199,3.2424,3.2458,3.2428,3.2315,3.2767,3.3124,3.3124,3.3124,3.3124,3.3124,3.3124,3.3124,3.3124,0.0,0.0,0.0,0.0,3.3124,3.3124,3.1965,3.14,3.14,3.14,3.14,3.1456,3.2556,3.3124,3.3124,3.3124,3.3124,3.3124,3.3124,3.3124,3.2884,3.0687,2.9818,2.9761,2.9419,2.8885,2.833,2.7926,0.0,0.0,2.6876,2.7533,2.8307,2.8307,2.8988,2.9792,2.9792,2.9067,2.8307,2.8307,2.7585,2.6894,2.6894,2.6894,2.6853,2.673,2.6678,2.6678,2.6678,2.6678,2.6719,2.6842,2.6689,2.6524,2.6524,2.563,2.4999,2.4999,2.4092,2.3474,2.3474,0.0,0.0,2.3474,2.3474,2.3474,2.3474,2.3343,2.3299,2.3299,2.2164,2.2031,2.3091,2.2031,2.2031,2.3091,2.3091,2.3091,2.3047,2.0908,2.0486,0.0,0.0,0.0,0.0,0.0,0.0,0.0,0.0,0.0,0.0,0.0,0.0,0.0,0.0,0.0,3.4563,3.4669,3.4524,3.4262,3.4217,3.3897,3.3033,3.3048,3.3124,3.3124,3.3124,3.3124,3.3124,3.3124,3.3124,3.3124,3.3124,3.3124,3.3124,3.3124,3.3124,3.3124,3.284,3.2742,3.2742,0.0,0.0,3.2754,3.2982,3.3124,3.3124,3.3124,3.3124,3.3124,3.3124,3.3124,3.3068,3.2568,3.2382,3.237,3.2315,3.1878,3.1311,3.077,3.0253,2.9748,2.9305,2.9287,2.9495,2.9495,2.9624,0.0,2.9792,2.9624,2.9495,2.9495,2.9326,2.917,2.917,2.917,2.891,2.7976,2.7804,2.7804,2.7804,2.7804,2.8068,2.9,2.7678,2.6524,2.6524,2.6307,2.6182,2.6182,2.5975,2.585,2.585,2.585,2.585,2.585,2.585,2.585,2.585,2.4967,2.4457,2.4457,2.3357,2.2862,2.3091,2.2862,2.2862,2.3091,2.3091,2.3091,2.3101,2.2643,2.2545,0.0,0.0,0.0,0.0,0.0,0.0,0.0,0.0,0.0,0.0,0.0,3.3362,3.4135,0.0,3.4849,3.5916,3.5924,3.5723,3.5466,3.544,3.4856,3.3283,3.3124,3.3124,3.3124,3.3124,3.3124,3.3124,3.3124,3.3124,3.3124,3.3124,3.3124,3.3124,3.3124,3.3124,3.3124,3.3124,3.3124,3.3124,3.3124,3.3124,3.3124,3.3124,3.3124,3.3124,3.3124,3.3124,3.3124,3.3124,3.3124,3.3124,3.3124,3.3124,3.3124,3.3124,3.2717,3.2127,3.1587,3.1047,3.052,2.9967,2.9792,2.9792,2.9792,2.9792,2.9792,2.9792,2.9792,2.9792,2.9792,2.9792,2.9792,2.9792,2.9792,2.9624,2.9067,2.8937,2.8937,2.8937,2.8937,2.9145,2.9702,2.8882,2.8131,2.8131,2.7666,2.7279,2.7279,2.6842,2.6524,2.6524,2.6524,2.6524,2.6524,2.6524,2.6524,2.6524,2.5975,2.563,2.563,2.5094,2.4808,2.4808,2.4808,2.4808,2.4808,2.4808,2.4808,2.4808,2.4808,2.4178,0.0,0.0,0.0,0.0,0.0,0.0,0.0,3.315,3.3213,3.3326,3.3797,3.4455,3.547,3.5845,3.6259,3.717,3.7025,3.676,3.6526,3.6526,3.5814,3.394,3.3513,3.3313,3.3124,3.3124,3.3124,3.3124,3.3124,3.3124,3.3124,3.3124,3.3124,3.3124,3.3124,3.3124,3.3124,3.3124,3.3124,3.3124,3.3124,3.3124,3.3124,3.3124,3.3124,3.3124,3.3124,3.3124,3.3124,3.3124,3.3124,3.3124,3.3124,3.3124,3.3124,3.3124,3.278,3.229,3.1625,3.1122,3.0658,3.0005,2.9792,2.9792,2.9792,2.9792,2.9792,2.9792,2.9792,2.9792,2.9792,2.9792,2.9792,2.9792,2.9792,2.9792,2.9792,2.9792,2.9792,2.9792,2.9792,2.9792,2.9792,2.9792,2.9792,2.9792,2.9028,2.8426,2.8426,2.7666,2.7139,2.7139,2.7139,2.7139,2.7139,2.7139,2.7139,2.7139,2.6924,2.6801,2.6801,2.6595,2.6524,2.6524,2.6524,2.6524,2.6524,2.6524,2.6524,2.6524,2.6524,2.5526,3.5557,3.5326,3.5326,3.5213,3.518,3.518,0.0,3.518,3.5344,3.5922,3.6134,3.6554,3.7804,3.8061,3.8288,3.9005,3.9081,3.8694,3.7753,3.7625,3.719,3.6013,3.5047,3.415,3.3197,3.3124,3.3124,3.3124,3.3124,3.3124,3.3124,3.3124,3.3124,3.3124,3.3124,3.3124,3.3124,3.3124,3.3124,3.3124,3.3124,3.3124,3.3124,3.3124,3.3124,3.3124,3.3124,3.3124,3.3124,3.3124,3.3124,3.3124,3.3124,3.3124,3.3124,3.3124,3.3074,3.283,3.1763,3.1348,3.1135,3.0118,2.9792,2.9792,2.9792,2.9792,2.9792,2.9792,2.9792,2.9792,2.9792,2.9792,2.9792,2.9792,2.9792,2.9792,2.9792,2.9792,2.9792,2.9792,2.9792,2.9792,2.9792,2.9792,2.9792,2.9792,2.9702,2.9624,2.9624,2.9495,2.9417,2.9417,2.9417,2.9417,2.9417,2.9417,2.9417,2.9417,2.8478,2.7924,2.7924,2.7005,2.6524,2.6524,2.6524,2.6524,2.6524,2.6524,2.6524,2.6524,2.6524,2.6348,3.6337,3.5831,3.5504,3.5504,3.5504,3.5504,3.5504,3.5804,3.6148,3.6432,3.7075,3.7764,3.8287,3.8721,3.908,3.9328,3.9388,3.9228,3.8782,3.8745,3.8345,3.7252,3.6749,3.5855,3.4191,3.4037,3.3755,3.3154,3.3124,3.3124,3.3124,3.3124,3.3124,3.3124,3.3124,3.3124,3.3124,3.3124,3.3124,3.3124,3.3124,3.3124,3.3124,3.3124,3.3124,3.3124,3.3124,3.3124,3.3124,3.3124,3.3124,3.3124,3.3124,3.3124,3.3124,3.3124,3.3124,3.296,3.1788,3.1386,3.121,3.0143,2.9792,2.9792,2.9792,2.9792,2.9792,2.9792,2.9792,2.9792,2.9792,2.9792,2.9792,2.9792,2.9792,2.9792,2.9792,2.9792,2.9792,2.9792,2.9792,2.9792,2.9792,2.9792,2.9792,2.9792,2.9792,2.9792,2.9792,2.9792,2.9792,2.9792,2.9792,2.9792,2.9792,2.9792,2.9792,2.9792,2.9365,2.9106,2.9106,2.8661,2.8422,2.8422,2.8422,2.8422,2.8422,2.8422,2.8422,2.8422,2.8422,2.8422,3.6813,3.6228,3.575,3.5554,3.5504,3.5504,3.5504,3.6013,3.6537,3.6701,3.7629,3.8452,3.8631,3.908,3.9388,3.9388,3.9388,3.9388,3.9388,3.9388,3.9104,3.8345,3.8234,3.751,3.5735,3.5292,3.4774,3.4024,3.394,3.394,3.394,3.394,3.394,3.394,3.394,3.394,3.394,3.367,3.3556,3.3556,3.324,3.3124,3.3124,3.3124,3.3124,3.3124,3.3398,3.3556,3.3556,3.3827,3.3784,3.3556,3.3556,3.3356,3.3124,3.3124,3.2968,3.2704,3.1725,3.1298,3.1022,3.0093,2.9792,2.9792,2.9792,2.9792,2.9792,2.9792,2.9792,2.9792,2.9792,2.9792,2.9792,2.9792,2.9792,2.9792,2.9792,2.9792,2.9792,2.9792,2.9792,2.9792,2.9792,2.9792,2.9792,2.9792,2.9792,2.9792,2.9792,2.9792,2.9792,2.9792,2.9792,2.9792,2.9792,2.9792,2.9792,2.9792,2.9792,2.9792,2.9792,2.9792,2.9792,2.9792,2.9792,2.9792,2.9792,2.9792,2.9792,2.9792,2.9792,2.9792,3.6813,3.6584,3.6384,3.5668,3.5504,3.5504,3.5504,3.6013,3.6656,3.7255,3.7913,3.8601,3.926,3.9373,3.9388,3.9388,3.9388,3.9388,3.9388,3.9388,3.9388,3.9337,3.9337,3.8907,3.7791,3.6774,3.6119,3.6119,3.6132,3.6132,3.6132,3.6132,3.6132,3.6132,3.6132,3.6132,3.6132,3.5129,3.4664,3.4622,3.3598,3.3124,3.3124,3.3124,3.3124,3.3154,3.4191,3.4664,3.4746,3.5708,3.5547,3.4664,3.4664,3.4037,3.3124,3.3124,3.2717,3.2152,3.1587,3.106,3.0545,2.998,2.9792,2.9792,2.9792,2.9792,2.9792,2.9792,2.9792,2.9792,2.9792,2.9792,2.9792,2.9792,2.9792,2.9792,2.9792,2.9792,2.9792,2.9792,2.9792,2.9792,2.9792,2.9792,2.9792,2.9792,2.9792,2.9792,2.9792,2.9792,2.9792,2.9792,2.9792,2.9792,2.9792,2.9792,2.9792,2.9792,2.9792,2.9792,2.9792,2.9792,2.9792,2.9792,2.9792,2.9792,2.9792,2.9792,2.9792,2.9792,2.9792,2.9792,3.8185,3.7774,3.7338,3.7086,3.6615,3.6228,3.6228,3.6678,3.715,3.736,3.8302,3.914,3.9379,3.9388,3.9388,3.9388,3.9388,3.9388,3.9388,3.9388,3.9388,3.9388,3.9388,3.9265,3.8907,3.7904,3.6982,3.6237,3.6198,3.6198,3.6198,3.6198,3.6198,3.6198,3.6198,3.6198,3.6198,3.5854,3.5708,3.5708,3.5346,3.5156,3.5156,3.5156,3.5156,3.5197,3.5547,3.5708,3.5694,3.6053,3.6013,3.5708,3.5708,3.5467,3.5103,3.4701,3.4179,3.3539,3.262,3.2384,3.2248,3.1091,3.0733,3.0733,3.0733,3.0733,3.0871,3.1476,3.1659,3.1659,3.1659,3.1659,3.1659,3.1659,3.1659,3.1659,3.1659,3.1659,3.1659,3.1659,3.1659,3.1659,3.1659,3.1659,3.1659,3.1659,3.0608,2.9792,2.9792,2.9792,2.9792,2.9792,2.9792,2.9792,2.9792,2.9792,2.9792,2.9792,2.9792,2.9792,2.9792,2.9792,2.9792,2.9792,2.9792,2.9792,2.9792,2.9792,2.9792,2.9792,2.9792,2.9792,3.8962,3.8553,3.8149,3.7879,3.7427,3.7024,3.7024,3.7669,3.8302,3.8302,3.9135,3.9864,3.9864,3.961,3.9388,3.9388,3.9388,3.9388,3.9388,3.9388,3.9388,3.9388,3.9388,3.9388,3.9388,3.8782,3.8107,3.7405,3.7329,3.7329,3.7329,3.7329,3.7329,3.7329,3.7329,3.7329,3.7329,3.6968,3.6565,3.6198,3.6198,3.6198,3.6198,3.6198,3.6198,3.6237,3.6604,3.6774,3.6813,3.7214,3.7123,3.6774,3.6774,3.6526,3.6129,3.5524,3.5145,3.4762,3.3452,3.3054,3.2973,3.2009,3.1706,3.1706,3.1706,3.1706,3.1815,3.2429,3.2593,3.2593,3.2593,3.2593,3.2593,3.2593,3.2593,3.2593,3.2593,3.2593,3.2593,3.2593,3.2593,3.2593,3.2593,3.2593,3.2593,3.2593,3.1586,3.0809,3.0809,3.0809,3.0809,3.0809,3.0809,3.0809,3.0809,3.0809,3.0809,3.0809,3.0495,3.0317,3.0317,2.9972,2.9792,2.9792,2.9792,2.9972,3.0317,3.0317,3.0457,3.0809,3.0809,3.0809,3.9166,3.8962,3.8799,3.8092,3.7908,3.7863,3.7863,3.8891,3.9838,3.987,4.0306,4.0644,4.0675,3.999,3.9388,3.9388,3.9388,3.9388,3.9388,3.9388,3.9388,3.9388,3.9388,3.9388,3.9388,3.9388,3.9388,3.9388,0.0,3.9388,3.9388,3.9388,3.9388,3.9388,3.9388,3.9388,3.9388,3.8383,3.7381,3.6355,3.6355,3.6355,3.6355,3.6355,3.6355,3.6408,3.742,3.7866,3.7956,3.898,3.8782,3.7866,3.7838,3.721,3.6244,3.5595,3.5615,3.5705,3.4072,3.3149,3.2749,3.2713,3.2664,3.2664,3.2664,3.2664,3.2664,3.2749,3.2749,3.2749,3.2749,3.2749,3.2749,3.2749,3.2749,3.2749,3.2749,3.2749,3.2749,3.2749,3.2749,3.2749,3.2749,3.2749,3.2749,3.2749,3.2749,3.2713,3.2593,3.2593,3.2593,3.2593,3.2593,3.2593,3.2593,3.2593,3.2593,3.2593,3.1742,3.1278,3.1278,3.0419,2.9934,2.9934,2.9934,3.0381,3.1278,3.1278,3.1742,3.2593,3.2593,3.2593,3.9833,3.9782,3.9756,3.9558,3.9076,3.8635,3.8635,3.8856,3.9248,3.9774,3.9879,4.0034,4.0597,3.999,3.9388,3.9388,3.9388,3.9388,3.9388,3.9388,3.9388,3.9388,3.9388,3.9388,3.9388,3.9388,3.9388,3.9388,3.9388,3.9388,3.9388,3.9388,3.9388,3.9388,3.9388,3.9388,3.9388,3.9141,3.8855,3.8568,3.8568,3.8568,3.8568,3.8568,3.8568,3.862,3.8855,3.898,3.9017,3.9301,3.9228,3.8936,3.8453,3.8102,3.7688,3.6602,3.6242,3.6191,3.5291,3.4886,3.4624,3.3891,3.3636,3.3636,3.3636,3.3636,3.3808,3.4558,3.4773,3.4773,3.4773,3.4773,3.4773,3.4773,3.4773,3.4773,3.4773,3.4773,3.4773,3.4773,3.4773,3.4773,3.4773,3.4773,3.4773,3.4773,3.4773,3.424,3.2784,3.2593,3.2593,3.2593,3.2593,3.2593,3.2593,3.2593,3.2593,3.2593,3.2393,3.2249,3.2249,3.1997,3.1901,3.1901,3.1901,3.1997,3.2249,3.2249,3.2393,3.2593,3.2593,3.2593,4.0096,4.0096,4.0096,4.0096,3.9756,3.9437,3.9437,3.9638,3.9874,3.9979,4.0099,4.0188,4.0231,3.9792,3.9388,3.9388,3.9388,3.9388,3.9388,3.9388,3.9388,3.9388,3.9388,3.9388,3.9388,3.9388,3.9388,3.9388,3.9388,3.9388,3.9388,3.9388,3.9388,3.9388,3.9388,3.9388,3.9388,3.9388,3.9388,3.9388,3.9388,3.9388,3.9388,3.9388,3.9388,3.9388,0.0,3.9388,3.9388,3.9388,3.9245,3.8931,3.8542,3.8212,3.7838,3.6851,3.6492,3.6387,3.5729,3.5504,3.5407,3.4839,3.4658,3.4658,3.4658,3.4658,3.4773,3.5359,3.5504,3.5504,3.5504,3.5504,3.5504,3.5504,3.5504,3.5504,3.5504,3.5504,3.5504,3.5504,3.5504,3.5504,3.5504,3.5504,3.5504,3.5504,3.5504,3.51,3.4007,3.3871,3.3871,3.3871,3.3871,3.3871,3.3871,3.3871,3.3871,3.3871,3.3463,3.3206,3.3206,3.282,3.2593,3.2593,3.2593,3.282,3.3206,3.3206,3.3429,3.3871,3.3871,3.3871,4.0096,4.0096,4.0096,4.0096,4.0096,4.0096,4.0096,4.0578,4.0912,4.0358,4.0437,4.0467,3.9966,3.9527,3.932,3.9373,3.9388,3.9388,3.9388,3.9388,3.9388,3.9388,3.9388,3.9388,3.9388,3.9388,3.9388,3.9388,3.9388,3.9388,3.9388,3.9388,3.9388,3.9388,3.9388,3.9388,3.9388,3.9388,3.9388,3.9388,3.9388,3.9388,3.9388,3.9388,3.9328,3.929,3.929,0.0,3.9155,3.9155,3.8796,3.8257,3.8167,3.7778,3.721,3.6582,3.6357,3.6267,3.5699,3.5504,3.5504,3.5504,3.5504,3.5504,3.5504,3.5504,3.5504,3.5504,3.5504,3.5504,3.5504,3.5504,3.5504,3.5504,3.5504,3.5504,3.5504,3.5504,3.5504,3.5504,3.5504,3.5504,3.5504,3.5504,3.5504,3.5504,3.5504,3.5504,3.5504,3.5504,3.5504,3.5504,3.5504,3.5504,3.5504,3.5504,3.5504,3.5504,3.4691,3.4211,3.4211,3.3429,3.2996,3.2996,3.2996,3.3394,3.4211,3.4211,3.4658,3.5504,3.5504,3.5504,4.0096,4.0096,4.0096,4.0096,4.0096,4.0096,4.0096,4.0197,4.0417,4.0896,4.0029,3.946,4.0499,3.9524,3.8751,3.9334,3.9388,3.9388,3.9388,3.9388,3.9388,3.9388,3.9388,3.9388,3.9388,3.9388,3.9388,3.9388,3.9388,3.9388,3.9388,3.9388,3.9388,3.9388,3.9388,3.9388,3.9388,3.9388,3.9388,3.9388,3.9388,3.9388,3.9388,3.9388,3.911,3.8571,3.8571,0.0,3.7764,3.7764,3.7689,3.7524,3.7015,3.6746,3.6567,3.5923,3.5669,3.5669,3.5549,3.5504,3.5504,3.5504,3.5504,3.5504,3.5504,3.5504,3.5504,3.5504,3.5504,3.5504,3.5504,3.5504,3.5504,3.5504,3.5504,3.5504,3.5504,3.5504,3.5504,3.5504,3.5504,3.5504,3.5504,3.5504,3.5504,3.5504,3.5504,3.5504,3.5504,3.5504,3.5504,3.5504,3.5504,3.5504,3.5504,3.5504,3.5504,3.5504,3.5359,3.5246,3.5246,3.5067,3.5001,3.5001,3.5001,3.5067,3.5246,3.5246,3.5326,3.5504,3.5504,3.5504,4.0096,4.0096,4.0096,4.0096,4.0096,4.0096,4.0096,4.0096,4.0079,4.001,3.9665,3.9333,3.9203,3.9104,3.899,3.8897,3.9185,3.9388,3.9388,3.9388,3.9388,3.9388,3.9388,3.9388,3.9388,3.9388,3.9388,3.9388,3.9388,3.9388,3.9388,3.9388,3.9388,3.9388,3.9388,3.9388,3.9388,3.9388,3.923,3.8886,3.8886,3.8706,3.8377,3.8377,3.8197,3.7883,3.7883,0.0,3.7404,3.7404,3.7225,3.6896,3.6596,3.6282,3.5938,3.5624,3.5504,3.5504,3.5504,3.5504,3.5504,3.5504,3.5504,3.5504,3.5504,3.5504,3.5504,3.5504,3.5504,3.5504,3.5504,3.5504,3.5504,3.5504,3.5504,3.5504,3.5504,3.5504,3.5504,3.5504,3.5504,3.5504,3.5504,3.5504,3.5504,3.5504,3.5504,3.5504,3.5504,3.5504,3.5504,3.5504,3.5504,3.5504,3.5504,3.5504,3.5504,3.5504,3.5504,3.5504,3.5504,3.5504,3.5504,3.5504,3.5504,3.5504,3.5504,3.5504,3.5504,3.5504,3.5504,3.5504,4.0096,4.0096,4.0096,4.0096,4.0096,4.0096,4.0096,4.0096,3.9927,3.9289,3.9451,3.9361,3.8302,3.8698,3.9059,3.87,3.9109,3.95,3.9651,3.9829,3.997,3.997,3.997,3.997,3.997,3.9809,3.9666,3.9666,3.9517,3.9388,3.9388,3.9388,3.9388,3.9388,3.9388,3.9313,3.92,3.92,3.8856,3.8182,3.8182,3.7913,3.7404,3.7404,3.7345,3.721,3.721,0.0,0.0,3.7,3.6716,3.6282,3.6282,3.5953,3.5504,3.5504,3.5504,3.5537,3.5668,3.5651,3.5537,3.5668,3.5651,3.5504,3.5504,3.5504,3.5504,3.5504,3.5504,3.5504,3.5504,3.5504,3.5504,3.5504,3.5504,3.5504,3.5504,3.5504,3.5504,3.5504,3.5504,3.5504,3.5504,3.5651,3.5668,3.5537,3.5636,3.5733,3.5733,3.5733,3.5733,3.5733,3.5587,3.5504,3.5504,3.5504,3.5504,3.5504,3.5504,3.5504,3.5504,3.5504,3.5504,3.5504,3.5504,3.5587,3.5733,3.5733,3.5814,3.599,3.599,3.599,4.0096,4.0096,4.0096,4.0096,4.0096,4.0096,4.0096,4.0096,4.007,4.0003,3.9461,3.9122,3.9596,3.864,3.8162,3.9298,3.9578,3.9892,4.0511,4.1247,4.1772,4.1772,4.1772,4.1772,4.1772,4.1046,4.0588,4.0588,3.9864,3.9388,3.9388,3.9388,3.9388,3.9388,3.9388,3.9125,3.8497,3.8482,3.8153,3.7494,3.7494,3.7464,3.7404,3.7404,3.7105,3.6567,3.6567,0.0,0.0,3.5684,3.5654,3.5594,3.5594,3.5549,3.5504,3.5504,3.5504,3.5587,3.629,3.6054,3.5619,3.6275,3.607,3.5504,3.5504,3.5504,3.5504,3.5504,3.5504,3.5504,3.5504,3.5504,3.5504,3.5504,3.5504,3.5504,3.5504,3.5504,3.5504,3.5504,3.5504,3.5504,3.5504,3.6054,3.6275,3.5619,3.6054,3.6492,3.6492,3.6492,3.6492,3.6492,3.5894,3.5504,3.5504,3.5504,3.5504,3.5504,3.5504,3.5504,3.5504,3.5504,3.5504,3.5504,3.5504,3.5831,3.6492,3.6492,3.6859,3.7589,3.7589,3.7589,4.0096,4.0096,4.0096,4.0096,4.0096,4.0096,4.0096,4.0096,4.0096,4.0096,3.985,3.9547,3.9341,3.9133,3.9163,3.9676,4.0134,4.0656,4.1367,4.1772,4.1997,4.1997,4.1997,4.1997,4.1997,4.1707,4.1478,4.1478,4.1162,4.0961,4.0961,4.0481,3.9967,3.9535,4.0016,3.9959,3.9259,3.8749,3.8195,3.7508,3.7089,3.6641,3.6252,3.6717,3.6775,3.6562,3.6562,0.0,0.0,3.5668,3.5504,3.5522,3.6006,3.6165,3.6228,3.6707,3.689,3.692,3.7219,3.7145,3.692,3.7219,3.71,3.6799,3.6321,3.6165,3.6259,3.6753,3.689,3.689,3.689,3.6538,3.6054,3.5619,3.5504,3.5619,3.6054,3.6165,3.6321,3.6799,3.689,3.689,3.689,3.7145,3.7219,3.692,3.7145,3.7338,3.7338,3.7338,3.7338,3.7338,3.6631,3.5975,3.5537,3.5926,3.6165,3.6165,3.6631,3.689,3.689,3.689,3.689,3.689,3.689,3.7025,3.7338,3.7338,3.7485,3.7793,3.7793,3.7793,4.0096,4.0096,4.0096,4.0096,4.0096,4.0096,4.0096,4.0096,4.0096,4.0096,4.0096,3.9927,3.9342,3.9445,3.9673,3.9871,4.0508,4.125,4.1975,4.2484,4.2769,4.2769,4.2769,4.2769,4.2769,4.2552,4.23,4.2029,4.1805,4.1662,4.1662,4.1118,4.0541,3.9996,4.0357,4.0225,3.9523,3.8937,3.8325,3.7653,3.7123,3.6638,3.6196,3.6722,3.6934,3.6934,3.6934,0.0,0.0,3.6384,3.6164,3.6227,3.6753,3.6934,3.7024,3.7602,3.7793,3.7835,3.8064,3.7978,3.7835,3.8064,3.7978,3.7719,3.7395,3.7128,3.7054,3.7632,3.7793,3.7793,3.7793,3.7397,3.6828,3.6305,3.6164,3.6337,3.6828,3.6934,3.7114,3.769,3.7793,3.7793,3.7793,3.7978,3.8064,3.7835,3.7978,3.8121,3.8121,3.8121,3.8121,3.8121,3.7629,3.6964,3.6227,3.6677,3.6934,3.6934,3.7485,3.7793,3.7793,3.7793,3.7793,3.7793,3.7793,3.7892,3.8121,3.8121,3.8262,3.8486,3.8486,3.8486,4.0096,4.0096,4.0096,4.0096,4.0096,4.0096,4.0096,4.0096,4.0096,4.0096,4.0096,4.0096,4.007,3.9437,3.9128,3.9796,4.0638,4.1424,4.212,4.3566,4.457,4.457,4.457,4.457,4.457,4.3785,4.2939,4.2062,4.1342,0.0,4.0927,4.0967,4.0961,4.0895,4.0193,3.9491,3.8818,3.8818,3.8467,3.7793,3.7793,3.7793,3.7793,3.7777,3.7793,3.7793,0.0,0.0,0.0,3.7793,3.7793,3.7793,3.7777,3.7793,3.7793,3.7793,3.7793,3.7892,3.8635,3.8414,3.7921,3.8663,3.8386,3.7921,3.8663,3.8358,3.7777,3.7793,3.7793,3.7793,3.7793,3.7777,3.7793,3.7793,3.7793,3.7793,3.7793,3.7793,3.7777,3.7793,3.7793,3.7793,3.7793,3.8414,3.8635,3.7892,3.8414,3.8881,3.8881,3.8881,3.8881,3.8881,3.8881,3.858,3.7835,3.7777,3.7793,3.7793,3.7793,3.7793,3.7793,3.7793,3.7793,3.7793,3.7793,3.8161,3.8881,3.8881,3.9289,4.0087,4.0087,4.0087,4.0096,4.0096,4.0096,4.0096,4.0096,4.0096,4.0096,4.0096,4.0096,4.0096,4.0096,4.0096,4.0096,3.9901,3.994,4.0651,4.1013,4.1617,4.2858,4.3457,4.3978,4.4547,4.4615,4.4615,4.4615,4.4355,4.3846,4.3036,4.2741,4.2409,4.1893,4.1387,4.0851,4.0241,4.0573,4.0402,3.9698,3.9144,3.8753,3.8553,3.8035,3.7793,3.7822,3.833,3.8553,0.0,0.0,0.0,0.0,3.8007,3.7793,3.7835,3.8358,3.8553,3.8608,3.9156,3.9375,3.9428,3.9636,3.9558,3.9428,3.9636,3.9558,3.9428,3.9636,3.9183,3.8679,3.9226,3.9375,3.9252,3.869,3.8553,3.8414,3.7921,3.7793,3.7921,3.8442,3.8553,3.869,3.9279,3.9375,3.9375,3.9375,3.9558,3.9636,3.9428,3.9558,3.9731,3.9731,3.9731,3.9731,3.9731,3.9731,3.9199,3.7908,3.8246,3.8553,3.8553,3.9076,3.9375,3.9375,3.9375,3.9375,3.9375,3.9375,3.948,3.9731,3.9731,3.9833,4.0096,4.0096,4.0096,4.0096,4.0096,4.0096,4.0096,4.0096,4.0096,4.0096,4.0096,4.0096,4.0096,4.0096,4.0096,4.0096,4.0096,4.0265,4.0696,4.1018,4.1525,4.2455,4.2828,4.3267,4.4045,4.4147,4.4147,4.4147,4.3904,4.3521,4.3031,4.2743,4.2371,4.1914,4.1187,4.054,3.9997,4.0514,4.0544,4.0096,3.961,3.9342,3.9342,3.8887,3.8668,3.8679,3.9156,3.9342,0.0,0.0,0.0,0.0,3.8859,3.8668,3.8723,3.9183,3.9342,3.9394,3.9927,4.0096,4.0096,4.0096,4.0096,4.0096,4.0096,4.0096,4.0096,4.0096,3.9756,3.9463,3.9952,4.0096,3.9978,3.9489,3.9342,3.9236,3.8778,3.8668,3.8789,3.9262,3.9342,3.9489,3.9995,4.0096,4.0096,4.0096,4.0096,4.0096,4.0096,4.0096,4.0096,4.0096,4.0096,4.0096,4.0096,4.0096,3.9705,3.875,3.9102,3.9342,3.9342,3.9808,4.0096,4.0096,4.0096,4.0096,4.0096,4.0096,4.0096,4.0096,4.0096,4.0096,4.0096,4.0096,4.0096,0.0,4.0096,4.0096,4.0096,4.0096,4.0096,4.0096,4.0096,0.0,4.0096,4.0096,4.0096,4.0096,4.0096,4.0096,4.0096,4.0663,4.1136,4.1204,4.183,4.254,4.3223,4.3308,4.3308,4.3308,4.2709,4.2269,4.2219,4.1593,4.1187,4.1119,4.046,4.0096,4.0096,4.0096,4.0096,4.0096,4.0096,4.0096,4.0096,4.0096,4.0096,4.0096,4.0096,4.0096,0.0,0.0,0.0,0.0,4.0096,4.0096,4.0096,4.0096,4.0096,4.0096,4.0096,4.0096,4.0096,4.0096,4.0096,4.0096,4.0096,4.0096,4.0096,4.0096,4.0096,4.0096,4.0096,4.0096,4.0096,4.0096,4.0096,4.0096,4.0096,4.0096,4.0096,4.0096,4.0096,4.0096,4.0096,4.0096,4.0096,4.0096,4.0096,4.0096,4.0096,4.0096,4.0096,4.0096,4.0096,4.0096,4.0096,4.0096,4.0096,4.0096,4.0096,4.0096,4.0096,4.0096,4.0096,4.0096,4.0096,4.0096,4.0096,4.0096,4.0096,4.0096,4.0096,4.0096,4.0096,4.0096,4.0096,3.9927,0.0,4.0096,4.0096,4.0096,4.0096,0.0,4.0096,4.0096,4.0096,4.0096,4.0096,4.0096,4.0096,4.0096,4.0096,4.0248,4.0544,4.1119,4.183,4.2354,4.254,4.2557,4.2557,4.2557,4.2388,4.2066,4.1508,4.1305,4.095,4.04,4.0197,4.0096,4.0096,4.0096,4.0096,4.0096,4.0096,4.0096,4.0096,4.0096,4.0096,4.0096,4.0096,4.0096,0.0,0.0,0.0,4.0096,4.0096,4.0096,4.0096,4.0096,4.0096,4.0096,4.0096,4.0096,4.0096,4.0096,4.0096,4.0096,4.0096,4.0096,4.0096,4.0096,4.0096,4.0096,4.0096,4.0096,4.0096,4.0096,4.0096,4.0096,4.0096,4.0096,4.0096,4.0096,4.0096,4.0096,4.0096,4.0096,4.0096,4.0096,4.0096,4.0096,4.0096,4.0096,4.0096,4.0096,4.0096,4.0096,4.0096,4.0096,4.0096,4.0096,4.0096,4.0096,4.0096,4.0096,4.0096,4.0096,4.0096,4.0096,4.0096,4.0096,4.0096,4.0096,4.0096,4.0096,4.0096,4.0096,4.0096,3.9516,3.9808,4.0096,4.0096,4.0096,4.0096,4.0096,4.0096,4.0096,4.0096,4.0096,4.0096,4.0096,4.0096,4.0096,4.0096,4.0096,4.0248,4.0629,4.1322,4.1796,4.1796,4.1796,4.1796,4.1796,4.1474,4.1145,4.073,4.0696,4.051,4.013,4.0096,4.0096,4.0096,4.0096,4.0096,4.0096,4.0096,4.0096,4.0096,4.0096,4.0096,4.0096,4.0096,4.0096,0.0,0.0,0.0,4.0096,4.0096,4.0096,4.0096,4.0096,4.0096,4.0096,4.0096,4.0096,4.0096,4.0096,4.0096,4.0096,4.0096,4.0096,4.0096,4.0096,4.0096,4.0096,4.0096,4.0096,4.0096,4.0096,4.0096,4.0096,4.0096,4.0096,4.0096,4.0096,4.0096,4.0096,4.0096,4.0096,4.0096,4.0096,4.0096,4.0096,4.0096,4.0096,4.0096,4.0096,4.0096,4.0096,4.0096,4.0096,4.0096,4.0096,4.0096,4.0096,4.0096,4.0096,4.0096,4.0096,4.0096,4.0096,4.0096,4.0096,4.0096,4.0096,4.0096,4.0096,4.0096,4.0096,4.0096,3.9236,3.9584,4.0096,4.0096,4.0096,4.0096,4.0096,4.0096,4.0096,4.0096,4.0096,4.0096,4.0096,4.0096,4.0096,4.0096,4.0096,4.0096,4.0096,4.0629,4.1035,4.1035,4.1035,4.1035,4.1035,4.0485,4.0096,4.0096,4.0096,4.0096,4.0096,4.0096,4.0096,4.0096,4.0096,4.0096,4.0096,4.0096,4.0096,4.0096,4.0096,4.0096,4.0096,4.0096,4.0096,4.0096,0.0,0.0,4.0096,4.0096,4.0096,4.0096,4.0096,4.0096,4.0096,4.0096,4.0096,4.0096,4.0096,4.0096,4.0096,4.0096,4.0096,4.0096,4.0096,4.0096,4.0096,4.0096,4.0096,4.0096,4.0096,4.0096,4.0096,4.0096,4.0096,4.0096,4.0096,4.0096,4.0096,4.0096,4.0096,4.0096,4.0096,4.0096,4.0096,4.0096,4.0096,4.0096,4.0096,4.0096,4.0096,4.0096,4.0096,4.0096,4.0096,4.0096,4.0096,4.0096,4.0096,4.0096,4.0096,4.0096,4.0096,4.0096,4.0096,4.0096,4.0096,4.0096,4.0096,4.0096,4.0096,4.0096,3.9756,4.002,4.0096,4.0096,4.0096,4.0096,4.0096,4.0096,4.0096,4.0096,4.0096,4.0096,4.0096,4.0096,4.0096,4.0096,4.0096,4.0096,4.0096,4.0197,4.0282,4.0282,4.0282,4.0282,4.0282,4.018,4.0096,4.0096,4.0096,4.0096,4.0096,4.0096,4.0096,4.0096,4.0096,4.0096,4.0096,4.0096,4.0096,4.0096,4.0096,4.0096,4.0096,4.0096,4.0096,4.0096,0.0,4.0096,4.0096,4.0096,4.0096,4.0096,4.0096,4.0096,4.0096,4.0096,4.0096,4.0096,4.0096,4.0096,4.0096,4.0096,4.0096,4.0096,4.0096,4.0096,4.0096,4.0096,4.0096,4.0096,4.0096,4.0096,4.0096,4.0096,4.0096,4.0096,4.0096,4.0096,4.0096,4.0096,4.0096,4.0096,4.0096,4.0096,4.0096,4.0096,4.0096,4.0096,4.0096,4.0096,4.0096,4.0096,4.0096,4.0096,4.0096,4.0096,4.0096,4.0096,4.0096,4.0096,4.0096,4.0096,4.0096,4.0096,4.0096,4.0096,4.0096,4.0096,4.0096,4.0096,4.0096,4.0096,3.9995,4.0096,4.0096,4.0096,4.0096,4.0096,4.0096,4.0096,4.0096,4.0096,4.0096,4.0096,4.0096,4.0096,4.0096,4.0096,4.0096,4.0096,4.0096,4.0096,4.0096,4.0096,4.0096,4.0096,4.0096,4.0096,4.0096,4.0096,4.0096,4.0096,4.0096,4.0096,4.0096,4.0096,4.0096,4.0096,4.0096,4.0096,4.0096,4.0096,4.0096,4.0096,4.0096,4.0096,4.0096,4.0096,0.0,4.0096,4.0096,4.0096,4.0096,4.0096,4.0096,4.0096,4.0096,4.0096,4.0096,4.0146,4.0424,4.0528,4.0528,4.0528,4.0528,4.0473,4.0179,4.0096,4.0171,4.0449,4.0336,4.0096,4.0096,4.0096,4.0096,4.0096,4.0096,4.0096,4.0096,4.0096,4.0096,4.0096,4.0096,4.0096,4.0096,4.0096,4.0096,4.0096,4.0096,4.0096,4.0096,4.0096,4.0096,4.0096,4.0096,4.0096,4.0096,4.0096,4.0096,4.0096,4.0096,4.0096,4.0096,4.0096,4.0096,4.0096,4.0096,4.0096,4.0096,4.0096,4.0096,4.0096,4.0096,4.0096,4.0096,4.0096,4.0096,4.0096,4.0096,4.0096,4.0096,4.0096,4.0096,4.0096,4.0096,4.0096,4.0096,4.0204,4.0254,4.0121,4.0311,4.0441,4.0311,4.041,4.0441,4.0311,4.0286,4.0254,4.0121,4.0096,4.0096,4.0096,4.0096,4.0096,4.0096,4.0096,4.0096,4.0096,4.0096,4.0096,4.0096,4.0096,4.0096,4.0096,4.0096,4.0096,4.0096,4.0096,4.0096,4.0096,4.0096,4.0096,4.0096,4.0096,4.0096,4.0096,4.0096,4.0096,4.0096,4.0096,4.0179,4.036,4.0756,4.0995,4.111,4.111,4.111,4.1018,4.0618,4.049,4.0594,4.1013,4.0821,4.049,4.049,4.049,4.049,4.049,4.049,4.049,4.049,4.049,4.049,4.049,4.049,4.049,4.049,4.049,4.049,4.049,4.0385,4.0286,4.0286,4.0196,4.0096,4.0096,4.0096,4.0146,4.0286,4.0434,4.049,4.049,4.0254,4.0171,4.0286,4.0171,4.0171,4.0286,4.0171,4.0096,4.0096,4.0096,4.0096,4.0096,4.0229,4.0229,4.0096,4.0096,4.0096,4.0096,4.0096,4.0096,4.0096,4.0096,4.0096,4.0096,4.0096,4.0096,4.0096,4.0521,4.0679,4.0179,4.0984,4.1468,4.0926,4.1313,4.1468,4.0903,4.0833,4.0655,4.0146,4.0096,4.0096,4.0096,4.0096,4.0096,4.0096,4.0096,4.0096,4.0096,4.0096,4.0096,4.0096,4.0096,4.0096,4.0096,4.0096,4.0096,4.0096,4.0096,4.0096,4.0096,4.0096,4.0096,4.0096,4.0096,4.0096,4.0096,4.0096,4.0096,4.0096,4.0096,4.0417,4.085,4.088,4.1268,4.1746,4.1746,4.1746,4.1746,4.1686,4.1682,4.1703,4.1707,4.1725,4.1682,4.1682,4.1682,4.1682,4.1682,4.1682,4.1682,4.1682,4.1682,4.1682,4.1682,4.1682,4.1682,4.1682,4.1682,4.1682,4.1682,4.1201,4.0833,4.0833,4.0417,4.0096,4.0096,4.0096,4.0311,4.0803,4.1358,4.1682,4.1682,4.0689,4.0336,4.0827,4.0368,4.0319,4.0833,4.0343,4.0096,4.0096,4.0096,4.0096,4.0121,4.0625,4.0577,4.0096,4.0096,4.0096,4.0096,4.0096,4.0096,4.0096,4.0343,4.0601,4.0601,4.0891,4.1168,4.1168,4.1313,4.138,4.1173,4.153,4.1707,4.149,4.1643,4.1725,4.149,4.1133,4.0827,4.0625,4.0286,4.0096,4.0096,4.0096,4.0096,4.0096,4.0096,4.0096,4.0096,4.0096,4.0096,4.0096,4.0096,4.0096,4.0096,4.0096,4.0096,4.0096,4.0096,4.0096,4.0096,4.0096,4.0096,4.0096,4.0096,4.0096,4.0096,4.0096,4.0311,4.0601,4.0601,4.0967,4.1512,4.1895,4.2162,4.2362,4.2362,4.2362,4.2302,4.1916,4.181,4.1874,4.2244,4.2362,4.2264,4.1895,4.181,4.181,4.181,4.181,4.181,4.181,4.181,4.181,4.181,4.181,4.181,4.181,4.181,4.181,4.181,4.1599,4.1468,4.1468,4.1286,4.1168,4.1168,4.1168,4.1241,4.1446,4.1664,4.181,4.181,4.1397,4.1241,4.1446,4.1263,4.1082,4.0903,4.0703,4.0601,4.0601,4.0601,4.0797,4.115,4.1358,4.1335,4.0311,4.0229,4.0196,4.0563,4.0473,4.0392,4.0594,4.0791,4.099,4.1155,4.1512,4.181,4.181,4.1958,4.2021,4.1832,4.2103,4.2266,4.2121,4.2226,4.2266,4.2103,4.1707,4.1335,4.0926,4.0577,4.0286,4.0121,4.0096,4.0096,4.0096,4.0096,4.0196,4.0343,4.0179,4.0179,4.0343,4.0179,4.0096,4.0096,4.0262,4.0262,4.0113,4.0279,4.0343,4.0368,4.0546,4.0642,4.0618,4.0441,4.0343,4.0343,4.0343,4.0679,4.1161,4.1161,4.1556,4.2142,4.2557,4.2807,4.2958,4.2958,4.2958,4.2865,4.2464,4.2327,4.2424,4.2846,4.2958,4.2846,4.2444,4.2327,4.2327,4.2327,4.2327,4.2327,4.2327,4.2327,4.2327,4.2327,4.2327,4.2327,4.2327,4.2327,4.2327,4.2327,4.2185,4.2062,4.2062,4.1916,4.181,4.181,4.1958,4.2062,4.2062,4.2226,4.2327,4.2327,4.2327,4.2266,4.2101,4.1895,4.1703,4.1468,4.1291,4.1161,4.1161,4.1161,4.1402,4.1793,4.2018,4.1979,4.0756,4.0504,4.0385,4.153,4.1358,4.1064,4.1664,4.1393,4.1162,4.1703,4.1832,4.1832,4.1832,4.2302,4.2519,4.1916,4.2772,4.3303,4.2788,4.316,4.3303,4.2769,4.2693,4.2223,4.1041,4.0903,4.0679,4.0171,4.0138,4.0138,4.0138,4.0138,4.0343,4.088,4.0392,4.0368,4.0903,4.0368,4.0096,4.0121,4.0655,4.0607,4.0121,4.0655,4.0903,4.0949,4.1534,4.181,4.175,4.1155,4.0903,4.0903,4.0903,4.1291,4.181,4.181,4.2183,4.2711,4.2711,4.3069,4.3515,4.3515,4.3515,4.3515,4.3515,4.3515,4.3515,4.3515,4.3515,4.3515,4.3515,4.3515,4.3515,4.3515,4.3515,4.3515,4.3515,4.3515,4.3515,4.3515,4.3515,4.3515,4.3515,4.3515,4.3515,4.3515,4.305,4.2711,4.2711,4.2183,4.1832,4.1832,4.2342,4.2711,4.2711,4.3196,4.3515,4.3515,4.3515,4.325,4.2731,4.2142,4.2101,4.2692,4.2121,4.181,4.181,4.181,4.181,4.1832,4.244,4.2382,4.0756,4.078,4.0868,4.1599,4.1664,4.1686,4.2302,4.232,4.2342,4.2884,4.3014,4.3014,4.3014,4.3142,4.3196,4.3014,4.3286,4.3444,4.3304,4.3392,4.3444,4.3268,4.2939,4.2577,4.2203,4.1789,4.1468,4.1308,4.1286,4.1286,4.1286,4.1286,4.1375,4.1534,4.0967,4.0733,4.0903,4.0368,4.0286,4.0655,4.081,4.0827,4.0679,4.1268,4.1534,4.1534,4.1707,4.181,4.1789,4.1599,4.1534,4.1534,4.1534,4.1895,4.2422,4.2422,4.2789,4.3268,4.3268,4.3375,4.3515,4.3515,4.3515,4.3515,4.3515,4.3515,4.3515,4.3515,4.3515,4.3515,4.3515,4.3515,4.3515,4.3515,4.3515,4.3515,4.3515,4.3515,4.3515,4.3515,4.3515,4.3515,4.3515,4.3515,4.3515,4.3515,4.3356,4.3268,4.3268,4.3124,4.3014,4.3014,4.316,4.3268,4.3268,4.341,4.3515,4.3515,4.3515,4.3427,4.3268,4.3087,4.2884,4.2693,4.2519,4.2422,4.2422,4.2422,4.2637,4.2996,4.3178,4.316,4.1402,4.1446,4.1451,4.2286,4.2324,4.2304,4.2902,4.3014,4.3124,4.3427,4.3515,4.3515,4.3515,4.3515,4.3515,4.3515,4.3515,4.3515,4.3515,4.3515,4.3515,4.3515,4.3214,4.2939,4.2731,4.2362,4.2059,4.1832,4.181,4.181,4.181,4.181,4.1916,4.2142,4.1578,4.138,4.1621,4.1053,4.0938,4.1268,4.1512,4.1621,4.1621,4.1979,4.2162,4.2162,4.2366,4.2364,4.2162,4.2162,4.2162,4.2162,4.2162,4.2501,4.3014,4.3014,4.3214,4.3515,4.3515,4.3515,4.3515,4.3515,4.3515,4.3515,4.3515,4.3515,4.3515,4.3515,4.3515,4.3515,4.3515,4.3515,4.3515,4.3515,4.3515,4.3515,4.3515,4.3515,4.3515,4.3515,4.3515,4.3515,4.3515,4.3515,4.3515,4.3515,4.3515,4.3515,4.3515,4.3515,4.3515,4.3515,4.3515,4.3515,4.3515,4.3515,4.3515,4.3515,4.3515,4.3515,4.3515,4.3515,4.3357,4.3014,4.3014,4.3014,4.3014,4.3014,4.3178,4.3515,4.3515,4.3515,4.2362,4.2302,4.2144,4.3232,4.3124,4.2902,4.3392,4.3515,4.3515,4.3515,4.3515,4.3515,4.3515,4.3515,4.3515,4.3515,4.3515,4.3515,4.3515,4.3515,4.3515,4.3515,4.3515,4.3303,4.2826,4.2769,4.2539,4.2,4.194,4.194,4.194,4.194,4.2203,4.2769,4.2203,4.2142,4.2693,4.2101,4.1832,4.1895,4.244,4.2731,4.2769,4.2769,4.2769,4.2807,4.3286,4.3214,4.2769,4.2769,4.2769,4.2769,4.2769,4.3069,4.3515,4.3515,4.3515,4.3515,4.3515,4.3515,4.3515,4.3515,4.3515,4.3515,4.3515,4.3515,4.3515,4.3515,4.3515,4.3515,4.3515,4.3515,4.3515,4.3515,4.3515,4.3515,4.3515,4.3515,4.3515,4.3515,4.3515,4.3515,4.3515,4.3515,4.3515,4.3515,4.3515,4.3515,4.3515,4.3515,4.3515,4.3515,4.3515,4.3515,4.3515,4.3515,4.3515,4.3515,4.3515,4.3515,4.3515,4.3515,4.3515,4.3515,4.3515,4.3515,4.3515,4.3515,4.3515,4.3515,4.3515,4.3515,4.2362,4.2616,4.2674,4.3321,4.341,4.3357,4.3462,4.3515,4.3515,4.3515,4.3515,4.3515,4.3515,4.3515,4.3515,4.3515,4.3515,4.3515,4.3515,4.3515,4.3515,4.3515,4.3515,4.3444,4.3339,4.3339,4.3268,4.3142,4.3123,4.3123,4.3123,4.3123,4.3196,4.3321,4.2789,4.2577,4.2711,4.2101,4.2041,0.0,4.2635,4.292,4.3339,4.3339,4.3339,4.3321,4.3444,4.3427,4.3339,4.3339,4.3339,4.3339,4.3339,4.3392,4.3515,4.3515,4.3515,4.3515,4.3515,4.3515,4.3515,4.3515,4.3515,4.3515,4.3515,4.3515,4.3515,4.3515,4.3515,4.3515,4.3515,4.3515,4.3515,4.3515,4.3515,4.3515,4.3515,4.3515,4.3515,4.3515,4.3515,4.3515,4.3515,4.3515,4.3515,4.3515,4.3515,4.3515,4.3515,4.3515,4.3515,4.3515,4.3515,4.3515,4.3515,4.3515,4.3515,4.3515,4.3515,4.3515,4.3515,4.3515,4.3515,4.3515,4.3515,4.3515,4.3515,4.3515,4.3515,4.3515,4.3515,4.3515,4.246,4.2883,4.316,4.3427,4.3515,4.3515,4.3515,4.3515,4.3515,4.3515,4.3515,4.3515,4.3515,4.3515,4.3515,4.3515,4.3515,4.3515,4.3515,4.3515,4.3515,4.3515,4.3515,4.3515,4.3515,4.3515,4.3515,4.3515,4.3515,4.3515,4.3515,4.3515,4.3515,4.3515,4.3232,4.3069,4.3069,4.2772,4.2772,4.3069,4.3069,4.3232,4.3515,4.3515,4.3515,4.3515,4.3515,4.3515,4.3515,4.3515,4.3515,4.3515,4.3515,4.3515,4.3515,4.3515,4.3515,4.3515,4.3515,4.3515,4.3515,4.3515,4.3515,4.3515,4.3515,4.3515,4.3515,4.3515,4.3515,4.3515,4.3515,4.3515,4.3515,4.3515,4.3515,4.3515,4.3515,4.3515,4.3515,4.3515,4.3515,4.3515,4.3515,4.3515,4.3515,4.3515,4.3515,4.3515,4.3515,4.3515,4.3515,4.3515,4.3515,4.3515,4.3515,4.3515,4.3515,4.3515,4.3515,4.3515,4.3515,4.3515,4.3515,4.3515,4.3515,4.3515,4.3515,4.3515,4.3515,4.3515,4.3515,4.3515,4.25,4.3087,4.3515,4.3515,4.3515,4.3515,4.3515,4.3515,4.3515,4.3515,4.3515,4.3515,4.3515,4.3515,4.3515,4.3515,4.3515,4.3515,4.3515,4.3515,4.3515,4.3515,4.3515,4.3515,4.3515,4.3515,4.3515,4.3515,4.3515,4.3515,4.3515,4.3515,4.3515,4.3515,4.3515,4.3515,4.3515,4.3515,4.3515,4.3515,4.3515,4.3515,4.3515,4.3515,4.3515,4.3515,4.3515,4.3515,4.3515,4.3515,4.3515,4.3515,4.3515,4.3515,4.3515,4.3515,4.3515,4.3515,4.3515,4.3515,4.3515,4.3515,4.3515,4.3515,4.3515,4.3515,4.3515,4.3515,4.3515,4.3515,4.3515,4.3515,4.3515,4.3515,4.3515,4.3515,4.3515,4.3515,4.3515,4.3515,4.3515,4.3515,4.3515,4.3515,4.3515,4.3515,4.3515,4.3515,4.3515,4.3515,4.3515,4.3515,4.3515,4.3515,4.3515,4.3515,4.3515,4.3515,4.3515,4.3515,4.3515,4.3515,4.3515,4.3515,4.3515,4.3515,4.3515,4.3515,4.3515,4.3515,4.3515,4.3515,4.2382,4.3087,4.3515,4.3515,4.3515,4.3515,4.3515,4.3515,4.3515,4.3515,4.3515,4.3515,4.3515,4.3515,4.3515,4.3515,4.3515,4.3515,4.3515,4.3515,4.3515,4.3515,4.3515,4.3515,4.3515,4.3515,4.3515,4.3515,4.3515,4.3515,4.3515,4.3515,4.3515,4.3515,4.3515,4.3515,4.3515,4.3515,4.3515,4.3515,4.3515,4.3515,4.3515,4.3515,4.3515,4.3515,4.3515,4.3515,4.3515,4.3515,4.3515,4.3515,4.3515,4.3515,4.3515,4.3515,4.3515,4.3515,4.3515,4.3515,4.3515,4.3515,4.3515,4.3515,4.3515,4.3515,4.3515,4.3515,4.3515,4.3515,4.3515,4.3515,4.3515,4.3515,4.3515,4.3515,4.3515,4.3515,4.3515,4.3515,4.3515,4.3515,4.3515,4.3515,4.3515,4.3515,4.3515,4.3515,4.3515,4.3515,4.3515,4.3515,4.3515,4.3515,4.3515,4.3515,4.3515,4.3515,4.3515,4.3515,4.3515,4.3515,4.3515,4.3515,4.3515,4.3515,4.3515,4.3515,4.3515,4.3515,4.3515,4.3515,4.2362,4.3087,4.3515,4.3515,4.3515,4.3515,4.3515,4.3515,4.3515,4.3515,4.3515,4.3515,4.3515,4.3515,4.3515,4.3515,4.3515,4.3515,4.3515,4.3515,4.3515,4.3515,4.3515,4.3515,4.3515,4.3515,4.3515,4.3515,4.3515,4.3515,4.3515,4.3515,4.3515,4.3515,4.3515,4.3515,4.3515,4.3515,4.3515,4.3515,4.3515,4.3515,4.3515,4.3515,4.3515,4.3515,4.3515,4.3515,4.3515,4.3515,4.3515,4.3515,4.3515,4.3515,4.3515,4.3515,4.3515,4.3515,4.3515,4.3515,4.3515,4.3515,4.3515,4.3515,4.3515,4.3515,4.3515,4.3515,4.3515,4.3515,4.3515,4.3515,4.3515,4.3515,4.3515,4.3515,4.3515,4.3515,4.3515,4.3515,4.3515,4.3515,4.3515,4.3515,4.3515,4.3515,4.3515,4.3515,4.3515,4.3515,4.3515,4.3515,4.3515,4.3515,4.3515,4.3515,4.3515,4.3515,4.3515,4.3515,4.3515,4.3515,4.3515,4.3515,4.3515,4.3515,4.3515,4.3515,4.3515,4.3515,4.3515,4.3515,4.2183,4.2884,4.3339,4.348,4.3515,4.3515,4.3515,4.3515,4.3515,4.3515,4.3515,4.3515,4.3515,4.3515,4.3515,4.3515,4.3515,4.3515,4.3515,4.3515,4.3515,4.3515,4.3515,4.3515,4.3515,4.3515,4.3515,4.3515,4.3515,4.3515,4.3515,4.3515,4.3515,4.3515,4.3515,4.3515,4.3515,4.3515,4.3515,4.3515,4.3515,4.3515,4.3515,4.3515,4.3515,4.3515,4.3515,4.3515,4.3515,4.3515,4.3515,4.3515,4.3515,4.3515,4.3515,4.3515,4.3515,4.3515,4.3515,4.3515,4.3515,4.3515,4.3515,4.3515,4.3515,4.3515,4.3515,4.3515,4.3515,4.3515,4.3515,4.3515,4.3515,4.3515,4.3515,4.3515,4.3515,4.3515,4.3515,4.3515,4.3515,4.3515,4.3515,4.3515,4.3515,4.3515,4.3515,4.3515,4.3515,4.3515,4.3515,4.3515,4.3515,4.3515,4.3515,4.3515,4.3515,4.3515,4.3515,4.3515,4.3515,4.3515,4.3515,4.3515,4.3515,4.3515,4.3515,4.3515,4.3515,4.3515,4.3515,4.3515,4.1664,4.2284,4.2864,4.3375,4.3515,4.3515,4.3515,4.3515,4.3515,4.3515,4.3515,4.3515,4.3515,4.3515,4.3515,4.3515,4.3515,4.3515,4.3515,4.3515,4.3515,4.3515,4.3515,4.3515,4.3515,4.3515,4.3515,4.3515,4.3515,4.3515,4.3515,4.3515,4.3515,4.3515,4.3515,4.3515,4.3515,4.3515,4.3515,4.3515,4.3515,4.3515,4.3515,4.3515,4.3515,4.3515,4.3515,4.3515,4.3515,4.3515,4.3515,4.3515,4.3515,4.3515,4.3515,4.3515,4.3515,4.3515,4.3515,4.3515,4.3515,4.3515,4.3515,4.3515,4.3515,4.3515,4.3515,4.3515,4.3515,4.3515,4.3515,4.3515,4.3515,4.3515,4.3515,4.3515,4.3515,4.3515,4.3515,4.3515,4.3515,4.3515,4.3515,4.3515,4.3515,4.3515,4.3515,4.3515,4.3515,4.3515,4.3515,4.3515,4.3515,4.3515,4.3515,4.3515,4.3515,4.3515,4.3515,4.3515,4.3515,4.3515,4.3515,4.3515,4.3515,4.3515,4.3515,4.3515,4.3515,4.3515,4.3515,4.3515,4.1178,4.1937,4.275,4.2939,4.325,4.3515,4.3515,4.3515,4.3515,4.3515,4.3515,4.3515,4.3515,4.3515,4.3515,4.3515,4.3515,4.3515,4.3515,4.3515,4.3515,4.3515,4.3515,4.3515,4.3515,4.3515,4.3515,4.3515,4.3515,4.3515,4.3515,4.3515,4.3515,4.3515,4.3515,4.3515,4.3515,4.3515,4.3515,4.3515,4.3515,4.3515,4.3515,4.3515,4.3515,4.3515,4.3515,4.3515,4.3515,4.3515,4.3515,4.3515,4.3515,4.3515,4.3515,4.3515,4.3515,4.3515,4.3515,4.3515,4.3515,4.3515,4.3515,4.3515,4.3515,4.3515,4.3515,4.3515,4.3515,4.3515,4.3515,4.3515,4.3515,4.3515,4.3515,4.3515,4.3515,4.3515,4.3515,4.3515,4.3515,4.3515,4.3515,4.3515,4.3515,4.3515,4.3515,4.3515,4.3515,4.3515,4.3515,4.3515,4.3515,4.3515,4.3515,4.3515,4.3515,4.3515,4.3515,4.3515,4.3515,4.3515,4.3515,4.3515,4.3515,4.3515,4.3515,4.3515,4.3515,4.3515,4.3515,4.3515,4.0833,4.149,4.2183,4.2596,4.2976,4.3268,4.3444,4.3515,4.3515,4.3515,4.3515,4.3515,4.3515,4.3515,4.3515,4.3515,4.3515,4.3515,4.3515,4.3515,4.3515,4.3515,4.3515,4.3515,4.3515,4.3515,4.3515,4.3515,4.3515,0.0,4.3515,4.3515,4.3515,4.3515,4.3515,4.3515,4.3515,4.3515,4.3515,4.3515,4.3515,4.3515,4.3515,4.3515,4.3515,4.3515,4.3515,4.3515,4.3515,4.3515,4.3515,4.3515,4.3515,4.3515,4.3515,4.3515,4.3515,4.3515,4.3515,4.3515,4.3515,4.3515,4.3515,4.3515,4.3515,4.3515,4.3515,4.3515,4.3515,4.3515,4.3515,4.3515,4.3515,4.3515,4.3515,4.3515,4.3515,4.3515,4.3515,4.3515,4.3515,4.3515,4.3515,4.3515,4.3515,4.3515,4.3515,4.3515,4.3515,4.3515,4.3515,4.3515,4.3515,4.3515,4.3515,4.3515,4.3515,4.3515,4.3515,4.3515,4.3515,4.3515,4.3515,4.3515,4.3515,4.3515,4.3515,4.3515,4.3515,4.3515,4.3515,4.3515,0.0,0.0,0.0,4.2342,4.2655,4.2808,4.3357,4.348,4.3479,4.3497,4.3515,4.3515,4.3515,4.3515,4.3515,4.3515,4.3515,4.3515,4.3515,4.3515,4.3515,4.3515,4.3515,4.3515,4.3515,4.3515,4.3515,4.3515,4.3515,4.3515,4.3515,4.3515,4.3515,4.3515,4.3515,4.3515,4.3515,4.3515,4.3515,4.3515,4.3515,4.3515,4.3515,4.3515,4.3515,4.3515,4.3515,4.3515,4.3515,4.3515,4.3515,4.3515,4.3515,4.3515,4.3515,4.3515,4.3515,4.3515,4.3515,4.3515,4.3515,4.3515,4.3515,4.3515,4.3515,4.3515,4.3515,4.3515,4.3515,4.3515,4.3515,4.3515,4.3515,4.3515,4.3515,4.3515,4.3515,4.3515,4.3515,4.3515,4.3515,4.3515,4.3515,4.3515,4.3515,4.3515,4.3515,4.3515,4.3515,4.3515,4.3515,4.3515,4.3515,4.3515,4.3515,4.3515,4.3515,4.3515,4.3515,4.3515,4.3515,4.3515,4.3515,4.3515,4.3515,4.3515,4.3515,4.3515,4.3515,4.3515,4.3515,4.3515,4.012,0.0,0.0,0.0,0.0,0.0,4.2789,4.292,4.3032,4.3427,4.3515,4.3515,4.3515,4.3515,4.3515,4.3515,4.3515,4.3515,4.3515,4.3515,4.3515,4.3515,4.3515,4.3515,4.3515,4.3515,4.3515,0.0,4.3515,4.3515,4.3515,4.3515,4.3515,4.3515,4.3515,4.3515,4.3515,4.3515,4.3515,4.3515,4.3515,4.3515,4.3515,4.3515,4.3515,4.3515,4.3515,4.3515,4.3515,4.3515,4.3515,4.3515,4.3515,4.3515,4.3515,4.3515,4.3515,4.3515,4.3515,4.3515,4.3515,4.3515,4.3515,4.3515,4.3515,4.3515,4.3515,4.3515,4.3515,4.3515,4.3515,4.3515,4.3515,4.3515,4.3515,4.3515,4.3515,4.3515,4.3515,4.3515,4.3515,4.3515,4.3515,4.3515,4.3515,4.3515,4.3515,4.3515,4.3515,4.3515,4.3515,4.3515,4.3515,4.3515,4.3515,4.3515,4.3515,4.3515,4.3515,4.3515,4.3515,4.3515,4.3515,4.3515,4.3515,4.3515,4.3515,4.3515,4.3515,4.3515,4.3515,4.3515,3.9463,4.0095,4.0683,4.0885,0.0,0.0,4.25,4.2711,4.2845,4.3392,4.3515,4.3515,4.3515,4.3515,4.3515,4.3515,4.3515,4.3515,4.3515,4.3515,4.3515,4.3515,4.3515,4.3515,4.3515,4.3515,4.3515,4.3515,4.3515,4.3515,4.3515,4.3515,4.3515,4.3515,4.3515,4.3515,4.3515,4.3515,4.3515,4.3515,4.3515,4.3515,4.3515,4.3515,4.3515,4.3515,4.3515,4.3515,4.3515,4.3515,4.3515,4.3515,4.3515,4.3515,4.3515,4.3515,4.3515,4.3515,4.3515,4.3515,4.3515,4.3515,4.3515,4.3515,4.3515,4.3515,4.3515,4.3515,4.3515,4.3515,4.3515,4.3515,4.3515,4.3515,4.3515,4.3515,4.3515,4.3515,4.3515,4.3515,4.3515,4.3515,4.3515,4.3515,4.3515,4.3515,4.3515,4.3515,4.3515,4.3515,4.3515,4.3515,4.3515,4.3515,4.3515,4.3515,4.3515,4.3515,4.3515,4.3515,4.3515,4.3515,4.3515,4.3515,4.3515,4.3515,4.3515,4.3515,4.3515,4.3515,4.3515,4.3515,3.8745,3.9358,4.0104,4.0642,4.0797,0.0,4.2223,4.25,4.2656,4.3196,4.3321,4.3339,4.3392,4.341,4.3427,4.3479,4.3515,4.3515,4.3515,4.3515,4.3515,4.3515,4.3515,4.3515,4.3515,4.3515,4.3515,4.3515,4.3515,4.3515,4.3515,4.3515,4.3515,4.3515,4.3515,4.3515,4.3515,4.3515,4.3515,4.3515,4.3515,4.3515,4.3515,4.3515,4.3515,4.3515,4.3515,4.3515,4.3515,4.3515,4.3515,4.3515,4.3515,4.3515,4.3515,4.3515,4.3515,4.3515,4.3515,4.3515,4.3515,4.3515,4.3515,4.3515,4.3515,4.3515,4.3515,4.3515,4.3515,4.3515,4.3515,4.3515,4.3515,4.3515,4.3515,4.3515,4.3515,4.3515,4.3515,4.3515,4.3515,4.3515,4.3515,4.3515,4.3515,4.3515,4.3515,4.3515,4.3515,4.3515,4.3515,4.3515,4.3515,4.3515,4.3515,4.3515,4.3515,4.3515,4.3515,4.3515,4.3515,4.3515,4.3515,4.3515,4.3515,4.3515,4.3515,4.3515,4.3515,4.3515,4.3515,4.3515,3.7847,3.8553,3.9166,3.9282,3.9783,0.0,4.1087,4.1246,4.1424,4.2003,4.2144,4.2266,4.277,4.2864,4.2995,4.3427,4.3515,4.3515,4.3515,4.3515,4.3515,4.3515,4.3515,4.3515,4.3515,4.3515,4.3515,4.3515,4.3515,4.3515,4.3515,4.3515,4.3515,4.3515,4.3515,4.3515,4.3515,4.3515,4.3515,4.3515,4.3515,4.3515,4.3515,4.3515,4.3515,4.3515,4.3515,4.3515,4.3515,4.3515,4.3515,4.3515,4.3515,4.3515,4.3515,4.3515,4.3515,4.3515,4.3515,4.3515,4.3515,4.3515,4.3515,4.3515,4.3515,4.3515,4.3515,4.3515,4.3515,4.3515,4.3515,4.3515,4.3515,4.3515,4.3515,4.3515,4.3515,4.3515,4.3515,4.3515,4.3515,4.3515,4.3515,4.3515,4.3515,4.3515,4.3515,4.3515,4.3515,4.3515,4.3515,4.3515,4.3515,4.3515,4.3515,4.3515,4.3515,4.3515,4.3515,4.3515,4.3515,4.3515,4.3515,4.3515,4.3515,4.3515,4.3515,4.3515,4.3515,4.3515,4.3515,4.3515,3.7084,3.7761,3.8442,3.8799,3.9193,0.0,0.0,4.0903,4.1064,4.1664,4.181,4.1895,4.2183,4.2262,4.2442,4.3014,4.3105,4.3196,4.3462,4.3515,4.3515,4.3515,4.3515,4.3515,4.3515,4.3515,4.3515,4.3515,4.3515,4.3515,4.3515,4.3515,4.3515,4.3515,4.3515,4.3515,4.3515,4.3515,4.3515,4.3515,4.3515,4.3515,4.3515,4.3515,4.3515,4.3515,4.3515,4.3515,4.3515,4.3515,4.3515,4.3515,4.3515,4.3515,4.3515,4.3515,4.3515,4.3515,4.3515,4.3515,4.3515,4.3515,4.3515,4.3515,4.3515,4.3515,4.3515,4.3515,4.3515,4.3515,4.3515,4.3515,4.3515,4.3515,4.3515,4.3515,4.3515,4.3515,4.3515,4.3515,4.3515,4.3515,4.3515,4.3515,4.3515,4.3515,4.3515,4.3515,4.3515,4.3515,4.3515,4.3515,4.3515,4.3515,4.3515,4.3515,4.3515,4.3515,4.3515,4.3515,4.3515,4.3515,4.3515,4.3515,4.3515,4.3515,4.3515,4.3515,4.3515,4.3515,4.3515,4.3515,3.6384,3.698,3.7703,3.8314,3.8564,3.8956,0.0,0.0,0.0,4.1126,4.1362,4.149,4.1599,4.1621,4.1814,4.244,4.2616,4.2845,4.3304,4.3427,0.0,4.3515,4.3515,4.3515,4.3515,4.3515,4.3515,4.3515,4.3515,4.3515,4.3515,4.3515,4.3515,4.3515,4.3515,4.3515,4.3515,4.3515,4.3515,4.3515,4.3515,4.3515,4.3515,4.3515,4.3515,4.3515,4.3515,4.3515,4.3515,4.3515,4.3515,4.3515,4.3515,4.3515,4.3515,4.3515,4.3515,4.3515,4.3515,4.3515,4.3515,4.3515,4.3515,4.3515,4.3515,4.3515,4.3515,4.3515,4.3515,4.3515,4.3515,4.3515,4.3515,4.3515,4.3515,4.3515,4.3515,4.3515,4.3515,4.3515,4.3515,4.3515,4.3515,4.3515,4.3515,4.3515,4.3515,4.3515,4.3515,4.3515,4.3515,4.3515,4.3515,4.3515,4.3515,4.3515,4.3515,4.3515,4.3515,4.3515,4.3515,4.3515,4.3515,4.3515,4.3515,4.3515,4.3515,4.3515,4.3515,4.3515,4.3515,4.3515,3.5619,3.618,3.6768,3.6843,3.7411,3.7978,3.8133,0.0,3.9159,3.9222,0.0,4.0441,4.0903,0.0,0.0,4.1793,4.2342,4.2731,4.2788,4.3196,4.3515,4.3515,4.3515,4.3515,4.3515,4.3515,4.3515,4.3515,4.3515,4.3515,4.3515,4.3515,4.3515,4.3515,4.3515,4.3515,4.3515,4.3515,4.3515,4.3515,4.3515,4.3515,4.3515,4.3515,4.3515,4.3515,4.3515,4.3515,4.3515,4.3515,4.3515,4.3515,4.3515,4.3515,4.3515,4.3515,4.3515,4.3515,4.3515,4.3515,4.3515,4.3515,4.3515,4.3515,4.3515,4.3515,4.3515,4.3515,4.3515,4.3515,4.3515,4.3515,4.3515,4.3515,4.3515,4.3515,4.3515,4.3515,4.3515,4.3515,4.3515,4.3515,4.3515,4.3515,4.3515,4.3515,4.3515,4.3515,4.3515,4.3515,4.3515,4.3515,4.3515,4.3515,4.3515,4.3515,4.3515,4.3515,4.3515,4.3515,4.3515,4.3515,4.3515,4.3515,4.3515,4.3515,4.3515,4.3515,4.3515,4.3515,4.3515,4.3515,3.5504,3.5733,0.0,0.0,0.0,0.0,3.769,0.0,3.8386,0.0,0.0,0.0,0.0,0.0,0.0,0.0,4.149,4.1789,4.2142,4.2675,4.316,4.3462,0.0,0.0,4.3515,4.3515,4.3515,0.0,4.3515,4.3515,4.3515,4.3515,4.3515,4.3515,4.3515,4.3515,4.3515,4.3515,4.3515,4.3515,4.3515,4.3515,4.3515,4.3515,4.3515,4.3515,4.3515,4.3515,4.3515,4.3515,4.3515,4.3515,4.3515,4.3515,4.3515,4.3515,4.3515,4.3515,4.3515,4.3515,4.3515,4.3515,4.3515,4.3515,4.3515,4.3515,4.3515,4.3515,4.3515,4.3515,4.3515,4.3515,4.3515,4.3515,4.3515,4.3515,4.3515,4.3515,4.3515,4.3515,4.3515,4.3515,4.3515,4.3515,4.3515,4.3515,4.3515,4.3515,4.3515,4.3515,4.3515,4.3515,4.3515,4.3515,4.3515,4.3515,4.3515,4.3515,4.3515,4.3515,4.3515,4.3515,4.3515,4.3515,4.3515,4.3515,4.3515,4.3515,4.3515,4.3515,4.3515,4.3515,3.5504,0.0,0.0,0.0,0.0,0.0,0.0,0.0,0.0,0.0,0.0,0.0,0.0,0.0,0.0,0.0,0.0,4.1064,4.149,4.2221,4.2845,4.3232,0.0,0.0,0.0,4.3515,4.3515,0.0,0.0,4.3515,4.3515,4.3515,4.3515,4.3515,4.3515,4.3515,4.3515,4.3515,4.3515,4.3515,4.3515,4.3515,4.3515,4.3515,4.3515,4.3515,4.3515,4.3515,4.3515,4.3515,4.3515,4.3515,4.3515,4.3515,4.3515,4.3515,4.3515,4.3515,4.3515,4.3515,4.3515,4.3515,4.3515,4.3515,4.3515,4.3515,4.3515,4.3515,4.3515,4.3515,4.3515,4.3515,4.3515,4.3515,4.3515,4.3515,4.3515,4.3515,4.3515,4.3515,4.3515,4.3515,4.3515,4.3515,4.3515,4.3515,4.3515,4.3515,4.3515,4.3515,4.3515,4.3515,4.3515,4.3515,4.3515,4.3515,4.3515,4.3515,4.3515,4.3515,4.3515,4.3515,4.3515,4.3515,4.3515,4.3515,4.3515,4.3515,4.3515,4.3515,4.3515,4.3515,0.0,0.0,0.0,3.5537,0.0,0.0,0.0,0.0,3.6646,0.0,0.0,0.0,0.0,0.0,0.0,0.0,0.0,0.0,0.0,4.1958,4.2711,4.2713,0.0,0.0,0.0,4.3515,4.3515,0.0,0.0,0.0,4.3515,4.3515,4.3515,4.3515,4.3515,4.3515,4.3515,4.3515,4.3515,4.3515,4.3515,4.3515,4.3515,4.3515,4.3515,4.3515,4.3515,4.3515,4.3515,4.3515,4.3515,4.3515,4.3515,4.3515,4.3515,4.3515,4.3515,4.3515,4.3515,4.3515,4.3515,4.3515,4.3515,4.3515,4.3515,4.3515,4.3515,4.3515,4.3515,4.3515,4.3515,4.3515,4.3515,4.3515,4.3515,4.3515,4.3515,4.3515,4.3515,4.3515,4.3515,4.3515,4.3515,4.3515,4.3515,4.3515,4.3515,4.3515,4.3515,4.3515,4.3515,4.3515,4.3515,4.3515,4.3515,4.3515,4.3515,4.3515,4.3515,4.3515,4.3515,4.3515,4.3515,4.3515,4.3515,4.3515,4.3515,4.3515,4.3515,4.3515,4.3515,4.3515,0.0,0.0,3.5504,3.5504,0.0,0.0,0.0,0.0,0.0,0.0,0.0,0.0,0.0,0.0,0.0,0.0,0.0,0.0,0.0,4.1375,4.2244,4.2655,4.3178,4.3515,0.0,0.0,0.0,0.0,4.3515,0.0,0.0,4.3515,4.3515,4.3515,4.3515,4.3515,4.3515,4.3515,4.3515,4.3515,4.3515,4.3515,4.3515,4.3515,4.3515,4.3515,4.3515,4.3515,4.3515,4.3515,4.3515,4.3515,4.3515,4.3515,4.3515,4.3515,4.3515,4.3515,4.3515,4.3515,4.3515,4.3515,4.3515,4.3515,4.3515,4.3515,4.3515,4.3515,4.3515,4.3515,4.3515,4.3515,4.3515,4.3515,4.3515,4.3515,4.3515,4.3515,4.3515,4.3515,4.3515,4.3515,4.3515,4.3515,4.3515,4.3515,4.3515,4.3515,4.3515,4.3515,4.3515,4.3515,4.3515,4.3515,4.3515,4.3515,4.3515,4.3515,4.3515,4.3515,4.3515,4.3515,4.3515,4.3515,4.3515,4.3515,4.3515,4.3515,4.3515,4.3515,4.3515,4.3515,3.5504,3.5504,0.0,3.5504,3.5504,0.0,3.5504,0.0,3.5636,0.0,0.0,0.0,0.0,0.0,0.0,0.0,0.0,0.0,0.0,4.1013,4.1771,4.2616,4.3178,4.3515,4.3515,0.0,0.0,0.0,0.0,0.0,0.0,0.0,4.3515,4.3515,4.3515,4.3515,4.3515,4.3515,4.3515,4.3515,4.3515,4.3515,4.3515,4.3515,4.3515,4.3515,4.3515,4.3515,4.3515,4.3515,4.3515,4.3515,4.3515,4.3515,4.3515,4.3515,4.3515,4.3515,4.3515,4.3515,4.3515,4.3515,4.3515,4.3515,4.3515,4.3515,4.3515,4.3515,4.3515,4.3515,4.3515,4.3515,4.3515,4.3515,4.3515,4.3515,4.3515,4.3515,4.3515,4.3515,4.3515,4.3515,4.3515,4.3515,4.3515,4.3515,4.3515,4.3515,4.3515,4.3515,4.3515,4.3515,4.3515,4.3515,4.3515,4.3515,4.3515,4.3515,4.3515,4.3515,4.3515,4.3515,4.3515,4.3515,4.3515,4.3515,4.3515,4.3515,4.3515,4.3515,4.3515,4.3515]}]]